[[{"header":{"parameterUnit":"m.s-1","parameterCategory":1,"la1":31.0,"la2":29.5877,"lo1":-88.7671,"lo2":-86.6584,"dy":0.0162,"dx":0.0185,"nx":115,"ny":88,"refTime":"2026-04-19T12:00:00:Z","depth":0,"parameterNumber":2,"parameterNumberName":"U-component_of_WINDS"},"data":[0.0,0.0,0.0,0.0,0.0,0.0,0.0,0.0,0.0,0.0,0.0,0.0,0.0,0.0,0.0,0.0,0.0,0.0,0.0,0.0,0.0,0.0,0.0,0.0,0.0,0.0,0.0,0.0,0.0,0.0,0.0,0.0,0.0,0.0,0.0,0.0,0.0,0.0,0.0,0.0,0.0,0.0,0.0,0.0,0.0,0.0,0.0,0.0,0.0,0.0,0.0,0.0,0.0,0.0,0.0,0.0,0.0,0.0,0.0,0.0,0.0,0.0,0.0,0.0,0.0,0.0,0.0,0.0,0.0,0.0,0.0,0.0,0.0,0.0,0.0,0.0,0.0,0.0,0.0,0.0,0.0,0.0,0.0,0.0,0.0,0.0,0.0,0.0,0.0,0.0,0.0,0.0,0.0,0.0,0.0,0.0,0.0,0.0,0.0,0.0,0.0,0.0,0.0,0.0,0.0,0.0,0.0,0.0,0.0,0.0,0.0,0.0,0.0,0.0,0.0,0.0,0.0,0.0,0.0,0.0,0.0,0.0,0.0,0.0,0.0,0.0,0.0,0.0,0.0,0.0,0.0,0.0,0.0,0.0,0.0,0.0,0.0,0.0,0.0,0.0,0.0,0.0,0.0,0.0,0.0,0.0,0.0,0.0,0.0,0.0,0.0,0.0,0.0,0.0,0.0,0.0,0.0,0.0,0.0,0.0,0.0,0.0,0.0,0.0,0.0,0.0,0.0,0.0,0.0,0.0,0.0,0.0,0.0,0.0,0.0,0.0,0.0,0.0,0.0,0.0,0.0,0.0,0.0,0.0,0.0,0.0,0.0,0.0,0.0,0.0,0.0,0.0,0.0,0.0,0.0,0.0,0.0,0.0,0.0,0.0,0.0,0.0,0.0,0.0,0.0,0.0,0.0,0.0,0.0,0.0,0.0,0.0,0.0,0.0,0.0,0.0,0.0,0.0,0.0,0.0,0.0,0.0,0.0,0.0,0.0,0.0,0.0,0.0,0.0,0.0,0.0,0.0,0.0,0.0,0.0,0.0,0.0,0.0,0.0,0.0,0.0,0.0,0.0,0.0,0.0,0.0,0.0,0.0,0.0,0.0,0.0,0.0,0.0,0.0,0.0,0.0,0.0,0.0,0.0,0.0,0.0,0.0,0.0,0.0,0.0,0.0,0.0,0.0,0.0,0.0,0.0,0.0,0.0,0.0,0.0,0.0,0.0,0.0,0.0,0.0,0.0,0.0,0.0,0.0,0.0,0.0,0.0,0.0,0.0,0.0,0.0,0.0,0.0,0.0,0.0,0.0,0.0,0.0,0.0,0.0,0.0,0.0,0.0,0.0,0.0,0.0,0.0,0.0,0.0,0.0,0.0,0.0,0.0,0.0,0.0,0.0,0.0,0.0,0.0,0.0,0.0,0.0,0.0,0.0,0.0,0.0,0.0,0.0,0.0,0.0,0.0,0.0,0.0,0.0,0.0,0.0,0.0,0.0,0.0,0.0,0.0,0.0,0.0,0.0,0.0,0.0,0.0,0.0,0.0,0.0,0.0,0.0,0.0,0.0,0.0,0.0,0.0,0.0,0.0,0.0,0.0,0.0,0.0,0.0,0.0,0.0,0.0,0.0,0.0,0.0,0.0,0.0,0.0,0.0,0.0,0.0,0.0,0.0,0.0,0.0,0.0,0.0,0.0,0.0,0.0,0.0,0.0,0.0,0.0,0.0,0.0,0.0,0.0,0.0,0.0,0.0,0.0,0.0,0.0,0.0,0.0,0.0,0.0,0.0,0.0,0.0,0.0,0.0,0.0,0.0,0.0,0.0,0.0,0.0,0.0,0.0,0.0,0.0,0.0,0.0,0.0,0.0,0.0,0.0,0.0,0.0,0.0,0.0,0.0,0.0,0.0,0.0,0.0,0.0,0.0,0.0,0.0,0.0,0.0,0.0,0.0,0.0,0.0,0.0,0.0,0.0,0.0,0.0,0.0,0.0,0.0,0.0,0.0,0.0,0.0,0.0,0.0,0.0,0.0,0.0,0.0,0.0,0.0,0.0,0.0,0.0,0.0,0.0,0.0,0.0,0.0,0.0,0.0,0.0,0.0,0.0,0.0,0.0,0.0,0.0,0.0,0.0,0.0,0.0,0.0,0.0,0.0,0.0,0.0,0.0,0.0,0.0,0.0,0.0,0.0,0.0,0.0,0.0,0.0,0.0,0.0,0.0,0.0,0.0,0.0,0.0,0.0,0.0,0.0,0.0,0.0,0.0,0.0,0.0,0.0,0.0,0.0,0.0,0.0,0.0,0.0,0.0,0.0,0.0,0.0,0.0,0.0,0.0,0.0,0.0,0.0,0.0,0.0,0.0,0.0,0.0,0.0,0.0,0.0,0.0,0.0,0.0,0.0,0.0,0.0,0.0,0.0,0.0,0.0,0.0,0.0,0.0,0.0,0.0,0.0,0.0,0.0,0.0,0.0,0.0,0.0,0.0,0.0,0.0,0.0,0.0,0.0,0.0,0.0,0.0,0.0,0.0,0.0,0.0,0.0,0.0,0.0,0.0,0.0,0.0,0.0,0.0,0.0,0.0,0.0,0.0,0.0,0.0,0.0,0.0,0.0,0.0,0.0,0.0,0.0,0.0,0.0,0.0,0.0,0.0,0.0,0.0,0.0,0.0,0.0,0.0,0.0,0.0,0.0,0.0,0.0,0.0,0.0,0.0,0.0,0.0,0.0,0.0,0.0,0.0,0.0,0.0,0.0,0.0,0.0,0.0,0.0,0.0,0.0,0.0,0.0,0.0,0.0,0.0,0.0,0.0,0.0,0.0,0.0,0.0,0.0,0.0,0.0,0.0,0.0,0.0,0.0,0.0,0.0,0.0,0.0,0.0,0.0,0.0,0.0,0.0,0.0,0.0,0.0,0.0,0.0,0.0,0.0,0.0,0.0,0.0,0.0,0.0,0.0,0.0,0.0,0.0,0.0,0.0,0.0,0.0,0.0,0.0,0.0,0.0,0.0,0.0,0.0,0.0,0.0,0.0,0.0,0.0,0.0,0.0,0.0,0.0,0.0,0.0,0.0,0.0,0.0,0.0,0.0,0.0,0.0,0.0,0.0,0.0,0.0,0.0,0.0,0.0,0.0,0.0,0.0,0.0,0.0,0.0,0.0,0.0,0.0,0.0,0.0,0.0,0.0,0.0,0.0,0.0,0.0,0.0,0.0,0.0,0.0,0.0,0.0,0.0,0.0,0.0,0.0,0.0,0.0,0.0,0.0,0.0,0.0,0.0,0.0,0.0,0.0,0.0,0.0,0.0,0.0,0.0,0.0,0.0,0.0,0.0,0.0,0.0,0.0,0.0,0.0,0.0,0.0,0.0,0.0,0.0,0.0,0.0,0.0,0.0,0.0,0.0,0.0,0.0,0.0,0.0,0.0,0.0,0.0,0.0,0.0,0.0,0.0,0.0,0.0,0.0,0.0,0.0,0.0,0.0,0.0,0.0,0.0,0.0,0.0,0.0,0.0,0.0,0.0,0.0,0.0,0.0,0.0,0.0,0.0,0.0,0.0,0.0,0.0,0.0,0.0,0.0,0.0,0.0,0.0,0.0,0.0,0.0,0.0,0.0,0.0,0.0,0.0,0.0,0.0,0.0,0.0,0.0,0.0,0.0,0.0,0.0,0.0,0.0,0.0,0.0,0.0,0.0,0.0,0.0,0.0,0.0,0.0,0.0,0.0,0.0,0.0,0.0,0.0,0.0,0.0,0.0,0.0,0.0,0.0,0.0,0.0,0.0,0.0,0.0,0.0,0.0,0.0,0.0,0.0,0.0,0.0,0.0,0.0,0.0,0.0,0.0,0.0,0.0,0.0,0.0,0.0,0.0,0.0,0.0,0.0,0.0,0.0,0.0,0.0,0.0,0.0,0.0,0.0,0.0,0.0,0.0,0.0,0.0,0.0,0.0,0.0,0.0,0.0,0.0,0.0,0.0,0.0,0.0,0.0,0.0,0.0,0.0,0.0,0.0,0.0,0.0,0.0,0.0,0.0,0.0,0.0,0.0,0.0,0.0,0.0,0.0,0.0,0.0,0.0,0.0,0.0,0.0,0.0,0.0,0.0,0.0,0.0,0.0,0.0,0.0,0.0,0.0,0.0,0.0,0.0,0.0,0.0,0.0,0.0,0.0,0.0,0.0,0.0,0.0,0.0,0.0,0.0,0.0,0.0,0.0,0.0,0.0,0.0,0.0,0.0,0.0,0.0,0.0,0.0,0.0,0.0,0.0,-5.3727,0.0,0.0,0.0,0.0,0.0,0.0,0.0,0.0,0.0,0.0,0.0,0.0,0.0,0.0,0.0,0.0,0.0,0.0,0.0,0.0,0.0,0.0,0.0,0.0,0.0,0.0,0.0,0.0,0.0,0.0,0.0,0.0,0.0,0.0,0.0,0.0,0.0,0.0,0.0,0.0,0.0,0.0,0.0,0.0,0.0,0.0,0.0,0.0,0.0,0.0,0.0,0.0,0.0,0.0,0.0,0.0,0.0,0.0,0.0,0.0,0.0,0.0,0.0,0.0,0.0,0.0,0.0,0.0,0.0,0.0,0.0,0.0,0.0,0.0,0.0,0.0,0.0,0.0,0.0,0.0,0.0,0.0,0.0,0.0,0.0,0.0,0.0,0.0,0.0,0.0,0.0,0.0,0.0,0.0,0.0,0.0,0.0,0.0,0.0,0.0,0.0,0.0,0.0,0.0,0.0,0.0,0.0,0.0,0.0,0.0,-5.749,-5.8281,-5.7092,-5.5659,-5.4,0.0,0.0,0.0,0.0,0.0,0.0,0.0,0.0,0.0,0.0,0.0,0.0,0.0,0.0,0.0,0.0,0.0,0.0,0.0,0.0,0.0,0.0,0.0,0.0,0.0,0.0,0.0,0.0,0.0,0.0,0.0,0.0,0.0,0.0,0.0,0.0,0.0,0.0,0.0,0.0,0.0,0.0,0.0,0.0,0.0,0.0,0.0,0.0,0.0,0.0,0.0,0.0,0.0,0.0,0.0,0.0,0.0,0.0,0.0,0.0,0.0,0.0,0.0,0.0,0.0,0.0,0.0,0.0,0.0,0.0,0.0,0.0,0.0,0.0,0.0,0.0,0.0,0.0,0.0,0.0,0.0,0.0,0.0,0.0,0.0,0.0,0.0,0.0,0.0,0.0,0.0,0.0,0.0,0.0,0.0,0.0,0.0,0.0,0.0,0.0,0.0,0.0,0.0,0.0,0.0,0.0,0.0,0.0,0.0,0.0,0.0,0.0,-5.7567,-5.5656,-5.3599,0.0,0.0,0.0,0.0,0.0,0.0,0.0,0.0,0.0,0.0,0.0,0.0,0.0,0.0,0.0,0.0,0.0,0.0,0.0,0.0,0.0,0.0,0.0,0.0,0.0,0.0,0.0,0.0,0.0,0.0,0.0,0.0,0.0,0.0,0.0,0.0,0.0,0.0,0.0,0.0,0.0,0.0,0.0,0.0,0.0,0.0,0.0,0.0,0.0,0.0,0.0,0.0,0.0,0.0,0.0,0.0,0.0,0.0,0.0,0.0,0.0,0.0,0.0,0.0,0.0,0.0,0.0,0.0,0.0,0.0,0.0,0.0,0.0,0.0,0.0,0.0,0.0,0.0,0.0,0.0,0.0,0.0,0.0,0.0,0.0,0.0,0.0,0.0,0.0,0.0,0.0,0.0,0.0,0.0,0.0,0.0,0.0,0.0,0.0,0.0,0.0,0.0,0.0,0.0,0.0,0.0,0.0,0.0,0.0,0.0,-5.8219,-5.9743,-5.7475,0.0,-5.164,0.0,0.0,0.0,0.0,0.0,0.0,0.0,0.0,0.0,0.0,0.0,0.0,0.0,0.0,0.0,0.0,0.0,0.0,0.0,0.0,0.0,0.0,0.0,0.0,0.0,0.0,0.0,0.0,0.0,0.0,0.0,0.0,0.0,0.0,0.0,0.0,0.0,0.0,0.0,0.0,0.0,0.0,0.0,0.0,0.0,0.0,0.0,0.0,0.0,0.0,0.0,0.0,0.0,0.0,0.0,0.0,0.0,0.0,0.0,0.0,0.0,0.0,0.0,0.0,0.0,0.0,0.0,0.0,0.0,0.0,0.0,0.0,0.0,0.0,0.0,0.0,0.0,0.0,0.0,0.0,0.0,0.0,0.0,0.0,0.0,0.0,0.0,0.0,0.0,0.0,0.0,0.0,0.0,0.0,0.0,0.0,0.0,0.0,0.0,0.0,0.0,0.0,0.0,0.0,0.0,0.0,0.0,0.0,0.0,0.0,-5.9264,-5.9485,-5.6187,-5.3326,0.0,0.0,0.0,0.0,0.0,0.0,0.0,0.0,0.0,0.0,0.0,0.0,0.0,0.0,0.0,0.0,0.0,0.0,0.0,0.0,0.0,0.0,0.0,0.0,0.0,0.0,0.0,0.0,0.0,0.0,0.0,0.0,0.0,0.0,0.0,0.0,0.0,0.0,0.0,0.0,0.0,0.0,0.0,0.0,0.0,0.0,0.0,0.0,0.0,0.0,0.0,0.0,0.0,0.0,0.0,0.0,0.0,0.0,0.0,0.0,0.0,0.0,0.0,0.0,0.0,0.0,0.0,0.0,0.0,0.0,0.0,0.0,0.0,0.0,0.0,0.0,0.0,0.0,0.0,0.0,0.0,0.0,0.0,0.0,0.0,0.0,0.0,0.0,0.0,0.0,0.0,0.0,0.0,0.0,0.0,0.0,0.0,0.0,0.0,0.0,0.0,0.0,0.0,0.0,0.0,0.0,0.0,0.0,0.0,0.0,-5.8951,-5.9024,-5.8107,-5.4965,-5.2433,-5.0839,0.0,0.0,0.0,0.0,0.0,0.0,0.0,0.0,0.0,0.0,0.0,0.0,0.0,0.0,0.0,0.0,0.0,0.0,0.0,0.0,0.0,0.0,0.0,0.0,0.0,0.0,0.0,0.0,0.0,0.0,0.0,0.0,0.0,0.0,0.0,0.0,0.0,0.0,0.0,0.0,0.0,0.0,0.0,0.0,0.0,0.0,0.0,0.0,0.0,0.0,0.0,0.0,0.0,0.0,0.0,0.0,0.0,0.0,0.0,0.0,0.0,0.0,0.0,0.0,0.0,0.0,0.0,0.0,0.0,0.0,0.0,0.0,0.0,0.0,0.0,0.0,0.0,0.0,0.0,0.0,0.0,0.0,0.0,0.0,0.0,0.0,0.0,0.0,0.0,0.0,0.0,0.0,0.0,0.0,0.0,0.0,0.0,0.0,0.0,0.0,0.0,0.0,0.0,0.0,0.0,0.0,0.0,0.0,-5.785,-5.7373,-5.6602,-5.5831,-5.4106,-5.2433,0.0,0.0,0.0,0.0,0.0,0.0,0.0,0.0,0.0,0.0,0.0,0.0,0.0,0.0,0.0,0.0,0.0,0.0,0.0,0.0,0.0,0.0,0.0,0.0,0.0,0.0,0.0,0.0,0.0,0.0,0.0,0.0,0.0,0.0,0.0,0.0,0.0,0.0,0.0,0.0,0.0,0.0,0.0,0.0,0.0,0.0,0.0,0.0,0.0,0.0,0.0,0.0,0.0,0.0,0.0,0.0,0.0,0.0,0.0,0.0,0.0,0.0,0.0,0.0,0.0,0.0,0.0,0.0,0.0,0.0,0.0,0.0,0.0,0.0,0.0,0.0,0.0,0.0,0.0,0.0,0.0,0.0,0.0,0.0,0.0,0.0,0.0,0.0,0.0,0.0,0.0,0.0,0.0,0.0,0.0,0.0,0.0,0.0,0.0,0.0,0.0,0.0,0.0,0.0,0.0,0.0,0.0,0.0,0.0,-5.6418,-5.7189,-5.6932,-5.5611,-5.4069,-5.2454,0.0,0.0,0.0,0.0,0.0,0.0,0.0,0.0,0.0,0.0,0.0,0.0,0.0,0.0,0.0,0.0,0.0,0.0,0.0,0.0,0.0,0.0,0.0,0.0,0.0,0.0,0.0,0.0,0.0,0.0,0.0,0.0,0.0,0.0,0.0,0.0,0.0,0.0,0.0,0.0,0.0,0.0,0.0,0.0,0.0,0.0,0.0,0.0,0.0,0.0,0.0,0.0,0.0,0.0,0.0,0.0,0.0,0.0,0.0,0.0,0.0,0.0,0.0,0.0,0.0,0.0,0.0,0.0,0.0,0.0,0.0,0.0,0.0,0.0,0.0,0.0,0.0,0.0,0.0,0.0,0.0,0.0,0.0,0.0,0.0,0.0,0.0,0.0,0.0,0.0,0.0,0.0,0.0,0.0,0.0,0.0,0.0,0.0,0.0,0.0,0.0,0.0,0.0,0.0,0.0,0.0,0.0,0.0,0.0,-5.5669,0.0,-5.7886,-5.6051,-5.4436,-5.2821,0.0,0.0,0.0,0.0,0.0,0.0,0.0,0.0,0.0,0.0,0.0,0.0,0.0,0.0,0.0,0.0,0.0,0.0,0.0,0.0,0.0,0.0,0.0,0.0,0.0,0.0,0.0,0.0,0.0,0.0,0.0,0.0,0.0,0.0,0.0,0.0,0.0,0.0,0.0,0.0,0.0,0.0,0.0,0.0,0.0,0.0,0.0,0.0,0.0,0.0,0.0,0.0,0.0,0.0,0.0,0.0,0.0,0.0,0.0,0.0,0.0,0.0,0.0,0.0,0.0,0.0,0.0,0.0,0.0,0.0,0.0,0.0,0.0,0.0,0.0,0.0,0.0,0.0,0.0,0.0,0.0,0.0,0.0,0.0,0.0,0.0,0.0,0.0,0.0,0.0,0.0,0.0,0.0,0.0,0.0,0.0,0.0,0.0,0.0,0.0,0.0,0.0,0.0,0.0,0.0,0.0,0.0,0.0,-5.4069,-5.5647,-5.8694,-5.9098,-5.6836,-5.5244,-5.3628,0.0,0.0,0.0,0.0,0.0,0.0,0.0,0.0,0.0,0.0,0.0,0.0,0.0,0.0,0.0,0.0,0.0,0.0,0.0,0.0,0.0,0.0,0.0,0.0,0.0,0.0,0.0,0.0,0.0,0.0,0.0,0.0,0.0,0.0,0.0,0.0,0.0,0.0,0.0,0.0,0.0,0.0,0.0,0.0,0.0,0.0,0.0,0.0,0.0,0.0,0.0,0.0,0.0,0.0,0.0,0.0,0.0,0.0,0.0,0.0,0.0,0.0,0.0,0.0,0.0,0.0,0.0,0.0,0.0,0.0,0.0,0.0,0.0,0.0,0.0,0.0,0.0,0.0,0.0,0.0,0.0,0.0,0.0,0.0,0.0,0.0,0.0,0.0,0.0,0.0,0.0,0.0,0.0,0.0,0.0,0.0,0.0,0.0,0.0,0.0,0.0,0.0,0.0,0.0,0.0,0.0,0.0,0.0,0.0,-5.6455,-5.7923,-5.8107,-5.6799,-5.5757,-5.4237,0.0,0.0,0.0,0.0,0.0,0.0,0.0,0.0,0.0,0.0,0.0,0.0,0.0,0.0,0.0,0.0,0.0,0.0,0.0,0.0,0.0,0.0,0.0,0.0,0.0,0.0,0.0,0.0,0.0,0.0,0.0,0.0,0.0,0.0,0.0,0.0,0.0,0.0,0.0,0.0,0.0,0.0,0.0,0.0,0.0,0.0,0.0,0.0,0.0,0.0,0.0,0.0,0.0,0.0,0.0,0.0,0.0,0.0,0.0,0.0,0.0,0.0,0.0,0.0,0.0,0.0,0.0,0.0,0.0,0.0,0.0,0.0,0.0,0.0,0.0,0.0,0.0,0.0,0.0,0.0,0.0,0.0,0.0,0.0,0.0,0.0,0.0,0.0,0.0,0.0,0.0,0.0,0.0,0.0,0.0,0.0,0.0,0.0,0.0,0.0,0.0,0.0,0.0,0.0,0.0,0.0,0.0,0.0,0.0,-5.9334,-6.0237,-6.0052,-5.8621,-5.7519,-5.5684,-5.2968,0.0,0.0,0.0,0.0,0.0,0.0,0.0,0.0,0.0,0.0,0.0,0.0,0.0,0.0,0.0,0.0,0.0,0.0,0.0,0.0,0.0,0.0,0.0,0.0,0.0,0.0,0.0,0.0,0.0,0.0,0.0,0.0,0.0,0.0,0.0,0.0,0.0,0.0,0.0,0.0,0.0,0.0,0.0,0.0,0.0,0.0,0.0,0.0,0.0,0.0,0.0,0.0,0.0,0.0,0.0,0.0,0.0,0.0,0.0,0.0,0.0,0.0,0.0,0.0,0.0,0.0,0.0,0.0,0.0,0.0,0.0,0.0,0.0,0.0,0.0,0.0,0.0,0.0,0.0,0.0,0.0,0.0,0.0,0.0,0.0,0.0,0.0,0.0,0.0,0.0,0.0,0.0,0.0,0.0,0.0,0.0,0.0,0.0,0.0,0.0,0.0,0.0,0.0,0.0,0.0,0.0,0.0,0.0,-6.361,-6.4935,-6.4358,-6.1826,-6.0212,-5.7863,0.0,0.0,0.0,0.0,0.0,0.0,0.0,0.0,0.0,0.0,0.0,0.0,0.0,0.0,0.0,0.0,0.0,0.0,0.0,0.0,0.0,0.0,0.0,0.0,0.0,0.0,0.0,0.0,0.0,0.0,0.0,0.0,0.0,0.0,0.0,0.0,0.0,0.0,0.0,0.0,0.0,0.0,0.0,0.0,0.0,0.0,0.0,0.0,0.0,0.0,0.0,0.0,0.0,0.0,0.0,0.0,0.0,0.0,0.0,0.0,0.0,0.0,0.0,0.0,0.0,0.0,0.0,0.0,0.0,0.0,0.0,0.0,0.0,0.0,0.0,0.0,0.0,0.0,0.0,0.0,0.0,0.0,0.0,0.0,0.0,0.0,0.0,0.0,0.0,0.0,0.0,0.0,0.0,0.0,0.0,0.0,0.0,0.0,0.0,0.0,0.0,0.0,0.0,0.0,0.0,0.0,0.0,0.0,0.0,-6.4475,-6.7668,-6.7623,-6.4081,-6.2504,-5.992,0.0,0.0,0.0,0.0,0.0,0.0,0.0,0.0,0.0,0.0,0.0,0.0,0.0,0.0,0.0,0.0,0.0,0.0,0.0,0.0,0.0,0.0,0.0,0.0,0.0,0.0,0.0,0.0,0.0,0.0,0.0,0.0,0.0,0.0,0.0,0.0,0.0,0.0,0.0,0.0,0.0,0.0,0.0,0.0,0.0,0.0,0.0,0.0,0.0,0.0,0.0,0.0,0.0,0.0,0.0,0.0,0.0,0.0,0.0,0.0,0.0,0.0,0.0,0.0,0.0,0.0,0.0,0.0,0.0,0.0,0.0,0.0,0.0,0.0,0.0,0.0,0.0,0.0,0.0,0.0,0.0,0.0,0.0,0.0,0.0,0.0,0.0,0.0,0.0,0.0,0.0,0.0,0.0,0.0,0.0,0.0,0.0,0.0,0.0,0.0,0.0,0.0,0.0,0.0,0.0,0.0,0.0,0.0,-6.323,-6.563,-6.9557,-6.9969,-6.6519,-6.4521,-6.1532,0.0,0.0,0.0,0.0,0.0,0.0,0.0,0.0,0.0,0.0,0.0,0.0,0.0,0.0,0.0,0.0,0.0,0.0,0.0,0.0,0.0,0.0,0.0,0.0,0.0,0.0,0.0,0.0,0.0,0.0,0.0,0.0,0.0,0.0,0.0,0.0,0.0,0.0,0.0,0.0,0.0,0.0,0.0,0.0,0.0,0.0,0.0,0.0,0.0,0.0,0.0,0.0,0.0,0.0,0.0,0.0,0.0,0.0,0.0,0.0,0.0,0.0,0.0,0.0,0.0,0.0,0.0,0.0,0.0,0.0,0.0,0.0,0.0,0.0,0.0,0.0,0.0,0.0,0.0,0.0,0.0,0.0,0.0,0.0,0.0,0.0,0.0,0.0,0.0,0.0,0.0,0.0,0.0,0.0,0.0,0.0,0.0,0.0,0.0,0.0,0.0,0.0,0.0,0.0,0.0,0.0,0.0,0.0,-6.4383,-6.6806,-7.05,-7.124,-6.865,-6.6089,-6.2757,0.0,0.0,0.0,0.0,0.0,0.0,0.0,0.0,0.0,0.0,0.0,0.0,0.0,0.0,0.0,0.0,0.0,0.0,0.0,0.0,0.0,0.0,0.0,0.0,0.0,0.0,0.0,0.0,0.0,0.0,0.0,0.0,0.0,0.0,0.0,0.0,0.0,0.0,0.0,0.0,0.0,0.0,0.0,0.0,0.0,0.0,0.0,0.0,0.0,0.0,0.0,0.0,0.0,0.0,0.0,0.0,0.0,0.0,0.0,0.0,0.0,0.0,0.0,0.0,0.0,0.0,0.0,0.0,0.0,0.0,0.0,0.0,0.0,0.0,0.0,0.0,0.0,0.0,0.0,0.0,0.0,0.0,0.0,0.0,0.0,0.0,0.0,0.0,0.0,0.0,0.0,0.0,0.0,0.0,0.0,0.0,0.0,0.0,0.0,0.0,0.0,0.0,0.0,0.0,0.0,0.0,0.0,0.0,-6.4491,-6.6849,-6.957,-6.9975,-6.7858,-6.6388,-6.3765,0.0,0.0,0.0,0.0,0.0,0.0,0.0,0.0,0.0,0.0,0.0,0.0,0.0,0.0,0.0,0.0,0.0,0.0,0.0,0.0,0.0,0.0,0.0,0.0,0.0,0.0,0.0,0.0,0.0,0.0,0.0,0.0,0.0,0.0,0.0,0.0,0.0,0.0,0.0,0.0,0.0,0.0,0.0,0.0,0.0,0.0,0.0,0.0,-5.2589,0.0,0.0,0.0,0.0,0.0,0.0,0.0,0.0,0.0,0.0,0.0,0.0,0.0,0.0,0.0,0.0,0.0,0.0,0.0,0.0,0.0,0.0,0.0,0.0,0.0,0.0,0.0,0.0,0.0,0.0,0.0,0.0,0.0,0.0,0.0,0.0,0.0,0.0,0.0,0.0,0.0,0.0,0.0,0.0,0.0,0.0,0.0,0.0,0.0,0.0,0.0,0.0,0.0,0.0,0.0,0.0,0.0,0.0,0.0,-6.4716,-6.6343,-6.8645,-6.8965,-6.7094,-6.5933,-6.3668,0.0,0.0,0.0,0.0,0.0,0.0,0.0,0.0,0.0,0.0,0.0,0.0,0.0,0.0,0.0,0.0,0.0,0.0,0.0,0.0,0.0,0.0,0.0,0.0,0.0,0.0,0.0,0.0,0.0,0.0,0.0,0.0,0.0,0.0,0.0,0.0,0.0,0.0,0.0,0.0,0.0,0.0,0.0,0.0,0.0,0.0,0.0,0.0,0.0,0.0,0.0,0.0,0.0,0.0,0.0,0.0,0.0,0.0,0.0,0.0,0.0,0.0,0.0,0.0,0.0,0.0,0.0,0.0,0.0,0.0,0.0,0.0,0.0,0.0,0.0,0.0,0.0,0.0,0.0,0.0,0.0,0.0,0.0,0.0,0.0,0.0,0.0,0.0,0.0,0.0,0.0,0.0,0.0,0.0,0.0,0.0,0.0,0.0,0.0,0.0,0.0,0.0,0.0,0.0,0.0,0.0,0.0,-6.2019,-6.4813,-6.5723,-6.7859,-6.8166,-6.6331,-6.506,-6.2921,-5.9779,0.0,0.0,0.0,0.0,0.0,0.0,0.0,0.0,0.0,0.0,0.0,0.0,0.0,0.0,0.0,0.0,0.0,0.0,0.0,0.0,0.0,0.0,0.0,0.0,0.0,0.0,0.0,0.0,0.0,0.0,0.0,0.0,0.0,0.0,0.0,0.0,0.0,0.0,-4.9544,-5.1661,0.0,0.0,0.0,0.0,0.0,0.0,0.0,0.0,-5.3604,0.0,0.0,0.0,0.0,0.0,0.0,0.0,0.0,0.0,0.0,0.0,0.0,0.0,0.0,0.0,0.0,0.0,0.0,0.0,0.0,0.0,0.0,0.0,0.0,0.0,0.0,0.0,0.0,0.0,0.0,0.0,0.0,0.0,0.0,0.0,0.0,0.0,0.0,0.0,0.0,0.0,0.0,0.0,0.0,0.0,0.0,0.0,0.0,0.0,0.0,0.0,0.0,0.0,0.0,0.0,0.0,-5.8497,-6.1981,-6.4406,-6.5755,-6.7415,-6.7437,-6.5688,-6.4122,-6.1544,-5.8016,0.0,0.0,0.0,0.0,0.0,0.0,0.0,0.0,0.0,0.0,0.0,0.0,0.0,0.0,0.0,0.0,0.0,0.0,0.0,0.0,0.0,0.0,0.0,0.0,0.0,0.0,0.0,0.0,0.0,0.0,0.0,0.0,0.0,0.0,0.0,0.0,0.0,0.0,0.0,-5.217,-5.3398,0.0,0.0,0.0,0.0,0.0,0.0,0.0,0.0,-5.3878,0.0,0.0,0.0,0.0,0.0,0.0,0.0,0.0,0.0,0.0,0.0,0.0,0.0,0.0,0.0,0.0,0.0,0.0,0.0,0.0,0.0,0.0,0.0,0.0,0.0,0.0,0.0,0.0,0.0,0.0,0.0,0.0,0.0,0.0,0.0,0.0,0.0,0.0,0.0,0.0,0.0,0.0,0.0,0.0,0.0,0.0,0.0,0.0,0.0,0.0,0.0,0.0,0.0,0.0,0.0,-5.828,-6.1763,-6.4054,-6.5147,-6.6649,-6.6472,-6.4477,-6.2527,-5.9735,0.0,0.0,0.0,0.0,0.0,0.0,0.0,0.0,0.0,0.0,0.0,0.0,0.0,0.0,0.0,0.0,0.0,0.0,0.0,0.0,0.0,0.0,0.0,0.0,0.0,0.0,0.0,0.0,0.0,0.0,0.0,0.0,0.0,0.0,0.0,0.0,0.0,0.0,0.0,0.0,-5.2354,-5.3674,-5.3456,0.0,0.0,0.0,0.0,0.0,0.0,-5.3706,-5.3008,0.0,0.0,0.0,0.0,0.0,0.0,0.0,0.0,0.0,0.0,0.0,0.0,0.0,0.0,0.0,0.0,0.0,0.0,0.0,0.0,0.0,0.0,0.0,0.0,0.0,0.0,0.0,0.0,0.0,0.0,0.0,0.0,0.0,0.0,0.0,0.0,0.0,0.0,0.0,0.0,0.0,0.0,0.0,0.0,0.0,0.0,0.0,0.0,0.0,0.0,0.0,0.0,0.0,0.0,0.0,-5.7848,-6.1434,-6.37,-6.4613,-6.6034,-6.5764,-6.3565,-6.1298,-5.8355,0.0,0.0,0.0,0.0,0.0,0.0,0.0,0.0,0.0,0.0,0.0,0.0,0.0,0.0,0.0,0.0,0.0,0.0,0.0,0.0,0.0,0.0,0.0,0.0,0.0,0.0,0.0,0.0,0.0,0.0,0.0,0.0,0.0,0.0,0.0,0.0,0.0,0.0,0.0,0.0,0.0,-5.4024,-5.35,-5.3736,0.0,0.0,0.0,0.0,-5.4323,-5.3667,0.0,0.0,0.0,0.0,0.0,0.0,0.0,0.0,0.0,0.0,0.0,0.0,0.0,0.0,0.0,0.0,0.0,0.0,0.0,0.0,0.0,0.0,0.0,0.0,0.0,0.0,0.0,0.0,0.0,0.0,0.0,0.0,0.0,0.0,0.0,0.0,0.0,0.0,0.0,0.0,0.0,0.0,0.0,0.0,0.0,0.0,0.0,0.0,0.0,0.0,0.0,0.0,0.0,0.0,0.0,0.0,-5.7814,-6.0926,-6.3193,-6.458,-6.6068,-6.5722,-6.3565,-6.1298,-5.8355,0.0,0.0,0.0,0.0,0.0,0.0,0.0,0.0,0.0,0.0,0.0,0.0,0.0,0.0,0.0,0.0,0.0,0.0,0.0,0.0,0.0,0.0,0.0,0.0,0.0,0.0,0.0,0.0,0.0,0.0,0.0,0.0,0.0,0.0,0.0,0.0,0.0,0.0,0.0,0.0,0.0,-5.4325,-5.4398,-5.4898,-5.5113,0.0,0.0,-5.4974,-5.3166,-5.4416,0.0,0.0,0.0,0.0,0.0,0.0,0.0,0.0,0.0,0.0,0.0,0.0,0.0,0.0,0.0,0.0,0.0,0.0,0.0,0.0,0.0,0.0,0.0,0.0,0.0,0.0,0.0,0.0,0.0,0.0,0.0,0.0,0.0,0.0,0.0,0.0,0.0,0.0,0.0,0.0,0.0,0.0,0.0,0.0,0.0,0.0,0.0,0.0,0.0,0.0,0.0,0.0,0.0,0.0,0.0,-5.3111,-5.745,-6.0073,-6.2091,-6.3538,-6.4648,-6.4345,-6.2529,-5.9905,-5.7181,0.0,0.0,0.0,0.0,0.0,0.0,0.0,0.0,0.0,0.0,0.0,0.0,0.0,0.0,0.0,0.0,0.0,0.0,0.0,0.0,0.0,0.0,0.0,0.0,0.0,0.0,0.0,0.0,0.0,0.0,0.0,0.0,0.0,0.0,0.0,0.0,0.0,0.0,0.0,0.0,0.0,0.0,-5.4359,-5.5077,0.0,0.0,0.0,-5.4207,-5.4962,0.0,0.0,0.0,0.0,0.0,0.0,0.0,0.0,0.0,0.0,0.0,0.0,0.0,0.0,0.0,0.0,0.0,0.0,0.0,0.0,0.0,0.0,0.0,0.0,0.0,0.0,0.0,0.0,0.0,0.0,0.0,0.0,0.0,0.0,0.0,0.0,0.0,0.0,0.0,0.0,0.0,0.0,0.0,0.0,0.0,0.0,0.0,0.0,0.0,0.0,0.0,0.0,0.0,0.0,0.0,0.0,0.0,-5.6729,-5.9091,-6.0924,-6.2274,-6.3283,-6.2983,-6.1313,-5.8942,0.0,0.0,0.0,0.0,0.0,0.0,0.0,0.0,0.0,0.0,0.0,0.0,0.0,0.0,0.0,0.0,0.0,0.0,0.0,0.0,0.0,0.0,0.0,0.0,0.0,0.0,0.0,-3.9434,0.0,0.0,0.0,0.0,0.0,0.0,0.0,0.0,0.0,0.0,0.0,0.0,0.0,0.0,-5.382,-5.451,-5.5434,-5.622,0.0,0.0,-5.4261,-5.6192,-5.504,-5.3619,0.0,0.0,0.0,0.0,0.0,0.0,0.0,0.0,0.0,0.0,0.0,0.0,0.0,0.0,0.0,0.0,0.0,0.0,0.0,0.0,0.0,0.0,0.0,0.0,0.0,0.0,0.0,0.0,0.0,0.0,0.0,0.0,0.0,0.0,0.0,0.0,0.0,0.0,0.0,0.0,0.0,0.0,0.0,0.0,0.0,0.0,0.0,0.0,0.0,0.0,0.0,0.0,0.0,0.0,-5.1905,-5.5358,-5.8026,-5.9843,-6.0952,-6.2477,-6.2297,-6.0174,-5.9245,-5.679,0.0,0.0,0.0,0.0,0.0,0.0,0.0,0.0,0.0,0.0,0.0,0.0,0.0,0.0,0.0,0.0,0.0,0.0,0.0,0.0,0.0,0.0,0.0,0.0,0.0,0.0,0.0,0.0,0.0,0.0,0.0,0.0,0.0,0.0,0.0,0.0,0.0,0.0,0.0,0.0,0.0,-5.375,-5.5293,-5.6508,-5.7003,0.0,-5.6734,-5.6633,-5.5417,-5.5223,-5.4525,-5.2639,0.0,0.0,0.0,0.0,0.0,0.0,0.0,0.0,0.0,0.0,0.0,0.0,0.0,0.0,0.0,0.0,0.0,0.0,0.0,0.0,0.0,0.0,0.0,0.0,0.0,0.0,0.0,0.0,-4.5154,0.0,0.0,0.0,0.0,0.0,0.0,0.0,0.0,0.0,0.0,0.0,0.0,0.0,0.0,0.0,0.0,0.0,0.0,0.0,0.0,0.0,0.0,0.0,0.0,-5.0286,-5.3596,-5.5661,-5.7281,-5.8367,-5.9272,-5.9343,-5.8558,-5.7764,-5.5966,0.0,0.0,0.0,0.0,0.0,0.0,0.0,0.0,0.0,0.0,0.0,0.0,0.0,0.0,0.0,0.0,0.0,0.0,0.0,0.0,0.0,0.0,0.0,0.0,0.0,0.0,0.0,0.0,-4.0135,-4.0068,-4.0379,0.0,0.0,0.0,0.0,0.0,0.0,0.0,0.0,0.0,0.0,-5.3351,-5.5561,-5.6553,0.0,0.0,-5.7348,-5.6787,-5.6179,-5.4985,-5.3592,-5.1962,-5.0191,0.0,0.0,0.0,0.0,0.0,0.0,0.0,0.0,0.0,0.0,0.0,0.0,0.0,0.0,0.0,0.0,0.0,0.0,0.0,0.0,0.0,0.0,0.0,0.0,0.0,0.0,0.0,0.0,0.0,0.0,0.0,0.0,0.0,0.0,0.0,0.0,0.0,0.0,0.0,0.0,0.0,0.0,0.0,0.0,0.0,0.0,0.0,0.0,0.0,0.0,0.0,0.0,-4.9068,-5.1891,-5.3753,-5.5172,-5.6129,-5.6787,-5.7045,-5.6852,-5.6294,-5.4943,0.0,0.0,0.0,0.0,0.0,0.0,0.0,0.0,0.0,0.0,0.0,0.0,0.0,0.0,0.0,0.0,0.0,0.0,0.0,0.0,0.0,0.0,0.0,0.0,0.0,0.0,0.0,0.0,-3.9608,-3.947,-4.0099,0.0,0.0,0.0,0.0,0.0,0.0,0.0,0.0,0.0,0.0,-5.263,-5.4735,-5.6079,-5.7185,-5.7858,-5.7503,-5.6954,-5.6371,-5.4655,-5.3003,-5.1812,0.0,0.0,0.0,0.0,0.0,0.0,0.0,0.0,0.0,0.0,0.0,0.0,0.0,0.0,0.0,0.0,0.0,0.0,0.0,0.0,0.0,0.0,0.0,0.0,0.0,0.0,0.0,-4.4257,0.0,0.0,-4.3359,0.0,0.0,0.0,0.0,0.0,0.0,0.0,0.0,0.0,0.0,0.0,0.0,0.0,0.0,0.0,0.0,0.0,0.0,0.0,0.0,0.0,0.0,-4.8483,-5.0361,-5.2533,-5.3971,-5.442,-5.5569,-5.5866,-5.5189,-5.5138,-5.3798,-5.0997,0.0,0.0,0.0,0.0,0.0,0.0,0.0,0.0,0.0,0.0,0.0,0.0,0.0,0.0,0.0,0.0,0.0,0.0,0.0,0.0,0.0,0.0,0.0,0.0,0.0,0.0,-3.9462,-3.8239,-3.7639,0.0,0.0,0.0,0.0,0.0,0.0,0.0,0.0,0.0,-4.6034,-4.9056,-5.1438,-5.2339,-5.5306,-5.695,-5.5921,-5.7111,-5.7478,-5.5611,-5.4212,-5.3169,0.0,0.0,0.0,0.0,0.0,0.0,0.0,0.0,0.0,0.0,0.0,0.0,0.0,0.0,0.0,0.0,0.0,0.0,0.0,0.0,0.0,0.0,0.0,0.0,0.0,0.0,0.0,-4.6471,-4.5622,0.0,0.0,0.0,0.0,0.0,0.0,0.0,0.0,0.0,0.0,0.0,-4.852,-4.9208,0.0,0.0,0.0,0.0,0.0,0.0,0.0,0.0,0.0,0.0,0.0,0.0,-4.6705,-4.9304,-5.0697,-5.182,-5.2749,-5.3461,-5.373,-5.3512,-5.3437,-5.1902,-4.8573,0.0,0.0,0.0,0.0,0.0,0.0,0.0,0.0,0.0,0.0,0.0,0.0,0.0,0.0,0.0,0.0,0.0,0.0,0.0,0.0,0.0,0.0,0.0,0.0,0.0,-3.9784,0.0,0.0,0.0,0.0,0.0,0.0,0.0,0.0,0.0,0.0,-4.287,-4.3775,-4.58,-4.7382,-4.8903,-5.0434,-5.265,-5.4084,0.0,0.0,0.0,0.0,0.0,0.0,0.0,0.0,0.0,0.0,0.0,0.0,0.0,0.0,-5.1114,-5.0023,-5.0506,-5.1085,-5.1104,0.0,0.0,0.0,0.0,0.0,0.0,0.0,0.0,0.0,0.0,0.0,0.0,0.0,0.0,-4.7524,-4.6721,-4.6007,0.0,0.0,0.0,0.0,0.0,0.0,0.0,0.0,-4.9132,-5.0419,-5.1246,-5.1932,-5.2077,-5.1601,-5.1185,-4.9264,0.0,0.0,0.0,0.0,0.0,0.0,0.0,0.0,-4.592,-4.8036,-4.9449,-5.0635,-5.144,-5.2063,-5.2366,-5.2442,-5.1982,-5.0363,-4.7607,-4.5449,-4.3081,0.0,0.0,0.0,0.0,0.0,0.0,0.0,0.0,0.0,0.0,0.0,0.0,0.0,0.0,0.0,0.0,0.0,0.0,0.0,0.0,0.0,0.0,0.0,-3.936,0.0,0.0,0.0,0.0,0.0,0.0,0.0,0.0,0.0,-4.2694,-4.2698,-4.3205,-4.498,-4.6079,-4.7277,-4.8741,0.0,0.0,0.0,0.0,0.0,0.0,0.0,-5.2536,-5.2148,-5.0469,-4.9552,-5.0555,-5.1327,-5.1798,-5.1832,0.0,0.0,-5.2167,-5.2539,-5.3075,-5.2891,-5.2437,-5.201,-5.186,-5.175,-5.1615,0.0,0.0,0.0,0.0,-4.9766,0.0,0.0,0.0,-4.8521,-4.7743,0.0,-4.5667,0.0,0.0,0.0,0.0,-4.4667,-4.6312,0.0,0.0,-5.1887,-5.3136,-5.2142,-5.348,-5.3604,-5.2426,-5.2358,-5.1326,-4.9486,-4.7405,-4.5436,0.0,0.0,0.0,0.0,0.0,-4.6059,-4.6695,-4.891,-5.0274,-5.0532,-5.1334,-5.1835,-5.188,-5.0621,-4.9317,-4.794,-4.6607,-4.4737,-4.2234,-4.2584,0.0,0.0,0.0,0.0,0.0,0.0,0.0,0.0,0.0,0.0,0.0,0.0,0.0,0.0,0.0,0.0,0.0,0.0,0.0,0.0,-3.9343,0.0,0.0,0.0,0.0,0.0,0.0,0.0,0.0,0.0,-4.1155,-4.3051,-4.2762,-4.2704,-4.3614,0.0,0.0,0.0,0.0,-5.0997,-5.1304,-5.2592,-5.3195,-5.2286,-5.2661,-5.3136,-5.3402,0.0,0.0,-5.3122,-5.3364,-5.3298,-5.3364,-5.3779,-5.4034,-5.3463,-5.3479,-5.3799,-5.4156,-5.3346,-5.2766,-5.2846,-5.2418,-5.2235,-5.3312,0.0,0.0,0.0,0.0,-5.1778,-5.2446,-5.3082,-5.1903,-5.071,-4.9611,-4.8402,0.0,0.0,0.0,0.0,0.0,0.0,-4.7165,-4.8099,-5.0315,-5.1723,-5.245,-5.2833,-5.2939,-5.2813,-5.2131,-5.1444,-5.0873,-4.9343,-4.7126,-4.4324,0.0,0.0,0.0,0.0,-4.4585,-4.6561,-4.7897,-4.882,-4.9357,-4.9824,-5.005,-5.008,-4.9238,-4.8607,-4.8173,-4.6911,-4.562,-4.4429,-4.3608,0.0,0.0,0.0,0.0,0.0,0.0,0.0,0.0,0.0,0.0,0.0,0.0,0.0,0.0,0.0,0.0,0.0,0.0,0.0,-4.0456,-4.0742,-4.0409,0.0,0.0,0.0,0.0,0.0,0.0,0.0,0.0,0.0,-4.4118,-4.3855,-4.365,0.0,0.0,-4.5933,-4.5639,-4.6961,-4.7849,-4.7388,-4.8836,0.0,-4.946,-5.0288,-5.1092,-5.1406,-5.1603,-5.2021,-5.2885,-5.3062,-5.3062,-5.3062,-5.3546,-5.3808,-5.3259,-5.3606,-5.396,-5.372,-5.2907,-5.2225,-5.2226,-5.2358,-5.2509,-5.5488,-5.3765,-5.3179,-5.3023,-5.3065,-5.3678,-5.4427,-5.5031,-5.3727,-5.2324,-5.0927,-4.9376,-4.72,-4.4682,-4.4411,0.0,0.0,0.0,-4.7137,-4.8058,-4.9765,-5.1148,-5.2258,-5.2487,-5.2651,-5.281,-5.2209,-5.1648,-5.115,-5.0124,-4.829,-4.583,0.0,-4.2765,-4.3071,-4.3307,-4.4369,-4.6167,-4.7348,-4.809,-4.8521,-4.9044,-4.9299,-4.9299,-4.867,-4.8147,-4.7908,-4.7399,-4.6651,-4.5753,-4.506,-4.3786,0.0,0.0,0.0,0.0,0.0,0.0,0.0,0.0,0.0,0.0,0.0,-3.8513,-3.8531,0.0,0.0,0.0,-4.0423,-4.1175,-4.1704,-4.2034,0.0,0.0,0.0,0.0,0.0,0.0,0.0,-4.2036,-4.2344,-4.2944,-4.4371,-4.4647,-4.4647,-4.4385,-4.5227,-4.5721,-4.5343,0.0,-4.6654,-4.627,-4.7391,-4.8246,-4.8273,-4.9457,-5.0491,-5.0705,-5.1331,-5.1837,-5.2075,-5.2197,-5.2274,-5.2416,-5.2785,-5.2991,-5.2682,-5.2823,-5.2978,-5.2778,-5.2148,-5.1631,-5.1507,-5.1665,-5.1829,-5.7018,-5.679,-5.4929,-5.4433,-5.4866,-5.4871,-5.5438,-5.6152,-5.4307,-5.279,-5.1483,-4.9083,-4.6612,-4.4289,-4.3651,0.0,-4.5175,-4.6463,-4.7352,-4.8027,-4.9843,-5.1028,-5.1623,-5.2101,-5.2345,-5.2291,-5.2324,-5.1686,-5.0498,-4.984,-4.8943,-4.7717,-4.6355,-4.4993,-4.3814,-4.4314,-4.4902,-4.555,-4.7022,-4.7778,-4.7822,-4.8641,-4.9134,-4.9119,-4.8551,-4.7939,-4.7431,-4.8013,-4.7774,-4.6655,-4.6797,-4.6086,-4.4175,0.0,0.0,0.0,0.0,0.0,0.0,0.0,0.0,0.0,0.0,0.0,0.0,0.0,0.0,0.0,-4.1309,0.0,-4.3144,-4.3121,0.0,0.0,0.0,-3.9654,-4.0263,-4.0873,-4.1512,-4.2179,0.0,0.0,-4.4153,-4.5111,-4.5605,-4.5024,-4.5576,-4.6011,-4.5953,-4.6446,-4.687,-4.6953,-4.7435,-4.7807,-4.7925,-4.9267,-5.0299,-5.0574,-5.1078,-5.111,-5.0862,-5.0968,-5.1128,-5.1414,-5.1635,-5.1804,-5.2003,-5.1529,-5.1182,-5.139,-5.1054,-5.0714,-5.0558,-5.034,-5.0458,-5.8377,-5.7883,-5.6965,-5.5958,-5.4887,-5.499,-5.5225,-5.5592,-5.4198,-5.2678,-5.0951,-4.943,-4.7391,-4.5175,-4.5017,-4.5122,-4.5492,-4.6705,-4.731,-4.7551,-4.8426,-4.9143,-4.969,-4.9824,-4.9858,-4.9846,-4.984,-4.9473,-4.8736,-4.8566,-4.8034,-4.727,-4.6461,-4.5545,-4.4632,-4.4763,-4.4909,-4.5084,-4.6064,-4.6727,-4.6904,-4.7141,-4.7466,-4.7924,-4.7776,-4.7865,-4.819,-4.8338,-4.8561,-4.8739,-4.7879,-4.6668,-4.5052,-4.3248,0.0,0.0,0.0,0.0,0.0,0.0,0.0,0.0,0.0,-3.8254,-3.7825,0.0,-3.9348,0.0,-4.1009,-4.2096,-4.231,-4.3283,0.0,0.0,-4.2141,-4.1657,-4.2237,-4.244,-4.2789,-4.3485,-4.4211,-4.4879,-4.5372,-4.5256,-4.5256,-4.5605,-4.6621,-4.7143,-4.6708,-4.6708,-4.665,-4.6334,-4.6353,-4.6414,-4.6562,-4.6933,-4.7911,-4.9283,-4.9014,-4.868,-4.9037,-4.9284,-4.964,-5.0161,-5.0437,-5.0628,-5.0634,-5.0455,-4.9973,-4.9174,-4.886,-4.878,-4.8531,-4.8658,-4.9092,-5.8143,-5.7765,-5.6863,-5.5667,-5.4285,-5.462,-5.4722,-5.4529,-5.3517,-5.2269,-5.0703,-4.8963,-4.7302,-4.5873,-4.5822,-4.5822,-4.5898,-4.6828,-4.7213,-4.7239,-4.7778,-4.8325,-4.8655,-4.8868,-4.8825,-4.8654,-4.8674,-4.8332,-4.7751,-4.7498,-4.7142,-4.6759,-4.6427,-4.5755,-4.479,-4.467,-4.4731,-4.485,-4.5647,-4.6371,-4.6948,-4.6727,-4.7051,-4.789,-4.7655,-4.7655,-4.8038,-4.8303,-4.8555,-4.8614,-4.7708,-4.6632,-4.5432,-4.3386,-4.0941,0.0,0.0,0.0,0.0,0.0,0.0,0.0,0.0,0.0,0.0,0.0,-3.9131,-3.9619,-4.0741,-4.1674,-4.2195,-4.3754,-4.4698,-4.4719,-4.4398,-4.4327,-4.4676,-4.4705,-4.485,-4.5227,-4.5547,-4.5895,-4.6243,-4.5721,-4.5459,-4.5837,-4.6475,-4.6824,-4.6534,-4.6604,-4.6621,-4.6011,-4.5895,-4.6011,-4.6243,-4.622,-4.6651,-4.797,-4.7776,-4.7465,-4.7904,-4.821,-4.8656,-4.9188,-4.9661,-5.0009,-5.0203,-4.9817,-4.9212,-4.8638,-4.7967,-4.7588,-4.7502,-4.7737,-4.8193,-5.7017,-5.6964,-5.574,-5.45,-5.3302,-5.3752,-5.3691,-5.3207,-5.257,-5.1637,-5.0383,-4.81,-4.6878,-4.6426,-4.625,-4.62,-4.6225,-4.6566,-4.6792,-4.6892,-4.738,-4.7713,-4.7974,-4.8436,-4.8426,-4.7947,-4.7998,-4.7704,-4.6974,-4.646,-4.6216,-4.6084,-4.6137,-4.557,-4.454,-4.429,-4.4377,-4.4836,-4.5556,-4.6437,-4.7505,-4.6917,-4.7227,-4.8463,-4.7887,-4.7593,-4.7682,-4.8211,-4.8257,-4.7639,-4.7036,-4.6292,-4.5355,-4.3218,-4.0998,0.0,-3.8239,0.0,0.0,0.0,0.0,0.0,0.0,0.0,0.0,-3.8394,-3.888,-3.986,-4.0507,-4.1287,-4.2422,-4.4093,-4.5344,-4.5931,-4.6343,-4.6593,-4.6593,-4.6651,-4.6651,-4.6507,-4.6622,-4.6726,-4.6466,-4.6078,-4.5805,-4.585,-4.5953,-4.5982,-4.5953,-4.6359,-4.6475,-4.5953,-4.5895,-4.6098,-4.6563,-4.6408,-4.6429,-4.7152,-4.7037,-4.6873,-4.7062,-4.7422,-4.7819,-4.8355,-4.8934,-4.9519,-5.0165,-4.9416,-4.8863,-4.8925,-4.8091,-4.7318,-4.7198,-4.7302,-4.7572,-5.6023,-5.5585,-5.4853,-5.3494,-5.1891,-5.1507,-5.157,-5.1944,-5.1534,-5.0721,-4.9441,-4.7792,-4.7018,-4.6903,-4.605,-4.5648,-4.5623,-4.5271,-4.5347,-4.5799,-4.5899,-4.6364,-4.7052,-4.7359,-4.7121,-4.6486,-4.6642,-4.6231,-4.5204,-4.5099,-4.5046,-4.4992,-4.4966,-4.4677,-4.3967,0.0,0.0,0.0,-4.5787,-4.6616,-4.7689,-4.7061,-4.7352,-4.8621,-4.8068,0.0,-4.8428,-4.8574,-4.8388,-4.7777,-4.6807,0.0,0.0,0.0,0.0,0.0,0.0,0.0,0.0,0.0,0.0,0.0,-3.7938,-3.7866,-3.8483,-3.8976,-3.9344,-3.9628,-4.0154,-4.0949,-4.2021,-4.3231,-4.4398,-4.5385,-4.5509,-4.5505,-4.5534,-4.5986,-4.5929,-4.4912,-4.5694,-4.5996,-4.5324,-4.5195,-4.5321,-4.5549,-4.573,-4.5895,-4.5895,-4.6011,-4.6011,-4.5895,-4.5895,-4.6127,-4.6737,-4.6318,-4.6159,-4.67,-4.6483,-4.6194,-4.6225,-4.6403,-4.677,-4.7349,-4.7904,-4.843,-4.9056,-4.9063,-4.8978,-4.9018,-4.8767,-4.8252,-4.7221,-4.7098,-4.737,-5.4904,-5.423,-5.3783,-5.2616,0.0,-5.0525,-5.0461,-5.0614,-5.0423,-4.9863,-4.8964,-4.7945,-4.723,-4.6677,-4.5547,-4.492,-4.4644,-4.4342,-4.4518,-4.507,-4.5648,-4.6018,-4.6162,-4.6569,-4.6137,-4.4928,-4.5073,-4.4668,-4.3874,-4.3848,-4.3848,-4.3848,-4.3848,-4.3566,-4.3003,-4.2704,-4.3198,-4.4498,-4.5336,-4.6296,-4.7347,-4.6567,-4.6681,-4.7852,-4.7357,0.0,0.0,0.0,0.0,0.0,0.0,0.0,0.0,0.0,0.0,-3.8964,-3.9057,-3.8845,-3.7978,-3.8392,-3.8825,-3.9013,-3.8909,-3.8636,-3.8319,-3.8828,-3.921,-3.9235,-3.9722,-4.0488,-4.1537,-4.2695,-4.3704,-4.4505,-4.5034,-4.5271,-4.5044,-4.5265,-4.521,-4.4657,-4.4795,-4.4886,-4.4713,-4.4649,-4.4879,-4.5276,-4.564,-4.5895,-4.5895,-4.5895,-4.5895,-4.5895,-4.5895,-4.5982,-4.6243,-4.6127,-4.5953,-4.6243,-4.6098,-4.5924,-4.5895,-4.6046,-4.6373,-4.6858,-4.7349,-4.792,-4.855,-4.8765,-4.8885,-4.9133,-4.9038,-4.876,-4.799,-4.774,-4.7617,-5.3705,-5.2932,-5.2607,-5.1704,-5.0397,-5.0104,-4.9847,-4.959,-4.959,0.0,0.0,-4.8209,-4.7431,-4.6502,-4.5221,-4.4367,-4.394,-4.374,-4.394,-4.4518,-4.5522,-4.5773,-4.5372,-4.5899,-4.5347,-4.384,-4.379,-4.3514,-4.2986,-4.2986,-4.2986,-4.2986,-4.2986,-4.271,-4.2238,-4.2296,-4.2736,-4.3594,-4.4679,-4.5884,-4.7052,-4.5909,-4.5874,-4.7013,-4.6314,-4.5644,-4.5057,-4.5504,-4.5232,-4.4171,-4.3614,-4.306,-4.2528,-4.1612,-4.0574,-3.9492,-3.9469,-3.9288,-3.8696,-3.9017,-3.931,-3.9598,-3.9677,-3.9295,-3.8366,-3.8743,-3.9019,-3.907,-3.9421,-4.013,-4.113,-4.2113,-4.2944,-4.3514,-4.4506,-4.4867,-4.4486,-4.4432,-4.4377,-4.4242,-4.376,-4.3584,-4.3959,-4.3978,-4.4247,-4.4741,-4.523,-4.5669,-4.5714,-4.5805,-4.5895,-4.5895,-4.5895,-4.5895,-4.5895,-4.5895,-4.5895,-4.5924,-4.5895,-4.5895,-4.594,-4.6046,-4.6225,-4.6403,-4.6989,-4.7521,-4.8168,-4.8347,-4.8686,-4.9426,-4.9251,-4.8992,-4.9087,-4.8638,-4.8155,-5.2548,-5.1605,-5.1538,-5.0817,-4.9719,-4.9719,-4.9654,-4.959,-4.959,-4.954,-4.9414,-4.836,-4.7807,-4.7581,-4.5547,-4.4593,-4.4443,-4.3514,-4.3388,-4.394,-4.4568,-4.4819,-4.4769,-4.5321,-4.497,-4.3865,-4.379,-4.3514,-4.3037,-4.2986,-4.2986,-4.2986,-4.2986,-4.274,-4.2288,-4.2865,-4.3172,-4.3119,-4.4176,-4.5521,-4.713,-4.5986,-4.5711,-4.6338,-4.538,-4.4534,-4.3961,-4.4015,-4.3742,-4.3039,-4.2528,-4.199,-4.1468,-4.0943,-4.0132,-3.9146,-3.9398,-3.9424,-3.8918,-3.9348,-3.965,-3.9674,-3.9698,-3.9622,-3.9471,-3.9521,-3.9572,-3.9572,-3.9647,-4.0079,-4.0844,-4.1362,-4.1957,-4.2632,-4.3153,-4.3387,-4.3256,-4.3256,-4.3071,-4.2624,-4.2468,-4.238,-4.2453,-4.2755,-4.3204,-4.3729,-4.4228,-4.4676,-4.4954,-4.5504,-4.5821,-4.5895,-4.5895,-4.5895,-4.585,-4.5895,-4.5895,-4.5895,-4.5895,-4.5895,-4.5895,-4.594,-4.5985,-4.603,-4.6314,-4.6726,-4.7306,-4.7716,-4.8399,-4.941,-4.9691,-4.9777,-4.9784,-4.9252,-4.8605,-5.2277,-5.1322,-5.1272,-5.0619,-4.959,-4.959,-4.959,-4.959,-4.959,-4.959,-4.9515,-4.8736,-4.8209,-4.7782,-4.625,-4.5372,-4.5045,-4.4242,-4.4016,-4.4267,-4.4819,-4.4769,-4.4267,-4.4744,-4.4443,-4.3413,-4.3664,-4.3514,-4.3037,-4.3263,-4.3263,-4.3011,-4.2986,-4.2861,-4.269,-4.3002,-4.3113,-4.3051,-4.3927,-4.5046,-4.6218,-4.5156,-4.4811,-4.5395,-4.4306,-4.3453,-4.2868,-4.2868,-4.2602,-4.2016,-4.1594,-4.1196,-4.082,-4.0491,-3.9982,-3.9397,-3.9546,-3.9572,-3.9346,-3.9546,-3.9697,-3.9697,-3.9697,-3.9697,-3.9697,-3.9697,-3.9697,-3.9697,-3.9697,-3.9975,-4.0608,-4.0816,-4.1099,-4.1433,-4.1616,-4.1541,-4.1337,-4.126,-4.1157,-4.0875,-4.0721,-4.0722,-4.0946,-4.1445,-4.1914,-4.2452,-4.3108,-4.3634,-4.4059,-4.4555,-4.5018,-4.5367,-4.5458,-4.5458,-4.5458,-4.5623,-4.5685,-4.5685,-4.5776,-4.5866,-4.5895,-4.5895,-4.5895,-4.594,-4.6046,-4.6329,-4.6814,-4.7349,-4.8115,-4.8831,-4.9205,-4.9328,-4.9544,-4.9074,-4.8249,-5.2101,-5.1096,-5.1096,-5.0519,-4.9615,-4.959,-4.959,-4.959,-4.959,-4.9515,-4.9339,-4.8812,-4.8335,-4.7807,-4.6677,-4.5874,-4.5447,-4.4895,-4.4618,-4.4669,-4.5221,-4.4895,-4.394,-4.4367,-4.4041,-4.3137,-4.3413,-4.3388,-4.3062,-4.3413,-4.3413,-4.3011,-4.2986,-4.2986,-4.2986,-4.2986,-4.2986,-4.3042,-4.3653,-4.4428,-4.5214,-4.4183,-4.3873,-4.4364,-4.3381,-4.2501,-4.1776,-4.1802,-4.1542,-4.0972,-4.0719,-4.0542,-4.0338,-4.0134,-3.9929,-3.9749,-3.9697,-3.9697,-3.9697,-3.9697,-3.9697,-3.9697,-3.9697,-3.9697,-3.9697,-3.9697,-3.9697,-3.9697,-3.9697,-3.9873,-4.0224,-4.0325,-4.035,-4.0325,-4.0325,-4.0226,-3.9798,-3.9697,-3.9697,-3.9697,-3.949,-3.9542,-3.9981,-4.0389,-4.0869,-4.1468,-4.2012,-4.2598,-4.3006,-4.3444,-4.4012,-4.4602,-4.4926,-4.511,-4.511,-4.5276,-4.5413,-4.5458,-4.564,-4.5776,-4.5866,-4.5895,-4.5895,-4.594,-4.6001,-4.618,-4.6447,-4.6887,-4.7417,-4.7912,-4.8059,-4.8334,-4.87,-4.8289,-4.7602,-5.1523,-5.0569,-5.0519,-5.0142,-4.9615,-4.959,-4.959,-4.959,-4.959,-4.9314,-4.8887,-4.8234,-4.7983,-4.7707,-4.6301,-4.5623,-4.5522,-4.4895,-4.4669,-4.4744,-4.5221,-4.4895,-4.394,-4.4367,-4.4041,-4.3087,-4.3062,-4.3062,-4.2986,-4.3037,-4.3037,-4.2986,-4.2986,-4.2986,-4.2986,-4.2986,-4.2986,-4.2986,-4.3098,-4.3601,-4.4508,-4.3633,-4.333,-4.386,-4.2881,-4.1742,-4.0837,-4.0658,-4.0406,-3.9902,-3.9852,-3.98,-3.98,-3.9749,-3.9749,-3.9697,-3.9697,-3.9697,-3.9697,-3.9697,-3.9697,-3.9697,-3.9697,-3.9697,-3.9697,-3.9697,-3.9697,-3.9697,-3.9697,-3.9747,-3.9772,-3.9798,-3.9823,-3.9848,-3.9823,-3.9747,-3.9722,-3.9697,-3.9697,-3.9697,-3.9413,-3.9413,-3.9672,-3.9904,-4.0313,-4.0719,-4.1045,-4.1369,-4.1792,-4.2382,-4.306,-4.3729,-4.4462,-4.4972,-4.5018,-4.5138,-4.523,-4.5413,-4.5504,-4.5595,-4.5759,-4.5821,-4.5895,-4.573,-4.5895,-4.5911,-4.6001,-4.6151,-4.6329,-4.6659,-4.6882,-4.7127,-4.7277,-4.7148,-4.6915,-5.1448,-5.0419,-5.0419,-5.0092,-4.964,-4.959,-4.959,-4.959,-4.959,-4.9464,-4.9163,-4.8309,-4.7908,-4.7857,-4.7179,-4.6903,-4.6903,-4.6677,-4.6401,-4.615,-4.6351,-4.5698,-4.4418,-4.4518,-4.4041,-4.3037,-4.2986,-4.2986,-4.2986,-4.2986,-4.2986,-4.2986,-4.2986,-4.2986,-4.2986,-4.2986,-4.2986,-4.2986,-4.2986,-4.3514,-4.4392,-4.3865,-4.3714,-4.4116,-4.3212,-4.2283,-4.1505,-4.0877,-4.0425,-4.0199,-3.9873,-3.9697,-3.9697,-3.9697,-3.9697,-3.9697,-3.9697,-3.9697,-3.9697,-3.9697,-3.9697,-3.9697,-3.9697,-3.9697,-3.9697,-3.9697,-3.9697,-3.9697,-3.9697,-3.9697,-3.9697,-3.9697,-3.9697,-3.9697,-3.9697,-3.9697,-3.9697,-3.9697,-3.9697,-3.9645,-3.9335,-3.905,-3.9102,-3.9102,-3.9181,-3.944,-3.9622,-3.9981,-4.044,-4.0969,-4.1864,-4.2889,-4.3634,-4.4134,-4.4583,-4.4815,-4.4954,-4.5046,-4.5184,-4.5321,-4.5413,-4.5458,-4.5413,-4.5458,-4.5595,-4.564,-4.5714,-4.5651,-4.5668,-4.5786,-4.5858,-4.6119,-4.5996,-4.6131,-4.6259,-5.1222,-5.0268,-5.0193,-4.9967,-4.9615,-4.959,-4.959,-4.959,-4.959,-4.9515,-4.9264,-4.8335,-4.7832,-4.7682,-4.7556,-4.7481,-4.7481,-4.7481,-4.728,-4.6928,-4.6903,-4.61,-4.4719,-4.4618,-4.4066,-4.3137,-4.2986,-4.2986,-4.2986,-4.2986,-4.2986,-4.2986,-4.2986,-4.2986,-4.2986,-4.2986,-4.2986,-4.2986,-4.2986,-4.3514,-4.4418,-4.4242,-4.4217,-4.4493,-4.3714,-4.2886,-4.2238,-4.1379,-4.0902,-4.0727,-4.0224,-3.9923,-3.9923,-3.9772,-3.9772,-3.9923,-4.0022,-4.0045,-4.0019,-3.9894,-3.9819,-3.9794,-3.9746,-3.9697,-3.9697,-3.9697,-3.9697,-3.9697,-3.9645,-3.9594,-3.9697,-3.9697,-3.9697,-3.9697,-3.9697,-3.9697,-3.9697,-3.9697,-3.9697,-3.9645,-3.9179,-3.8788,-3.8684,-3.8502,-3.8396,-3.8502,-3.8631,-3.8841,-3.9364,-3.9981,-4.0869,-4.2159,-4.2722,-4.3423,-4.4209,-4.4537,-4.4705,-4.4844,-4.4954,-4.5046,-4.5092,-4.511,-4.511,-4.5276,-4.5367,-4.5314,-4.5203,-4.5155,-4.4952,-4.4971,-4.4978,-4.4978,-4.4802,-4.5136,-4.5468,-5.067,-4.9715,-4.964,-4.964,-4.959,-4.959,-4.959,-4.959,-4.959,-4.9314,-4.8837,-4.8184,-4.7631,-4.7118,-4.6728,-4.6401,-4.6426,-4.6451,-4.6451,-4.6401,-4.6376,-4.5748,-4.4669,-4.4593,-4.4066,-4.3112,-4.3062,-4.3011,-4.2986,-4.2986,-4.2986,-4.2986,-4.2986,-4.2986,-4.2986,-4.2986,-4.2986,-4.2986,-4.2986,-4.3514,-4.4468,-4.4593,-4.4568,-4.4618,-4.4091,-4.3338,-4.2439,-4.2187,-4.1831,-4.1275,-4.0777,-4.0475,-4.0425,-3.9973,-3.9948,-4.0398,-4.0661,-4.0827,-4.0753,-4.033,-4.0056,-4.0006,-3.9792,-3.9697,-3.9697,-3.9697,-3.9697,-3.9697,-3.9465,-3.9438,-3.9645,-3.9645,-3.9697,-3.9697,-3.9697,-3.9697,-3.9697,-3.9645,-3.9697,-3.9594,-3.9154,-3.8736,-3.8473,-3.821,-3.821,-3.8291,-3.8396,-3.8526,-3.8841,-3.9544,-4.0364,-4.1196,-4.199,-4.2943,-4.4068,-4.4425,-4.449,-4.4658,-4.4751,-4.4844,-4.5,-4.511,-4.5064,-4.5064,-4.5138,-4.5001,-4.4768,-4.4456,-4.4139,-4.3943,-4.369,-4.3617,-4.3888,-4.4236,-4.4586,-5.0619,-4.9615,-4.959,-4.959,-4.959,-4.959,-4.959,-4.959,-4.959,-4.949,-4.9163,-4.8309,-4.7807,-4.7581,-4.6702,-4.6326,-4.6326,-4.6326,-4.6326,-4.6326,-4.6326,-4.5899,-4.5246,-4.5171,-4.4593,-4.3639,-4.3514,-4.3313,-4.3011,-4.2986,-4.2986,-4.2986,-4.2986,-4.2986,-4.2986,-4.2986,-4.2986,-4.2986,-4.2986,-4.3514,-4.4493,-4.4618,-4.4794,-4.5146,-4.4995,-4.4518,-4.3765,-4.3062,-4.2585,-4.2384,-4.153,-4.0824,-4.0551,-4.0325,-4.045,-4.0924,-4.096,-4.0898,-4.0823,-4.0401,-4.0131,-4.0081,-3.9842,-3.9722,-3.9697,-3.9697,-3.9697,-3.9645,-3.9413,-3.9362,-3.9413,-3.9413,-3.9438,-3.9438,-3.9438,-3.9413,-3.9438,-3.9258,-3.9102,-3.9127,-3.8893,-3.8684,-3.8473,-3.8315,-3.8238,-3.8157,-3.8157,-3.821,-3.8315,-3.8712,-3.9337,-4.0083,-4.0794,-4.1667,-4.3156,-4.3879,-4.4237,-4.4425,-4.4565,-4.4565,-4.4676,-4.4723,-4.4676,-4.4769,-4.4815,-4.484,-4.4595,-4.3945,-4.3574,-4.2963,-4.2684,-4.2879,-4.318,-4.3497,-4.3849,-5.0293,-4.9665,-4.959,-4.959,-4.959,-4.959,-4.959,-4.9565,-4.9389,-4.9314,-4.9113,-4.8159,-4.7657,-4.7506,-4.6728,-4.6326,-4.6326,-4.6326,-4.6326,-4.6326,-4.6326,-4.6024,-4.5547,-4.5497,-4.4895,-4.3915,-4.3614,-4.3413,-4.3237,-4.3062,-4.2986,-4.2986,-4.2986,-4.2986,-4.2986,-4.2986,-4.2986,-4.2986,-4.2986,-4.3438,-4.4242,-4.4342,-4.4618,-4.5121,-4.5196,-4.5045,-4.4618,-4.389,-4.3413,-4.3162,-4.2359,-4.153,-4.0877,-4.0953,-4.1204,-4.1501,-4.14,-4.128,-4.1156,-4.0533,-4.0133,-4.0281,-3.9901,-3.9688,-3.9688,-3.9688,-3.9613,-3.9436,-3.9258,-3.9154,-3.9154,-3.9102,-3.9102,-3.9154,-3.9206,-3.9258,-3.9154,-3.8945,-3.8841,-3.8841,-3.8788,-3.8684,-3.8473,-3.8421,-3.8238,-3.8027,-3.7974,-3.7974,-3.8027,-3.8238,-3.8554,-3.926,-3.9981,-4.0895,-4.2039,-4.2798,-4.3784,-4.4115,-4.4294,-4.4294,-4.421,-4.4266,-4.434,-4.4415,-4.4462,-4.4545,-4.4248,-4.3576,-4.2911,-4.2263,-4.2109,-4.2281,-4.2526,-4.2729,-4.305,-4.964,-4.959,-4.959,-4.959,-4.959,-4.959,-4.959,-4.9515,-4.9038,-4.8862,-4.8736,-4.7657,-4.7168,-4.6993,-4.6577,-4.6326,-4.6326,-4.6326,-4.6326,-4.6326,-4.6326,-4.605,-4.5573,-4.5573,-4.5045,-4.3966,-4.3313,-4.3313,-4.3689,-4.3237,-4.2986,-4.2986,-4.2986,-4.2986,-4.2986,-4.2986,-4.2986,-4.2986,-4.293,-4.3263,-4.374,-4.3808,-4.4084,-4.456,-4.4636,-4.4636,-4.456,-4.4518,-4.4192,-4.374,-4.3187,-4.2434,-4.163,-4.1781,-4.2162,-4.2098,-4.2103,-4.2093,-4.1857,-4.0758,-4.0233,-4.0404,-4.0006,-3.9508,-3.9484,-3.9508,-3.9361,-3.8992,-3.8893,-3.8841,-3.8841,-3.8841,-3.8841,-3.8841,-3.905,-3.905,-3.8893,-3.8788,-3.8788,-3.8788,-3.8788,-3.8684,-3.8526,-3.8473,-3.8368,-3.8133,-3.8027,-3.8027,-3.8027,-3.8185,-3.8473,-3.8841,-3.9337,-4.0134,-4.0971,-4.1819,-4.2867,-4.3729,-4.3882,-4.3966,-4.3761,-4.3706,-4.3882,-4.4013,-4.4369,-4.4424,-4.4008,-4.3369,-4.2849,-4.2267,-4.2107,-4.183,-4.1951,-4.2158,-4.231,-4.959,-4.959,-4.959,-4.959,-4.959,-4.959,-4.959,-4.954,-4.9012,-4.8786,-4.8586,-4.7631,-4.7068,-4.6943,-4.6552,-4.6326,-4.6326,-4.6326,-4.6326,-4.6326,-4.6326,-4.6225,-4.6075,-4.605,-4.5673,-4.4895,-4.3991,-4.3639,-4.3689,-4.3263,-4.2986,-4.2986,-4.2986,-4.2986,-4.2986,-4.2986,-4.2905,-4.2706,-4.2625,-4.2843,-4.3136,-4.3185,-4.3573,-4.422,-4.4294,-4.4294,-4.4294,-4.4152,-4.3991,-4.379,-4.3288,-4.2811,-4.2509,-4.2338,-4.2278,-4.2351,-4.2213,-4.1972,-4.1655,-4.0714,-4.0099,-4.0105,-3.9511,-3.9108,-3.9034,-3.9108,-3.9034,-3.8838,-3.8788,-3.8736,-3.8631,-3.8684,-3.8838,-3.8788,-3.8736,-3.8708,-3.8627,-3.855,-3.8631,-3.8736,-3.8788,-3.8736,-3.8684,-3.8684,-3.8526,-3.8315,-3.8262,-3.8185,-3.808,-3.808,-3.8133,-3.8291,-3.8816,-3.9337,-4.0058,-4.0641,-4.1314,-4.2183,-4.2651,-4.31,-4.3018,-4.3046,-4.3296,-4.3788,-4.4125,-4.4172,-4.3776,-4.333,-4.2871,-4.2363,-4.2081,-4.1824,-4.1566,-4.1647,-4.1856,-4.9396,-4.9396,-4.9525,-4.959,-4.959,-4.959,-4.959,-4.949,-4.8761,-4.846,-4.8234,-4.7305,-4.6828,-4.6753,-4.6451,-4.6326,-4.6326,-4.6326,-4.6326,-4.6326,-4.6326,-4.6326,-4.6276,-4.6075,-4.5999,-4.5623,-4.4644,-4.4116,-4.4066,-4.3564,-4.3187,-4.3011,-4.2986,-4.2986,-4.2986,-4.2849,-4.2681,-4.2513,-4.2425,-4.2428,-4.2585,-4.2602,-4.2889,-4.3474,-4.3466,-4.3466,-4.3556,-4.3348,-4.3273,-4.3323,-4.2949,-4.2675,-4.2625,-4.2326,-4.2246,-4.227,-4.2086,-4.1802,-4.1509,-4.0716,-4.0248,-4.028,-3.9807,-3.9399,-3.9374,-3.9374,-3.9326,-3.9107,-3.9213,-3.9165,-3.9082,-3.9111,-3.9218,-3.9218,-3.8941,-3.8737,-3.8713,-3.8606,-3.8591,-3.8729,-3.8736,-3.8684,-3.8788,-3.8788,-3.8684,-3.8473,-3.8421,-3.8315,-3.808,-3.8027,-3.7974,-3.808,-3.8396,-3.8816,-3.9208,-3.9521,-3.9728,-4.0426,-4.1073,-4.1592,-4.1835,-4.2104,-4.2343,-4.3398,-4.4003,-4.4312,-4.3993,-4.3628,-4.3184,-4.2681,-4.2147,-4.1781,-4.1511,-4.1424,-4.1606,-4.9137,-4.9137,-4.9461,-4.959,-4.959,-4.959,-4.959,-4.9414,-4.8435,-4.7958,-4.7732,-4.6853,-4.6376,-4.6351,-4.6326,-4.6326,-4.6326,-4.6326,-4.6326,-4.6326,-4.6326,-4.6351,-4.6401,-4.5974,-4.5924,-4.6024,-4.5171,-4.4694,-4.4644,-4.4116,-4.3589,-4.3206,-4.3131,-4.3006,-4.2918,-4.2675,-4.2457,-4.2344,-4.2142,-4.2054,-4.2046,-4.2021,-4.2192,-4.2468,-4.2322,-4.229,-4.246,-4.2265,-4.2381,-4.2725,-4.2389,-4.2199,-4.211,-4.211,-4.2118,-4.2086,-4.1777,-4.1663,-4.1452,-4.0789,-4.0531,-4.082,-4.0411,-4.0355,-4.0098,-4.0009,-3.9888,-3.9575,-3.9746,-3.9904,-3.9849,-3.988,-3.9904,-3.9898,-3.9485,-3.9242,-3.9248,-3.9056,-3.9019,-3.8896,-3.8701,-3.8546,-3.8883,-3.8859,-3.8704,-3.8526,-3.8473,-3.8368,-3.8185,-3.808,-3.8027,-3.808,-3.8185,-3.8344,-3.8739,-3.8844,-3.8983,-3.8918,-3.9592,-4.0189,-4.1066,-4.1478,-4.2067,-4.3092,-4.3947,-4.4228,-4.4284,-4.3919,-4.3469,-4.297,-4.2382,-4.1807,-4.1468,-4.1383,-4.1269,-4.9072,-4.9137,-4.9461,-4.959,-4.959,-4.959,-4.959,-4.9439,-4.8385,-4.7908,-4.7682,-4.6778,-4.6326,-4.6326,-4.6326,-4.6326,-4.6326,-4.6326,-4.6326,-4.6326,-4.6326,-4.6552,-4.6753,-4.6351,-4.615,-4.6175,-4.5623,-4.5246,-4.5221,-4.4669,-4.4202,-4.3929,-4.348,-4.3134,-4.2881,-4.2453,-4.2086,-4.1891,-4.1777,-4.1631,-4.1483,-4.1483,-4.1573,-4.1777,-4.1777,-4.1777,-4.1834,-4.1549,-4.1736,-4.2225,-4.2209,-4.211,-4.2054,-4.2054,-4.1972,-4.1745,-4.1663,-4.1492,-4.1248,-4.0772,-4.0523,-4.0523,-4.0258,-3.9826,-3.9826,-3.9826,-3.9753,-3.9664,-3.9861,-3.994,-3.983,-3.9964,-4.011,-4.0209,-3.984,-3.9636,-3.9752,-3.9752,-3.9679,-3.9667,-3.9594,-3.9399,-3.9155,-3.9087,-3.9043,-3.8879,-3.8704,-3.8627,-3.8465,-3.8185,-3.8157,-3.8027,-3.808,-3.8133,-3.8185,-3.8238,-3.8174,-3.7788,-3.8186,-3.8892,-4.011,-4.1295,-4.2167,-4.3157,-4.3938,-4.4369,-4.4397,-4.4228,-4.375,-4.3245,-4.2699,-4.2157,-4.1577,-4.1282,-4.11,-4.8902,-4.8877,-4.9267,-4.9396,-4.9396,-4.9396,-4.9396,-4.9171,-4.8347,-4.7908,-4.7657,-4.6778,-4.6326,-4.6326,-4.6326,-4.6326,-4.6326,-4.6326,-4.6326,-4.6326,-4.6326,-4.6476,-4.6627,-4.6401,-4.6326,-4.6276,-4.5999,-4.5723,-4.5472,-4.5121,-4.4719,-4.4211,-4.3879,-4.3433,-4.2848,-4.2454,-4.1997,-4.1655,-4.1492,-4.1344,-4.1196,-4.1196,-4.1344,-4.1492,-4.1492,-4.1435,-4.1402,-4.1287,-4.1369,-4.1655,-4.1712,-4.1712,-4.1688,-4.1712,-4.1631,-4.1459,-4.1459,-4.1344,-4.1182,-4.0884,-4.0739,-4.0691,-4.0403,-4.0306,-4.0306,-4.0258,-4.0282,-4.0363,-4.0427,-4.0427,-4.0315,-4.0427,-4.0572,-4.0676,-4.0451,-4.0274,-4.0335,-4.0231,-4.011,-3.9989,-3.9892,-3.9764,-3.9509,-3.9564,-3.9526,-3.9443,-3.9145,-3.9043,-3.8785,-3.8538,-3.821,-3.808,-3.7974,-3.8027,-3.808,-3.808,-3.8133,-3.7722,-3.7813,-3.8336,-3.934,-4.0893,-4.1984,-4.2896,-4.3789,-4.4378,-4.4331,-4.4247,-4.4003,-4.3497,-4.2992,-4.243,-4.184,-4.139,-4.1139,-4.86,-4.86,-4.8942,-4.9072,-4.9072,-4.9072,-4.9063,-4.8839,-4.8234,-4.7857,-4.7581,-4.6753,-4.6326,-4.6326,-4.6326,-4.6326,-4.6326,-4.6326,-4.6326,-4.6326,-4.6326,-4.6376,-4.6376,-4.6351,-4.6326,-4.6301,-4.6301,-4.6024,-4.5748,-4.5598,-4.5169,-4.4575,-4.4318,-4.3736,-4.3066,-4.2564,-4.2059,-4.1686,-4.1369,-4.123,-4.1196,-4.1196,-4.1287,-4.1435,-4.1344,-4.123,-4.123,-4.1196,-4.1254,-4.1196,-4.1196,-4.123,-4.123,-4.123,-4.123,-4.123,-4.123,-4.123,-4.1196,-4.1148,-4.1148,-4.11,-4.1124,-4.1196,-4.1052,-4.1004,-4.1004,-4.098,-4.1172,-4.1109,-4.1085,-4.1157,-4.1133,-4.1076,-4.11,-4.1022,-4.0878,-4.0644,-4.0395,-4.0158,-3.9944,-3.992,-3.9958,-4.0099,-4.0105,-3.9829,-3.9506,-3.9184,-3.8907,-3.8611,-3.8282,-3.8027,-3.7974,-3.7974,-3.8027,-3.8027,-3.8027,-3.7906,-3.8121,-3.8499,-3.8944,-4.0184,-4.1432,-4.2467,-4.3258,-4.3832,-4.4068,-4.3975,-4.3901,-4.3788,-4.3266,-4.2638,-4.2036,-4.1755,-4.149,-4.8445,-4.8158,-4.8812,-4.8942,-4.8772,-4.9007,-4.8849,-4.8426,-4.8021,-4.7595,-4.723,-4.6602,-4.6326,-4.6326,-4.6326,-4.6326,-4.6326,-4.6326,-4.6326,-4.6326,-4.6326,-4.6326,-4.6326,-4.6326,-4.6326,-4.6326,-4.6326,-4.6225,-4.6125,-4.599,-4.5775,-4.5094,-4.453,-4.407,-4.3372,-4.2611,-4.2059,-4.1842,-4.1471,-4.122,-4.1196,-4.1196,-4.123,-4.1287,-4.123,-4.1196,-4.1196,-4.1196,-4.1196,-4.1196,-4.1196,-4.1196,-4.1196,-4.1196,-4.1196,-4.1172,-4.1172,-4.1172,-4.1196,-4.1196,-4.1196,-4.122,-4.1293,-4.1196,-4.1196,-4.1268,-4.122,-4.1196,-4.1196,-4.1293,-4.1244,-4.1196,-4.1196,-4.122,-4.1172,-4.1206,-4.1142,-4.1061,-4.0941,-4.0868,-4.0796,-4.0748,-4.0395,-4.0322,-4.0321,-4.0074,-3.9764,-3.932,-3.8975,-3.8703,-3.8326,-3.8046,-3.7974,-3.7974,-3.7974,-3.7974,-3.7974,-3.7974,-3.8185,-3.8449,-3.8888,-3.9575,-4.0801,-4.1794,-4.2716,-4.3088,-4.3328,-4.3709,-4.3618,-4.3528,-4.351,-4.3143,-4.2683,-4.2289,-4.1924,-4.8182,-4.8026,-4.8396,-4.8486,-4.833,-4.8215,-4.8075,-4.777,-4.7445,-4.7134,-4.6809,-4.6491,-4.6326,-4.6326,-4.6326,-4.6326,-4.6326,-4.6326,-4.6326,-4.6326,-4.6326,-4.6326,-4.6326,-4.6326,-4.6326,-4.6301,-4.6326,-4.6326,-4.624,-4.612,-4.5793,-4.5331,-4.4829,-4.4208,-4.359,-4.2928,-4.2506,-4.2049,-4.1725,-4.1461,-4.1244,-4.1196,-4.1196,-4.1196,-4.1196,-4.1196,-4.1196,-4.1196,-4.1196,-4.1196,-4.1196,-4.1196,-4.1196,-4.1196,-4.1196,-4.1172,-4.0908,-4.098,-4.1076,-4.1196,-4.1293,-4.1533,-4.1749,-4.1894,-4.1918,-4.1918,-4.1918,-4.1918,-4.1918,-4.1928,-4.1605,-4.1557,-4.1485,-4.122,-4.1196,-4.1196,-4.1196,-4.1196,-4.1196,-4.1196,-4.1124,-4.1028,-4.086,-4.0715,-4.0837,-4.0772,-4.0272,-3.9806,-3.9431,-3.9086,-3.8495,-3.8142,-3.8022,-3.7974,-3.7974,-3.7974,-3.7974,-3.7974,-3.8027,-3.8238,-3.8564,-3.9342,-4.0185,-4.0995,-4.1693,-4.2137,-4.2355,-4.2819,-4.33,-4.3346,-4.3379,-4.3454,-4.3301,-4.2767,-4.2458,-4.796,-4.796,-4.796,-4.796,-4.7887,-4.7467,-4.7175,-4.702,-4.6772,-4.6613,-4.65,-4.6381,-4.6326,-4.6326,-4.6326,-4.6326,-4.6326,-4.6326,-4.6326,-4.6326,-4.6326,-4.6326,-4.6301,-4.624,-4.618,-4.624,-4.618,-4.618,-4.5999,-4.5878,-4.5514,-4.5208,-4.4939,-4.4389,-4.3807,-4.3481,-4.3072,-4.2423,-4.2265,-4.1942,-4.1629,-4.1557,-4.1557,-4.1557,-4.1581,-4.1581,-4.1581,-4.1557,-4.1543,-4.1471,-4.1413,-4.1413,-4.1389,-4.122,-4.1196,-4.1172,-4.0836,-4.086,-4.1148,-4.1293,-4.1533,-4.199,-4.2482,-4.2747,-4.2723,-4.2675,-4.2651,-4.2675,-4.2651,-4.253,-4.2217,-4.1942,-4.1725,-4.1437,-4.1268,-4.1196,-4.1196,-4.1196,-4.1196,-4.1196,-4.1196,-4.1124,-4.1124,-4.1052,-4.1296,-4.1362,-4.0781,-4.029,-3.9896,-3.9395,-3.8725,-3.8262,-3.8142,-3.7998,-3.7974,-3.7974,-3.7974,-3.7974,-3.7974,-3.8133,-3.8315,-3.8712,-3.9389,-3.993,-4.0541,-4.0969,-4.1468,-4.2039,-4.2452,-4.293,-4.3346,-4.35,-4.3398,-4.3143,-4.3076,-4.7828,-4.763,-4.7894,-4.7828,-4.7533,-4.7312,-4.6867,-4.6582,-4.6513,-4.6303,-4.5991,-4.617,-4.624,-4.624,-4.6326,-4.6301,-4.624,-4.624,-4.6266,-4.624,-4.624,-4.624,-4.618,-4.5999,-4.5939,-4.5878,-4.5817,-4.5696,-4.5574,-4.5392,-4.5208,-4.4963,-4.484,-4.4473,-4.412,-4.3794,-4.3481,-4.3072,-4.2784,-4.2519,-4.2434,-4.2327,-4.2327,-4.2327,-4.2362,-4.241,-4.2458,-4.2506,-4.2554,-4.2554,-4.2554,-4.253,-4.2254,-4.1677,-4.1341,-4.1293,-4.1172,-4.1148,-4.1365,-4.1653,-4.1822,-4.2121,-4.2627,-4.2867,-4.2891,-4.2891,-4.2952,-4.2904,-4.288,-4.2819,-4.2699,-4.2362,-4.199,-4.1749,-4.1485,-4.1244,-4.1244,-4.1293,-4.1341,-4.1413,-4.1341,-4.1196,-4.1196,-4.1196,-4.1287,-4.1272,-4.0868,-4.0499,-4.0194,-3.9647,-3.8936,-3.8575,-3.8286,-3.8118,-3.7974,-3.7974,-3.7974,-3.7974,-3.7974,-3.7974,-3.808,-3.808,-3.8502,-3.9129,-3.9595,-4.0006,-4.0567,-4.1095,-4.1667,-4.2133,-4.2807,-4.3563,-4.3556,-4.3473,-4.3873,-4.722,-4.7064,-4.6996,-4.681,-4.6648,-4.6231,-4.5957,-4.5794,-4.5635,-4.5515,-4.5466,-4.5635,-4.5757,-4.5817,-4.5999,-4.6059,-4.6059,-4.6059,-4.6059,-4.6059,-4.6059,-4.6059,-4.6059,-4.5817,-4.5574,-4.5392,-4.527,-4.5331,-4.527,-4.5147,-4.4963,-4.484,-4.4656,-4.447,-4.4299,-4.4021,-4.377,-4.3553,-4.3265,-4.3024,-4.2867,-4.2843,-4.2843,-4.2819,-4.2843,-4.2819,-4.2819,-4.2819,-4.2795,-4.2795,-4.2795,-4.2819,-4.2675,-4.2434,-4.199,-4.1966,-4.1749,-4.1725,-4.2,-4.2279,-4.253,-4.2808,-4.3241,-4.3553,-4.3577,-4.3625,-4.3529,-4.3553,-4.3553,-4.3457,-4.3192,-4.2663,-4.2362,-4.199,-4.1725,-4.1605,-4.1653,-4.188,-4.187,-4.1822,-4.1533,-4.1341,-4.1196,-4.1196,-4.1196,-4.1076,-4.0932,-4.0715,-4.0475,-3.997,-3.9345,-3.8815,-3.8479,-3.8238,-3.807,-3.7998,-3.7974,-3.7974,-3.7974,-3.7974,-3.7974,-3.8027,-3.808,-3.8449,-3.8841,-3.9305,-3.944,-3.993,-4.0617,-4.1419,-4.2279,-4.3026,-4.3539,-4.3851,-4.4115,-4.6655,-4.6511,-4.6102,-4.5934,-4.5774,-4.5293,-4.5164,-4.502,-4.4898,-4.4865,-4.484,-4.5147,-4.5331,-4.5392,-4.5574,-4.5696,-4.5757,-4.5757,-4.5757,-4.5817,-4.5757,-4.5696,-4.5757,-4.5574,-4.5331,-4.4963,-4.4779,-4.484,-4.4902,-4.4779,-4.4717,-4.4594,-4.4409,-4.4285,-4.4261,-4.4213,-4.401,-4.3842,-4.3673,-4.3433,-4.3192,-4.3072,-4.3072,-4.3072,-4.3072,-4.312,-4.3192,-4.3216,-4.3192,-4.3192,-4.3168,-4.318,-4.3096,-4.3072,-4.3072,-4.2976,-4.2495,-4.2506,-4.2651,-4.288,-4.3048,-4.3313,-4.3962,-4.4189,-4.4237,-4.4117,-4.4189,-4.4285,-4.4237,-4.4045,-4.3673,-4.3096,-4.2675,-4.2338,-4.2062,-4.199,-4.2121,-4.2265,-4.2554,-4.2338,-4.1822,-4.1725,-4.1749,-4.1461,-4.1533,-4.1389,-4.1244,-4.098,-4.0739,-4.0451,-3.9874,-3.9152,-3.8695,-3.8383,-3.819,-3.807,-3.8022,-3.7974,-3.7974,-3.7974,-3.7974,-3.7974,-3.8128,-3.8302,-3.8422,-3.8814,-3.8778,-3.8921,-3.9776,-4.0743,-4.1716,-4.2431,-4.2846,-4.3355,-4.3642,-4.6439,-4.6006,-4.5934,-4.5934,-4.5814,-4.5245,-4.5053,-4.5044,-4.4874,-4.4779,-4.4779,-4.5086,-4.527,-4.527,-4.5331,-4.5514,-4.5574,-4.5514,-4.5453,-4.5574,-4.5453,-4.5514,-4.5635,-4.5147,-4.4963,-4.4717,-4.447,-4.4409,-4.447,-4.447,-4.4409,-4.4347,-4.4347,-4.4285,-4.4285,-4.4285,-4.4261,-4.4189,-4.4165,-4.4117,-4.4021,-4.3997,-4.4058,-4.3997,-4.3997,-4.3949,-4.3962,-4.3962,-4.3986,-4.4034,-4.4082,-4.413,-4.4093,-4.4117,-4.4117,-4.389,-4.3337,-4.2747,-4.2988,-4.3216,-4.3433,-4.3673,-4.3997,-4.4237,-4.4285,-4.4285,-4.4285,-4.4285,-4.4285,-4.4261,-4.401,-4.3337,-4.2916,-4.2651,-4.2399,-4.2206,-4.2241,-4.2856,-4.3096,-4.3048,-4.2711,-4.2639,-4.2639,-4.223,-4.187,-4.1701,-4.1533,-4.1244,-4.0956,-4.0619,-4.0355,-3.9657,-3.908,-3.8743,-3.8455,-3.8286,-3.8118,-3.8022,-3.7974,-3.8022,-3.8142,-3.8238,-3.8334,-3.8508,-3.8575,-3.8581,-3.8684,-3.896,-3.936,-4.0082,-4.1104,-4.1705,-4.2141,-4.2631,-4.3018,-4.5694,-4.539,-4.5101,-4.4981,-4.4933,-4.4717,-4.4621,-4.4635,-4.4567,-4.4532,-4.4532,-4.4656,-4.484,-4.4963,-4.5025,-4.5086,-4.5208,-4.5086,-4.5086,-4.5208,-4.5147,-4.5086,-4.5147,-4.4963,-4.4717,-4.4532,-4.4409,-4.4347,-4.4285,-4.4285,-4.4285,-4.4285,-4.4285,-4.4285,-4.4285,-4.4285,-4.4285,-4.4285,-4.4285,-4.4285,-4.4285,-4.4285,-4.4285,-4.4285,-4.4285,-4.4285,-4.4285,-4.4285,-4.4285,-4.4285,-4.4285,-4.4285,-4.4285,-4.4285,-4.4285,-4.4237,-4.3962,-4.3697,-4.3721,-4.3866,-4.3914,-4.3986,-4.4141,-4.4261,-4.4285,-4.4285,-4.4285,-4.4285,-4.4285,-4.4285,-4.4189,-4.3649,-4.3337,-4.3072,-4.2856,-4.2832,-4.2832,-4.3361,-4.377,-4.3697,-4.3601,-4.3481,-4.3241,-4.2615,-4.2182,-4.1918,-4.1653,-4.1293,-4.1004,-4.0667,-4.0427,-4.0162,-3.9633,-3.9176,-3.8839,-3.8599,-3.8286,-3.8166,-3.8022,-3.8118,-3.8431,-3.8575,-3.8719,-3.8864,-3.9032,-3.8942,-3.879,-3.9024,-3.9492,-3.995,-4.043,-4.0901,-4.1357,-4.1571,-4.1918,-4.4861,-4.4837,-4.4453,-4.4285,-4.4285,-4.4285,-4.4309,-4.4285,-4.4347,-4.4285,-4.4285,-4.4347,-4.4532,-4.4717,-4.4717,-4.4717,-4.484,-4.4717,-4.4717,-4.4779,-4.4717,-4.4779,-4.4779,-4.4717,-4.4532,-4.4285,-4.4347,-4.4285,-4.4285,-4.4285,-4.4285,-4.4285,-4.4285,-4.4285,-4.4285,-4.4285,-4.4285,-4.4285,-4.4285,-4.4285,-4.4285,-4.4285,-4.4285,-4.4285,-4.4285,-4.4285,-4.4285,-4.4285,-4.4285,-4.4285,-4.4285,-4.4285,-4.4285,-4.4285,-4.4285,-4.4285,-4.4141,-4.4141,-4.4141,-4.4189,-4.4285,-4.4285,-4.4285,-4.4285,-4.4285,-4.4285,-4.4285,-4.4285,-4.4285,-4.4285,-4.4165,-4.3818,-4.3529,-4.3433,-4.3409,-4.3481,-4.3577,-4.3866,-4.4021,-4.4058,-4.401,-4.413,-4.3746,-4.2976,-4.2495,-4.2182,-4.1798,-4.1365,-4.11,-4.0812,-4.0763,-4.0595,-4.0138,-3.9657,-3.9248,-3.8912,-3.8599,-3.8359,-3.8214,-3.8407,-3.8839,-3.9056,-3.9176,-3.9345,-3.9537,-3.9785,-3.9816,-3.9713,-3.9671,-3.9957,-4.0227,-4.0317,-4.0563,-4.0722,-4.082,-4.4333,-4.4333,-4.4309,-4.4285,-4.4285,-4.4285,-4.4285,-4.4285,-4.4285,-4.4285,-4.4285,-4.4347,-4.447,-4.4656,-4.4532,-4.4532,-4.4779,-4.447,-4.4532,-4.4594,-4.4532,-4.4532,-4.4618,-4.4581,-4.4419,-4.4357,-4.4501,-4.4477,-4.4357,-4.4573,-4.4429,-4.4285,-4.4357,-4.4309,-4.4285,-4.4285,-4.4285,-4.4285,-4.4285,-4.4285,-4.4285,-4.4285,-4.4285,-4.4285,-4.4285,-4.4285,-4.4285,-4.4285,-4.4285,-4.4285,-4.4285,-4.4223,-4.4223,-4.4161,-4.4161,-4.4161,-4.4161,-4.4161,-4.4223,-4.4285,-4.4285,-4.4285,-4.4285,-4.4285,-4.4285,-4.4285,-4.4285,-4.4285,-4.4285,-4.4285,-4.4141,-4.3914,-4.3697,-4.3673,-4.3721,-4.3721,-4.3842,-4.3997,-4.4189,-4.4261,-4.4285,-4.4285,-4.4237,-4.3553,-4.288,-4.2543,-4.1822,-4.1389,-4.1341,-4.1148,-4.122,-4.1076,-4.0643,-4.0162,-3.9633,-3.9296,-3.896,-3.8767,-3.8647,-3.8984,-3.9441,-3.9585,-3.9657,-3.9922,-4.0138,-4.0499,-4.0715,-4.0355,-4.0081,-3.9946,-3.9957,-3.9956,-3.9721,-3.9717,-3.9749,-4.4285,-4.4285,-4.4285,-4.4285,-4.4285,-4.4285,-4.4285,-4.4285,-4.4285,-4.4285,-4.4285,-4.4285,-4.4347,-4.4409,-4.4409,-4.4347,-4.447,-4.4409,-4.4409,-4.4409,-4.4409,-4.4409,-4.4481,-4.4674,-4.4789,-4.4813,-4.5005,-4.5245,-4.5357,-4.5149,-4.5245,-4.5125,-4.4669,-4.4357,-4.4285,-4.4381,-4.4357,-4.4309,-4.4309,-4.4285,-4.4285,-4.4285,-4.4285,-4.4285,-4.4285,-4.4285,-4.4285,-4.4285,-4.4285,-4.4285,-4.4285,-4.4223,-4.3974,-4.385,-4.3749,-4.3772,-4.3796,-4.3859,-4.406,-4.4185,-4.4285,-4.4285,-4.4285,-4.4285,-4.4285,-4.4285,-4.4285,-4.4285,-4.4285,-4.4285,-4.4213,-4.4093,-4.3997,-4.4034,-4.3986,-4.3925,-4.3997,-4.4189,-4.4261,-4.4285,-4.4285,-4.4285,-4.4213,-4.4069,-4.3481,-4.2916,-4.2086,-4.1461,-4.1413,-4.1461,-4.1485,-4.1437,-4.1004,-4.0595,-4.0066,-3.9681,-3.932,-3.92,-3.9104,-3.9513,-3.9922,-4.0066,-4.0186,-4.0451,-4.0619,-4.0763,-4.0787,-4.0691,-4.0588,-4.0539,-3.9982,-3.9407,-3.9155,-3.8855,-3.8862,-4.447,-4.4409,-4.4347,-4.4285,-4.4285,-4.4285,-4.4285,-4.4285,-4.4285,-4.4285,-4.4285,-4.4285,-4.4285,-4.4285,-4.4285,-4.4285,-4.4347,-4.4285,-4.4285,-4.4347,-4.4347,-4.4285,-4.4405,-4.4597,-4.4789,-4.5164,-4.5453,-4.5621,-4.5814,-4.591,-4.5838,-4.5597,-4.5261,-4.4972,-4.4813,-4.4741,-4.4693,-4.4573,-4.4525,-4.4405,-4.4357,-4.4285,-4.4285,-4.4285,-4.4285,-4.4285,-4.4285,-4.4285,-4.4285,-4.4285,-4.4285,-4.4075,-4.3749,-4.3381,-4.3198,-4.3268,-4.3362,-4.3622,-4.3978,-4.4156,-4.4333,-4.4285,-4.4285,-4.4285,-4.4285,-4.4309,-4.4285,-4.4285,-4.4285,-4.4309,-4.4333,-4.4213,-4.4189,-4.4141,-4.4141,-4.4141,-4.4165,-4.4285,-4.4285,-4.4285,-4.4285,-4.4285,-4.4141,-4.4021,-4.3529,-4.306,-4.2602,-4.1846,-4.1365,-4.1461,-4.1677,-4.1557,-4.1341,-4.0908,-4.0499,-4.0114,-3.9801,-3.9801,-3.9777,-3.9994,-4.0331,-4.0475,-4.0619,-4.0787,-4.0884,-4.0932,-4.0932,-4.0908,-4.1004,-4.1133,-4.0315,-3.9406,-3.864,-3.8364,-3.8287,-4.4779,-4.4717,-4.4409,-4.4285,-4.4285,-4.4285,-4.4285,-4.4285,-4.4285,-4.4285,-4.4285,-4.4285,-4.4285,-4.4285,-4.4285,-4.4285,-4.4285,-4.4285,-4.4347,-4.4347,-4.4409,-4.4347,-4.4395,-4.4539,-4.4987,-4.5029,-4.5414,-4.5814,-4.6078,-4.6199,-4.6126,-4.5982,-4.579,-4.5669,-4.5838,-4.5862,-4.5558,-4.5125,-4.5005,-4.4717,-4.4381,-4.4285,-4.4285,-4.4285,-4.4285,-4.4285,-4.4285,-4.4285,-4.4285,-4.4285,-4.4285,-4.4013,-4.3451,-4.3154,-4.3019,-4.2959,-4.3395,-4.3951,-4.4648,-4.446,-4.4487,-4.4525,-4.4645,-4.4573,-4.4429,-4.4381,-4.4501,-4.4693,-4.4549,-4.4477,-4.4381,-4.4381,-4.4477,-4.4525,-4.4573,-4.4597,-4.4645,-4.4477,-4.4501,-4.4477,-4.4357,-4.4261,-4.4154,-4.3914,-4.3433,-4.3048,-4.2891,-4.2386,-4.1629,-4.1557,-4.1822,-4.1894,-4.1725,-4.1389,-4.098,-4.0547,-4.0306,-4.0331,-4.0355,-4.0451,-4.0667,-4.0884,-4.1004,-4.11,-4.11,-4.1052,-4.11,-4.1148,-4.11,-4.0956,-4.0331,-3.952,-3.8575,-3.8046,-3.8142,-4.4779,-4.4779,-4.4409,-4.4285,-4.4285,-4.4285,-4.4285,-4.4285,-4.4285,-4.4285,-4.4285,-4.4285,-4.4285,-4.4285,-4.4285,-4.4285,-4.4285,-4.4285,-4.4347,-4.4594,-4.4656,-4.4656,-4.4704,-4.4908,-4.5257,-4.5621,-4.5958,-4.6343,-4.7016,-4.68,-4.6655,-4.6511,-4.6054,-4.5934,-4.591,-4.5886,-4.5669,-4.5173,-4.5029,-4.4837,-4.4357,-4.4285,-4.4309,-4.4309,-4.4333,-4.4333,-4.4357,-4.4357,-4.4333,-4.4309,-4.4309,-4.4022,-4.3467,-4.3165,-4.2902,-4.2821,-4.3008,-4.3588,-4.4505,-4.4863,-4.5175,-4.5278,-4.5245,-4.5285,-4.5317,-4.5317,-4.5317,-4.5269,-4.5261,-4.5221,-4.5429,-4.5405,-4.5453,-4.5477,-4.5501,-4.5501,-4.5453,-4.5092,-4.4861,-4.4741,-4.4621,-4.4381,-4.4189,-4.4106,-4.3697,-4.3168,-4.2904,-4.2519,-4.1894,-4.1928,-4.2097,-4.2265,-4.2193,-4.1846,-4.1485,-4.1028,-4.0763,-4.0763,-4.0667,-4.0571,-4.0836,-4.1148,-4.1172,-4.1148,-4.1172,-4.1196,-4.1196,-4.1148,-4.0932,-4.0619,-4.0282,-3.9874,-3.9176,-3.8719,-3.8575,-4.4963,-4.4902,-4.447,-4.4285,-4.4285,-4.4285,-4.4285,-4.4285,-4.4285,-4.4285,-4.4285,-4.4285,-4.4285,-4.4285,-4.4285,-4.4285,-4.4347,-4.447,-4.4532,-4.484,-4.4963,-4.4902,-4.4962,-4.5143,-4.5271,-4.5733,-4.6199,-4.6655,-4.704,-4.7185,-4.6848,-4.6367,-4.6102,-4.5958,-4.5934,-4.5862,-4.5669,-4.5285,-4.5029,-4.4813,-4.4453,-4.4309,-4.4405,-4.4525,-4.4573,-4.4573,-4.4573,-4.4525,-4.4453,-4.4381,-4.4367,-4.4213,-4.3749,-4.3507,-4.3225,-4.3057,-4.3174,-4.3846,-4.4781,-4.5507,-4.5877,-4.6398,-4.6134,-4.5934,-4.5934,-4.5814,-4.5838,-4.5862,-4.5982,-4.5958,-4.5958,-4.5982,-4.6006,-4.6006,-4.5982,-4.5958,-4.5838,-4.5477,-4.5077,-4.4957,-4.4645,-4.4429,-4.4309,-4.4189,-4.3973,-4.3481,-4.2976,-4.2615,-4.2327,-4.2375,-4.2423,-4.2567,-4.2615,-4.2351,-4.1966,-4.1485,-4.1293,-4.1196,-4.1004,-4.0787,-4.0908,-4.1196,-4.1196,-4.1196,-4.1196,-4.1196,-4.1196,-4.11,-4.098,-4.0908,-4.0763,-4.0282,-3.9729,-3.9345,-3.9008,-4.527,-4.5208,-4.4594,-4.4285,-4.4285,-4.4285,-4.4285,-4.4285,-4.4285,-4.4347,-4.4347,-4.4347,-4.4409,-4.4409,-4.4409,-4.4409,-4.447,-4.4717,-4.484,-4.4963,-4.5208,-4.5086,-4.5025,-4.5061,-4.5265,-4.5402,-4.5669,-4.6239,-4.6631,-4.6535,-4.6271,-4.5982,-4.563,-4.5558,-4.5558,-4.551,-4.5405,-4.5188,-4.5053,-4.4765,-4.4343,-4.4161,-4.4275,-4.449,-4.4531,-4.4594,-4.4618,-4.4744,-4.4544,-4.4559,-4.4717,-4.4531,-4.4448,-4.4387,-4.4092,-4.3804,-4.3937,-4.4551,-4.5162,-4.5812,-4.6594,-4.6957,-4.6559,-4.6175,-4.6126,-4.6271,-4.6319,-4.6295,-4.6319,-4.6199,-4.6126,-4.615,-4.6199,-4.6199,-4.6199,-4.615,-4.6054,-4.579,-4.5366,-4.5029,-4.4597,-4.4405,-4.4477,-4.4381,-4.4405,-4.4154,-4.3746,-4.3457,-4.3192,-4.3072,-4.3096,-4.3072,-4.3048,-4.288,-4.2471,-4.1918,-4.1461,-4.1268,-4.1196,-4.1052,-4.1172,-4.1196,-4.1196,-4.1196,-4.1196,-4.1196,-4.1196,-4.1196,-4.1172,-4.1076,-4.098,-4.0787,-4.0234,-3.9633,-3.9224,-4.527,-4.5208,-4.4594,-4.4285,-4.4285,-4.4285,-4.4285,-4.4285,-4.4285,-4.4409,-4.4656,-4.4656,-4.4779,-4.5025,-4.5025,-4.4963,-4.5025,-4.5147,-4.5331,-4.5453,-4.5574,-4.5574,-4.5514,-4.5441,-4.549,-4.5497,-4.5673,-4.5861,-4.5958,-4.5886,-4.5645,-4.5293,-4.5029,-4.4885,-4.4837,-4.4765,-4.4885,-4.5044,-4.5005,-4.4592,-4.4031,-4.3701,-4.3868,-4.392,-4.3764,-4.3852,-4.4091,-4.4347,-4.4191,-4.415,-4.4774,-4.4801,-4.4555,-4.4911,-4.4969,-4.4187,-4.4367,-4.4823,-4.5301,-4.5978,-4.6674,-4.7298,-4.7112,-4.7136,-4.704,-4.6944,-4.692,-4.6848,-4.68,-4.6752,-4.6752,-4.6776,-4.6776,-4.6752,-4.6752,-4.6728,-4.6631,-4.6343,-4.5958,-4.5429,-4.4909,-4.4669,-4.4741,-4.4861,-4.4861,-4.4756,-4.4515,-4.4227,-4.3962,-4.377,-4.3673,-4.3625,-4.3481,-4.3313,-4.2808,-4.2313,-4.1725,-4.1341,-4.1317,-4.1268,-4.1196,-4.1196,-4.1196,-4.1196,-4.1196,-4.1196,-4.1196,-4.1196,-4.1196,-4.1196,-4.11,-4.098,-4.0739,-4.0114,-3.9633,-4.5514,-4.5392,-4.4779,-4.4409,-4.4285,-4.4285,-4.4347,-4.447,-4.447,-4.4656,-4.4779,-4.4963,-4.5086,-4.5208,-4.527,-4.527,-4.527,-4.5453,-4.5574,-4.5696,-4.5939,-4.5878,-4.5817,-4.5782,-4.5503,-4.5464,-4.5483,-4.5586,-4.5541,-4.5357,-4.5053,-4.4741,-4.4381,-4.4333,-4.4333,-4.4429,-4.4501,-4.4645,-4.4631,-4.4299,-4.3781,-4.3184,-4.309,-4.3059,-4.2739,-4.2807,-4.3359,-4.3775,-4.4126,-4.4262,-4.504,-4.5446,-4.5381,-4.5733,-4.5582,-4.4869,-4.4823,-4.5051,-4.5369,-4.6001,-4.6741,-4.7298,-4.7497,-4.7449,-4.7425,-4.7329,-4.7353,-4.7353,-4.7401,-4.7449,-4.7473,-4.7473,-4.7473,-4.7449,-4.7449,-4.7449,-4.7209,-4.6944,-4.6463,-4.591,-4.5525,-4.5213,-4.5188,-4.5333,-4.5405,-4.5245,-4.5092,-4.4804,-4.4491,-4.4141,-4.4045,-4.3997,-4.3914,-4.3721,-4.3168,-4.2639,-4.2206,-4.1822,-4.1629,-4.1533,-4.1317,-4.1196,-4.1196,-4.1196,-4.1196,-4.1196,-4.1196,-4.1196,-4.1196,-4.1196,-4.1196,-4.11,-4.0908,-4.0523,-4.0138,-4.5817,-4.5757,-4.5086,-4.4594,-4.4347,-4.4285,-4.447,-4.4779,-4.484,-4.4902,-4.4963,-4.5208,-4.5392,-4.5514,-4.5514,-4.5514,-4.5574,-4.5757,-4.5817,-4.5817,-4.612,-4.612,-4.5939,-4.5842,-4.5649,-4.5343,-4.5229,-4.5473,-4.5146,-4.4948,-4.4669,-4.4309,-4.4309,-4.4285,-4.4285,-4.4285,-4.4405,-4.4621,-4.4559,-4.4213,-4.3474,-4.2864,-4.2392,-4.246,-4.2147,-4.1965,-4.2972,-4.3803,-4.4446,-4.4781,-4.5225,-4.5715,-4.6103,-4.6338,-4.5885,-4.5685,-4.546,-4.5504,-4.5708,-4.6204,-4.6764,-4.7232,-4.7497,-4.7497,-4.7497,-4.7497,-4.7497,-4.7497,-4.7497,-4.7497,-4.7497,-4.7497,-4.7497,-4.7497,-4.7497,-4.7497,-4.7377,-4.6992,-4.6415,-4.591,-4.5549,-4.5293,-4.5814,-4.5982,-4.5982,-4.5886,-4.5766,-4.5477,-4.5116,-4.4717,-4.4477,-4.4405,-4.4141,-4.3962,-4.3529,-4.3072,-4.2735,-4.2399,-4.2062,-4.1629,-4.1293,-4.1196,-4.1196,-4.1196,-4.1196,-4.1196,-4.1196,-4.1196,-4.1196,-4.1196,-4.1196,-4.1196,-4.1004,-4.0763,-4.0499,-4.5817,-4.5757,-4.5086,-4.4594,-4.4285,-4.4285,-4.447,-4.484,-4.5086,-4.5331,-4.5514,-4.5635,-4.5817,-4.5939,-4.5939,-4.5939,-4.6024,-4.6024,-4.612,-4.612,-4.624,-4.624,-4.618,-4.6059,-4.5878,-4.5721,-4.5576,-4.5392,-4.4984,-4.4688,-4.4477,-4.4309,-4.4285,-4.4285,-4.4285,-4.4285,-4.4429,-4.4741,-4.4798,-4.4405,-4.356,-4.2935,-4.2505,-4.1891,-4.1241,-4.0965,-4.171,-4.2467,-4.2928,-4.3238,-4.3897,-4.4809,-4.5804,-4.619,-4.6291,-4.6204,-4.6136,-4.6136,-4.6271,-4.654,-4.7032,-4.7298,-4.7497,-4.7497,-4.7497,-4.7497,-4.7497,-4.7497,-4.7497,-4.7497,-4.7497,-4.7497,-4.7497,-4.7497,-4.7497,-4.7497,-4.7473,-4.6944,-4.6367,-4.603,-4.5621,-4.5798,-4.6343,-4.6511,-4.6511,-4.6511,-4.6487,-4.6271,-4.5862,-4.5414,-4.4909,-4.4741,-4.4381,-4.4069,-4.377,-4.3505,-4.3168,-4.2687,-4.2279,-4.1798,-4.1341,-4.1437,-4.1533,-4.1293,-4.1196,-4.1293,-4.1317,-4.1196,-4.1196,-4.1196,-4.1196,-4.1196,-4.1196,-4.1004,-4.0739,-4.5999,-4.5939,-4.5453,-4.4963,-4.4594,-4.4532,-4.4717,-4.5025,-4.5208,-4.5574,-4.5939,-4.5999,-4.612,-4.6326,-4.6326,-4.6326,-4.6326,-4.6301,-4.624,-4.624,-4.6326,-4.6326,-4.6326,-4.6301,-4.5999,-4.5817,-4.5453,-4.511,-4.4779,-4.447,-4.4309,-4.4285,-4.4285,-4.4285,-4.4285,-4.4333,-4.4573,-4.5053,-4.5269,-4.487,-4.384,-4.2994,-4.185,-4.0986,-4.0108,-3.9889,-4.0497,-4.1221,-4.186,-4.2582,-4.3444,-4.4043,-4.503,-4.5849,-4.6469,-4.6808,-4.6898,-4.6898,-4.6965,-4.7098,-4.7298,-4.7431,-4.7497,-4.7497,-4.7497,-4.7497,-4.7497,-4.7497,-4.7497,-4.7497,-4.7497,-4.7497,-4.7497,-4.7497,-4.7497,-4.7497,-4.7329,-4.6968,-4.6824,-4.6872,-4.6559,-4.6439,-4.6848,-4.7064,-4.704,-4.6968,-4.6968,-4.6752,-4.6391,-4.6175,-4.5606,-4.5173,-4.4909,-4.4453,-4.4045,-4.3866,-4.3649,-4.312,-4.2543,-4.2375,-4.2134,-4.2014,-4.1894,-4.1774,-4.1653,-4.1581,-4.1557,-4.1341,-4.1196,-4.1196,-4.1196,-4.1196,-4.1196,-4.1196,-4.098,-4.624,-4.618,-4.5878,-4.5392,-4.484,-4.4779,-4.4963,-4.527,-4.5331,-4.5696,-4.624,-4.624,-4.6326,-4.6326,-4.6326,-4.6326,-4.6326,-4.6326,-4.6326,-4.6326,-4.6326,-4.6326,-4.6326,-4.624,-4.612,-4.5757,-4.5331,-4.5147,-4.4902,-4.4532,-4.4285,-4.4285,-4.4285,-4.4285,-4.4309,-4.4429,-4.4717,-4.5269,-4.551,-4.5426,-4.4245,-4.2816,-4.1607,-4.0228,-3.8957,-3.8707,-3.9522,-4.032,-4.1084,-4.189,-4.2809,-4.3285,-4.4094,-4.5018,-4.6308,-4.6831,-4.7165,-4.7232,-4.7364,-4.7364,-4.7431,-4.7497,-4.7497,-4.7431,-4.7364,-4.7298,-4.7298,-4.7364,-4.7364,-4.7497,-4.7497,-4.7497,-4.7497,-4.7497,-4.7497,-4.7497,-4.7257,-4.704,-4.7185,-4.7377,-4.7233,-4.7016,-4.7185,-4.7425,-4.7425,-4.7377,-4.7233,-4.6992,-4.6776,-4.6631,-4.6343,-4.5982,-4.5654,-4.5149,-4.4525,-4.4141,-4.3986,-4.3529,-4.3048,-4.3,-4.288,-4.2543,-4.2434,-4.253,-4.241,-4.2049,-4.176,-4.1461,-4.1341,-4.1244,-4.1196,-4.1196,-4.1196,-4.1196,-4.1196,-4.612,-4.5878,-4.5817,-4.5392,-4.484,-4.484,-4.4963,-4.527,-4.527,-4.5696,-4.612,-4.6326,-4.6326,-4.6326,-4.6326,-4.6326,-4.6326,-4.6326,-4.6326,-4.6326,-4.6326,-4.6326,-4.6326,-4.6301,-4.6266,-4.5939,-4.5514,-4.527,-4.4963,-4.4532,-4.4285,-4.4285,-4.4223,-4.4247,-4.4295,-4.4511,-4.4816,-4.5318,-4.565,-4.5691,-4.4843,-4.3459,-4.2091,-4.0696,-3.9306,-3.9076,-3.9281,-3.9714,-4.0146,-4.079,-4.1651,-4.2116,-4.2923,-4.3985,-4.5389,-4.6473,-4.6831,-4.7232,-4.7364,-4.7497,-4.7497,-4.7431,-4.7298,-4.6898,-4.6831,-4.6607,-4.6607,-4.6741,-4.6874,-4.7364,-4.7431,-4.7497,-4.7497,-4.7497,-4.7497,-4.7497,-4.7377,-4.7161,-4.7064,-4.7161,-4.7161,-4.7161,-4.7353,-4.7473,-4.7473,-4.7449,-4.7425,-4.7233,-4.7209,-4.7088,-4.6944,-4.668,-4.6391,-4.5814,-4.5101,-4.4501,-4.4165,-4.3818,-4.3529,-4.3433,-4.3216,-4.2891,-4.2819,-4.3,-4.2615,-4.2134,-4.187,-4.187,-4.1485,-4.1365,-4.1244,-4.1196,-4.1196,-4.122,-4.1244]},{"header":{"parameterUnit":"m.s-1","parameterCategory":1,"la1":31.0,"la2":29.5877,"lo1":-88.7671,"lo2":-86.6584,"dy":0.0162,"dx":0.0185,"nx":115,"ny":88,"refTime":"2026-04-19T12:00:00:Z","depth":0,"parameterNumber":3,"parameterNumberName":"V-component_of_WINDS"},"data":[0.0,0.0,0.0,0.0,0.0,0.0,0.0,0.0,0.0,0.0,0.0,0.0,0.0,0.0,0.0,0.0,0.0,0.0,0.0,0.0,0.0,0.0,0.0,0.0,0.0,0.0,0.0,0.0,0.0,0.0,0.0,0.0,0.0,0.0,0.0,0.0,0.0,0.0,0.0,0.0,0.0,0.0,0.0,0.0,0.0,0.0,0.0,0.0,0.0,0.0,0.0,0.0,0.0,0.0,0.0,0.0,0.0,0.0,0.0,0.0,0.0,0.0,0.0,0.0,0.0,0.0,0.0,0.0,0.0,0.0,0.0,0.0,0.0,0.0,0.0,0.0,0.0,0.0,0.0,0.0,0.0,0.0,0.0,0.0,0.0,0.0,0.0,0.0,0.0,0.0,0.0,0.0,0.0,0.0,0.0,0.0,0.0,0.0,0.0,0.0,0.0,0.0,0.0,0.0,0.0,0.0,0.0,0.0,0.0,0.0,0.0,0.0,0.0,0.0,0.0,0.0,0.0,0.0,0.0,0.0,0.0,0.0,0.0,0.0,0.0,0.0,0.0,0.0,0.0,0.0,0.0,0.0,0.0,0.0,0.0,0.0,0.0,0.0,0.0,0.0,0.0,0.0,0.0,0.0,0.0,0.0,0.0,0.0,0.0,0.0,0.0,0.0,0.0,0.0,0.0,0.0,0.0,0.0,0.0,0.0,0.0,0.0,0.0,0.0,0.0,0.0,0.0,0.0,0.0,0.0,0.0,0.0,0.0,0.0,0.0,0.0,0.0,0.0,0.0,0.0,0.0,0.0,0.0,0.0,0.0,0.0,0.0,0.0,0.0,0.0,0.0,0.0,0.0,0.0,0.0,0.0,0.0,0.0,0.0,0.0,0.0,0.0,0.0,0.0,0.0,0.0,0.0,0.0,0.0,0.0,0.0,0.0,0.0,0.0,0.0,0.0,0.0,0.0,0.0,0.0,0.0,0.0,0.0,0.0,0.0,0.0,0.0,0.0,0.0,0.0,0.0,0.0,0.0,0.0,0.0,0.0,0.0,0.0,0.0,0.0,0.0,0.0,0.0,0.0,0.0,0.0,0.0,0.0,0.0,0.0,0.0,0.0,0.0,0.0,0.0,0.0,0.0,0.0,0.0,0.0,0.0,0.0,0.0,0.0,0.0,0.0,0.0,0.0,0.0,0.0,0.0,0.0,0.0,0.0,0.0,0.0,0.0,0.0,0.0,0.0,0.0,0.0,0.0,0.0,0.0,0.0,0.0,0.0,0.0,0.0,0.0,0.0,0.0,0.0,0.0,0.0,0.0,0.0,0.0,0.0,0.0,0.0,0.0,0.0,0.0,0.0,0.0,0.0,0.0,0.0,0.0,0.0,0.0,0.0,0.0,0.0,0.0,0.0,0.0,0.0,0.0,0.0,0.0,0.0,0.0,0.0,0.0,0.0,0.0,0.0,0.0,0.0,0.0,0.0,0.0,0.0,0.0,0.0,0.0,0.0,0.0,0.0,0.0,0.0,0.0,0.0,0.0,0.0,0.0,0.0,0.0,0.0,0.0,0.0,0.0,0.0,0.0,0.0,0.0,0.0,0.0,0.0,0.0,0.0,0.0,0.0,0.0,0.0,0.0,0.0,0.0,0.0,0.0,0.0,0.0,0.0,0.0,0.0,0.0,0.0,0.0,0.0,0.0,0.0,0.0,0.0,0.0,0.0,0.0,0.0,0.0,0.0,0.0,0.0,0.0,0.0,0.0,0.0,0.0,0.0,0.0,0.0,0.0,0.0,0.0,0.0,0.0,0.0,0.0,0.0,0.0,0.0,0.0,0.0,0.0,0.0,0.0,0.0,0.0,0.0,0.0,0.0,0.0,0.0,0.0,0.0,0.0,0.0,0.0,0.0,0.0,0.0,0.0,0.0,0.0,0.0,0.0,0.0,0.0,0.0,0.0,0.0,0.0,0.0,0.0,0.0,0.0,0.0,0.0,0.0,0.0,0.0,0.0,0.0,0.0,0.0,0.0,0.0,0.0,0.0,0.0,0.0,0.0,0.0,0.0,0.0,0.0,0.0,0.0,0.0,0.0,0.0,0.0,0.0,0.0,0.0,0.0,0.0,0.0,0.0,0.0,0.0,0.0,0.0,0.0,0.0,0.0,0.0,0.0,0.0,0.0,0.0,0.0,0.0,0.0,0.0,0.0,0.0,0.0,0.0,0.0,0.0,0.0,0.0,0.0,0.0,0.0,0.0,0.0,0.0,0.0,0.0,0.0,0.0,0.0,0.0,0.0,0.0,0.0,0.0,0.0,0.0,0.0,0.0,0.0,0.0,0.0,0.0,0.0,0.0,0.0,0.0,0.0,0.0,0.0,0.0,0.0,0.0,0.0,0.0,0.0,0.0,0.0,0.0,0.0,0.0,0.0,0.0,0.0,0.0,0.0,0.0,0.0,0.0,0.0,0.0,0.0,0.0,0.0,0.0,0.0,0.0,0.0,0.0,0.0,0.0,0.0,0.0,0.0,0.0,0.0,0.0,0.0,0.0,0.0,0.0,0.0,0.0,0.0,0.0,0.0,0.0,0.0,0.0,0.0,0.0,0.0,0.0,0.0,0.0,0.0,0.0,0.0,0.0,0.0,0.0,0.0,0.0,0.0,0.0,0.0,0.0,0.0,0.0,0.0,0.0,0.0,0.0,0.0,0.0,0.0,0.0,0.0,0.0,0.0,0.0,0.0,0.0,0.0,0.0,0.0,0.0,0.0,0.0,0.0,0.0,0.0,0.0,0.0,0.0,0.0,0.0,0.0,0.0,0.0,0.0,0.0,0.0,0.0,0.0,0.0,0.0,0.0,0.0,0.0,0.0,0.0,0.0,0.0,0.0,0.0,0.0,0.0,0.0,0.0,0.0,0.0,0.0,0.0,0.0,0.0,0.0,0.0,0.0,0.0,0.0,0.0,0.0,0.0,0.0,0.0,0.0,0.0,0.0,0.0,0.0,0.0,0.0,0.0,0.0,0.0,0.0,0.0,0.0,0.0,0.0,0.0,0.0,0.0,0.0,0.0,0.0,0.0,0.0,0.0,0.0,0.0,0.0,0.0,0.0,0.0,0.0,0.0,0.0,0.0,0.0,0.0,0.0,0.0,0.0,0.0,0.0,0.0,0.0,0.0,0.0,0.0,0.0,0.0,0.0,0.0,0.0,0.0,0.0,0.0,0.0,0.0,0.0,0.0,0.0,0.0,0.0,0.0,0.0,0.0,0.0,0.0,0.0,0.0,0.0,0.0,0.0,0.0,0.0,0.0,0.0,0.0,0.0,0.0,0.0,0.0,0.0,0.0,0.0,0.0,0.0,0.0,0.0,0.0,0.0,0.0,0.0,0.0,0.0,0.0,0.0,0.0,0.0,0.0,0.0,0.0,0.0,0.0,0.0,0.0,0.0,0.0,0.0,0.0,0.0,0.0,0.0,0.0,0.0,0.0,0.0,0.0,0.0,0.0,0.0,0.0,0.0,0.0,0.0,0.0,0.0,0.0,0.0,0.0,0.0,0.0,0.0,0.0,0.0,0.0,0.0,0.0,0.0,0.0,0.0,0.0,0.0,0.0,0.0,0.0,0.0,0.0,0.0,0.0,0.0,0.0,0.0,0.0,0.0,0.0,0.0,0.0,0.0,0.0,0.0,0.0,0.0,0.0,0.0,0.0,0.0,0.0,0.0,0.0,0.0,0.0,0.0,0.0,0.0,0.0,0.0,0.0,0.0,0.0,0.0,0.0,0.0,0.0,0.0,0.0,0.0,0.0,0.0,0.0,0.0,0.0,0.0,0.0,0.0,0.0,0.0,0.0,0.0,0.0,0.0,0.0,0.0,0.0,0.0,0.0,0.0,0.0,0.0,0.0,0.0,0.0,0.0,0.0,0.0,0.0,0.0,0.0,0.0,0.0,0.0,0.0,0.0,0.0,0.0,0.0,0.0,0.0,0.0,0.0,0.0,0.0,0.0,0.0,0.0,0.0,0.0,0.0,0.0,0.0,0.0,0.0,0.0,0.0,0.0,0.0,0.0,0.0,0.0,0.0,0.0,0.0,0.0,0.0,0.0,0.0,0.0,0.0,0.0,0.0,0.0,0.0,0.0,0.0,0.0,0.0,0.0,0.0,0.0,0.0,0.0,0.0,0.0,0.0,0.0,0.0,0.0,0.0,0.0,0.0,0.0,0.0,0.0,0.0,0.0,0.0,0.0,0.0,0.0,0.0,0.0,0.0,0.0,0.0,0.0,0.0,0.0,1.3147,0.0,0.0,0.0,0.0,0.0,0.0,0.0,0.0,0.0,0.0,0.0,0.0,0.0,0.0,0.0,0.0,0.0,0.0,0.0,0.0,0.0,0.0,0.0,0.0,0.0,0.0,0.0,0.0,0.0,0.0,0.0,0.0,0.0,0.0,0.0,0.0,0.0,0.0,0.0,0.0,0.0,0.0,0.0,0.0,0.0,0.0,0.0,0.0,0.0,0.0,0.0,0.0,0.0,0.0,0.0,0.0,0.0,0.0,0.0,0.0,0.0,0.0,0.0,0.0,0.0,0.0,0.0,0.0,0.0,0.0,0.0,0.0,0.0,0.0,0.0,0.0,0.0,0.0,0.0,0.0,0.0,0.0,0.0,0.0,0.0,0.0,0.0,0.0,0.0,0.0,0.0,0.0,0.0,0.0,0.0,0.0,0.0,0.0,0.0,0.0,0.0,0.0,0.0,0.0,0.0,0.0,0.0,0.0,0.0,0.0,1.5606,1.5821,1.5431,1.5044,1.4595,0.0,0.0,0.0,0.0,0.0,0.0,0.0,0.0,0.0,0.0,0.0,0.0,0.0,0.0,0.0,0.0,0.0,0.0,0.0,0.0,0.0,0.0,0.0,0.0,0.0,0.0,0.0,0.0,0.0,0.0,0.0,0.0,0.0,0.0,0.0,0.0,0.0,0.0,0.0,0.0,0.0,0.0,0.0,0.0,0.0,0.0,0.0,0.0,0.0,0.0,0.0,0.0,0.0,0.0,0.0,0.0,0.0,0.0,0.0,0.0,0.0,0.0,0.0,0.0,0.0,0.0,0.0,0.0,0.0,0.0,0.0,0.0,0.0,0.0,0.0,0.0,0.0,0.0,0.0,0.0,0.0,0.0,0.0,0.0,0.0,0.0,0.0,0.0,0.0,0.0,0.0,0.0,0.0,0.0,0.0,0.0,0.0,0.0,0.0,0.0,0.0,0.0,0.0,0.0,0.0,0.0,0.0,0.0,0.0,0.0,0.0,0.0,1.7052,1.6486,1.6004,0.0,0.0,0.0,0.0,0.0,0.0,0.0,0.0,0.0,0.0,0.0,0.0,0.0,0.0,0.0,0.0,0.0,0.0,0.0,0.0,0.0,0.0,0.0,0.0,0.0,0.0,0.0,0.0,0.0,0.0,0.0,0.0,0.0,0.0,0.0,0.0,0.0,0.0,0.0,0.0,0.0,0.0,0.0,0.0,0.0,0.0,0.0,0.0,0.0,0.0,0.0,0.0,0.0,0.0,0.0,0.0,0.0,0.0,0.0,0.0,0.0,0.0,0.0,0.0,0.0,0.0,0.0,0.0,0.0,0.0,0.0,0.0,0.0,0.0,0.0,0.0,0.0,0.0,0.0,0.0,0.0,0.0,0.0,0.0,0.0,0.0,0.0,0.0,0.0,0.0,0.0,0.0,0.0,0.0,0.0,0.0,0.0,0.0,0.0,0.0,0.0,0.0,0.0,0.0,0.0,0.0,0.0,0.0,0.0,0.0,1.8776,1.9268,1.8536,0.0,1.7028,0.0,0.0,0.0,0.0,0.0,0.0,0.0,0.0,0.0,0.0,0.0,0.0,0.0,0.0,0.0,0.0,0.0,0.0,0.0,0.0,0.0,0.0,0.0,0.0,0.0,0.0,0.0,0.0,0.0,0.0,0.0,0.0,0.0,0.0,0.0,0.0,0.0,0.0,0.0,0.0,0.0,0.0,0.0,0.0,0.0,0.0,0.0,0.0,0.0,0.0,0.0,0.0,0.0,0.0,0.0,0.0,0.0,0.0,0.0,0.0,0.0,0.0,0.0,0.0,0.0,0.0,0.0,0.0,0.0,0.0,0.0,0.0,0.0,0.0,0.0,0.0,0.0,0.0,0.0,0.0,0.0,0.0,0.0,0.0,0.0,0.0,0.0,0.0,0.0,0.0,0.0,0.0,0.0,0.0,0.0,0.0,0.0,0.0,0.0,0.0,0.0,0.0,0.0,0.0,0.0,0.0,0.0,0.0,0.0,0.0,2.0696,2.0773,1.9553,1.8622,0.0,0.0,0.0,0.0,0.0,0.0,0.0,0.0,0.0,0.0,0.0,0.0,0.0,0.0,0.0,0.0,0.0,0.0,0.0,0.0,0.0,0.0,0.0,0.0,0.0,0.0,0.0,0.0,0.0,0.0,0.0,0.0,0.0,0.0,0.0,0.0,0.0,0.0,0.0,0.0,0.0,0.0,0.0,0.0,0.0,0.0,0.0,0.0,0.0,0.0,0.0,0.0,0.0,0.0,0.0,0.0,0.0,0.0,0.0,0.0,0.0,0.0,0.0,0.0,0.0,0.0,0.0,0.0,0.0,0.0,0.0,0.0,0.0,0.0,0.0,0.0,0.0,0.0,0.0,0.0,0.0,0.0,0.0,0.0,0.0,0.0,0.0,0.0,0.0,0.0,0.0,0.0,0.0,0.0,0.0,0.0,0.0,0.0,0.0,0.0,0.0,0.0,0.0,0.0,0.0,0.0,0.0,0.0,0.0,0.0,2.1456,2.1483,2.1149,2.0073,1.9149,1.8504,0.0,0.0,0.0,0.0,0.0,0.0,0.0,0.0,0.0,0.0,0.0,0.0,0.0,0.0,0.0,0.0,0.0,0.0,0.0,0.0,0.0,0.0,0.0,0.0,0.0,0.0,0.0,0.0,0.0,0.0,0.0,0.0,0.0,0.0,0.0,0.0,0.0,0.0,0.0,0.0,0.0,0.0,0.0,0.0,0.0,0.0,0.0,0.0,0.0,0.0,0.0,0.0,0.0,0.0,0.0,0.0,0.0,0.0,0.0,0.0,0.0,0.0,0.0,0.0,0.0,0.0,0.0,0.0,0.0,0.0,0.0,0.0,0.0,0.0,0.0,0.0,0.0,0.0,0.0,0.0,0.0,0.0,0.0,0.0,0.0,0.0,0.0,0.0,0.0,0.0,0.0,0.0,0.0,0.0,0.0,0.0,0.0,0.0,0.0,0.0,0.0,0.0,0.0,0.0,0.0,0.0,0.0,0.0,2.1056,2.0882,2.0601,2.0321,1.9693,1.9149,0.0,0.0,0.0,0.0,0.0,0.0,0.0,0.0,0.0,0.0,0.0,0.0,0.0,0.0,0.0,0.0,0.0,0.0,0.0,0.0,0.0,0.0,0.0,0.0,0.0,0.0,0.0,0.0,0.0,0.0,0.0,0.0,0.0,0.0,0.0,0.0,0.0,0.0,0.0,0.0,0.0,0.0,0.0,0.0,0.0,0.0,0.0,0.0,0.0,0.0,0.0,0.0,0.0,0.0,0.0,0.0,0.0,0.0,0.0,0.0,0.0,0.0,0.0,0.0,0.0,0.0,0.0,0.0,0.0,0.0,0.0,0.0,0.0,0.0,0.0,0.0,0.0,0.0,0.0,0.0,0.0,0.0,0.0,0.0,0.0,0.0,0.0,0.0,0.0,0.0,0.0,0.0,0.0,0.0,0.0,0.0,0.0,0.0,0.0,0.0,0.0,0.0,0.0,0.0,0.0,0.0,0.0,0.0,0.0,2.0535,2.0815,2.0722,2.0241,1.9679,1.9092,0.0,0.0,0.0,0.0,0.0,0.0,0.0,0.0,0.0,0.0,0.0,0.0,0.0,0.0,0.0,0.0,0.0,0.0,0.0,0.0,0.0,0.0,0.0,0.0,0.0,0.0,0.0,0.0,0.0,0.0,0.0,0.0,0.0,0.0,0.0,0.0,0.0,0.0,0.0,0.0,0.0,0.0,0.0,0.0,0.0,0.0,0.0,0.0,0.0,0.0,0.0,0.0,0.0,0.0,0.0,0.0,0.0,0.0,0.0,0.0,0.0,0.0,0.0,0.0,0.0,0.0,0.0,0.0,0.0,0.0,0.0,0.0,0.0,0.0,0.0,0.0,0.0,0.0,0.0,0.0,0.0,0.0,0.0,0.0,0.0,0.0,0.0,0.0,0.0,0.0,0.0,0.0,0.0,0.0,0.0,0.0,0.0,0.0,0.0,0.0,0.0,0.0,0.0,0.0,0.0,0.0,0.0,0.0,0.0,2.0193,0.0,2.1069,2.0401,1.9813,1.9225,0.0,0.0,0.0,0.0,0.0,0.0,0.0,0.0,0.0,0.0,0.0,0.0,0.0,0.0,0.0,0.0,0.0,0.0,0.0,0.0,0.0,0.0,0.0,0.0,0.0,0.0,0.0,0.0,0.0,0.0,0.0,0.0,0.0,0.0,0.0,0.0,0.0,0.0,0.0,0.0,0.0,0.0,0.0,0.0,0.0,0.0,0.0,0.0,0.0,0.0,0.0,0.0,0.0,0.0,0.0,0.0,0.0,0.0,0.0,0.0,0.0,0.0,0.0,0.0,0.0,0.0,0.0,0.0,0.0,0.0,0.0,0.0,0.0,0.0,0.0,0.0,0.0,0.0,0.0,0.0,0.0,0.0,0.0,0.0,0.0,0.0,0.0,0.0,0.0,0.0,0.0,0.0,0.0,0.0,0.0,0.0,0.0,0.0,0.0,0.0,0.0,0.0,0.0,0.0,0.0,0.0,0.0,0.0,1.9679,2.0254,2.1363,2.151,2.0757,2.0107,1.9519,0.0,0.0,0.0,0.0,0.0,0.0,0.0,0.0,0.0,0.0,0.0,0.0,0.0,0.0,0.0,0.0,0.0,0.0,0.0,0.0,0.0,0.0,0.0,0.0,0.0,0.0,0.0,0.0,0.0,0.0,0.0,0.0,0.0,0.0,0.0,0.0,0.0,0.0,0.0,0.0,0.0,0.0,0.0,0.0,0.0,0.0,0.0,0.0,0.0,0.0,0.0,0.0,0.0,0.0,0.0,0.0,0.0,0.0,0.0,0.0,0.0,0.0,0.0,0.0,0.0,0.0,0.0,0.0,0.0,0.0,0.0,0.0,0.0,0.0,0.0,0.0,0.0,0.0,0.0,0.0,0.0,0.0,0.0,0.0,0.0,0.0,0.0,0.0,0.0,0.0,0.0,0.0,0.0,0.0,0.0,0.0,0.0,0.0,0.0,0.0,0.0,0.0,0.0,0.0,0.0,0.0,0.0,0.0,0.0,2.0548,2.1082,2.1149,2.0743,2.0294,1.9674,0.0,0.0,0.0,0.0,0.0,0.0,0.0,0.0,0.0,0.0,0.0,0.0,0.0,0.0,0.0,0.0,0.0,0.0,0.0,0.0,0.0,0.0,0.0,0.0,0.0,0.0,0.0,0.0,0.0,0.0,0.0,0.0,0.0,0.0,0.0,0.0,0.0,0.0,0.0,0.0,0.0,0.0,0.0,0.0,0.0,0.0,0.0,0.0,0.0,0.0,0.0,0.0,0.0,0.0,0.0,0.0,0.0,0.0,0.0,0.0,0.0,0.0,0.0,0.0,0.0,0.0,0.0,0.0,0.0,0.0,0.0,0.0,0.0,0.0,0.0,0.0,0.0,0.0,0.0,0.0,0.0,0.0,0.0,0.0,0.0,0.0,0.0,0.0,0.0,0.0,0.0,0.0,0.0,0.0,0.0,0.0,0.0,0.0,0.0,0.0,0.0,0.0,0.0,0.0,0.0,0.0,0.0,0.0,0.0,2.211,2.2148,2.1857,2.1336,2.0935,2.0267,1.9279,0.0,0.0,0.0,0.0,0.0,0.0,0.0,0.0,0.0,0.0,0.0,0.0,0.0,0.0,0.0,0.0,0.0,0.0,0.0,0.0,0.0,0.0,0.0,0.0,0.0,0.0,0.0,0.0,0.0,0.0,0.0,0.0,0.0,0.0,0.0,0.0,0.0,0.0,0.0,0.0,0.0,0.0,0.0,0.0,0.0,0.0,0.0,0.0,0.0,0.0,0.0,0.0,0.0,0.0,0.0,0.0,0.0,0.0,0.0,0.0,0.0,0.0,0.0,0.0,0.0,0.0,0.0,0.0,0.0,0.0,0.0,0.0,0.0,0.0,0.0,0.0,0.0,0.0,0.0,0.0,0.0,0.0,0.0,0.0,0.0,0.0,0.0,0.0,0.0,0.0,0.0,0.0,0.0,0.0,0.0,0.0,0.0,0.0,0.0,0.0,0.0,0.0,0.0,0.0,0.0,0.0,0.0,0.0,2.4497,2.4197,2.3504,2.2579,2.199,2.1132,0.0,0.0,0.0,0.0,0.0,0.0,0.0,0.0,0.0,0.0,0.0,0.0,0.0,0.0,0.0,0.0,0.0,0.0,0.0,0.0,0.0,0.0,0.0,0.0,0.0,0.0,0.0,0.0,0.0,0.0,0.0,0.0,0.0,0.0,0.0,0.0,0.0,0.0,0.0,0.0,0.0,0.0,0.0,0.0,0.0,0.0,0.0,0.0,0.0,0.0,0.0,0.0,0.0,0.0,0.0,0.0,0.0,0.0,0.0,0.0,0.0,0.0,0.0,0.0,0.0,0.0,0.0,0.0,0.0,0.0,0.0,0.0,0.0,0.0,0.0,0.0,0.0,0.0,0.0,0.0,0.0,0.0,0.0,0.0,0.0,0.0,0.0,0.0,0.0,0.0,0.0,0.0,0.0,0.0,0.0,0.0,0.0,0.0,0.0,0.0,0.0,0.0,0.0,0.0,0.0,0.0,0.0,0.0,0.0,2.475,2.5806,2.5704,2.4358,2.3447,2.2329,0.0,0.0,0.0,0.0,0.0,0.0,0.0,0.0,0.0,0.0,0.0,0.0,0.0,0.0,0.0,0.0,0.0,0.0,0.0,0.0,0.0,0.0,0.0,0.0,0.0,0.0,0.0,0.0,0.0,0.0,0.0,0.0,0.0,0.0,0.0,0.0,0.0,0.0,0.0,0.0,0.0,0.0,0.0,0.0,0.0,0.0,0.0,0.0,0.0,0.0,0.0,0.0,0.0,0.0,0.0,0.0,0.0,0.0,0.0,0.0,0.0,0.0,0.0,0.0,0.0,0.0,0.0,0.0,0.0,0.0,0.0,0.0,0.0,0.0,0.0,0.0,0.0,0.0,0.0,0.0,0.0,0.0,0.0,0.0,0.0,0.0,0.0,0.0,0.0,0.0,0.0,0.0,0.0,0.0,0.0,0.0,0.0,0.0,0.0,0.0,0.0,0.0,0.0,0.0,0.0,0.0,0.0,0.0,2.4827,2.577,2.7311,2.765,2.6707,2.5172,2.3697,0.0,0.0,0.0,0.0,0.0,0.0,0.0,0.0,0.0,0.0,0.0,0.0,0.0,0.0,0.0,0.0,0.0,0.0,0.0,0.0,0.0,0.0,0.0,0.0,0.0,0.0,0.0,0.0,0.0,0.0,0.0,0.0,0.0,0.0,0.0,0.0,0.0,0.0,0.0,0.0,0.0,0.0,0.0,0.0,0.0,0.0,0.0,0.0,0.0,0.0,0.0,0.0,0.0,0.0,0.0,0.0,0.0,0.0,0.0,0.0,0.0,0.0,0.0,0.0,0.0,0.0,0.0,0.0,0.0,0.0,0.0,0.0,0.0,0.0,0.0,0.0,0.0,0.0,0.0,0.0,0.0,0.0,0.0,0.0,0.0,0.0,0.0,0.0,0.0,0.0,0.0,0.0,0.0,0.0,0.0,0.0,0.0,0.0,0.0,0.0,0.0,0.0,0.0,0.0,0.0,0.0,0.0,0.0,2.6258,2.7246,2.8842,2.9508,2.9317,2.7038,2.5276,0.0,0.0,0.0,0.0,0.0,0.0,0.0,0.0,0.0,0.0,0.0,0.0,0.0,0.0,0.0,0.0,0.0,0.0,0.0,0.0,0.0,0.0,0.0,0.0,0.0,0.0,0.0,0.0,0.0,0.0,0.0,0.0,0.0,0.0,0.0,0.0,0.0,0.0,0.0,0.0,0.0,0.0,0.0,0.0,0.0,0.0,0.0,0.0,0.0,0.0,0.0,0.0,0.0,0.0,0.0,0.0,0.0,0.0,0.0,0.0,0.0,0.0,0.0,0.0,0.0,0.0,0.0,0.0,0.0,0.0,0.0,0.0,0.0,0.0,0.0,0.0,0.0,0.0,0.0,0.0,0.0,0.0,0.0,0.0,0.0,0.0,0.0,0.0,0.0,0.0,0.0,0.0,0.0,0.0,0.0,0.0,0.0,0.0,0.0,0.0,0.0,0.0,0.0,0.0,0.0,0.0,0.0,0.0,2.8209,2.9154,3.034,3.0972,3.1014,2.9039,2.7231,0.0,0.0,0.0,0.0,0.0,0.0,0.0,0.0,0.0,0.0,0.0,0.0,0.0,0.0,0.0,0.0,0.0,0.0,0.0,0.0,0.0,0.0,0.0,0.0,0.0,0.0,0.0,0.0,0.0,0.0,0.0,0.0,0.0,0.0,0.0,0.0,0.0,0.0,0.0,0.0,0.0,0.0,0.0,0.0,0.0,0.0,0.0,0.0,2.1247,0.0,0.0,0.0,0.0,0.0,0.0,0.0,0.0,0.0,0.0,0.0,0.0,0.0,0.0,0.0,0.0,0.0,0.0,0.0,0.0,0.0,0.0,0.0,0.0,0.0,0.0,0.0,0.0,0.0,0.0,0.0,0.0,0.0,0.0,0.0,0.0,0.0,0.0,0.0,0.0,0.0,0.0,0.0,0.0,0.0,0.0,0.0,0.0,0.0,0.0,0.0,0.0,0.0,0.0,0.0,0.0,0.0,0.0,0.0,3.0178,3.0848,3.1919,3.2526,3.2543,3.1714,3.0112,0.0,0.0,0.0,0.0,0.0,0.0,0.0,0.0,0.0,0.0,0.0,0.0,0.0,0.0,0.0,0.0,0.0,0.0,0.0,0.0,0.0,0.0,0.0,0.0,0.0,0.0,0.0,0.0,0.0,0.0,0.0,0.0,0.0,0.0,0.0,0.0,0.0,0.0,0.0,0.0,0.0,0.0,0.0,0.0,0.0,0.0,0.0,0.0,0.0,0.0,0.0,0.0,0.0,0.0,0.0,0.0,0.0,0.0,0.0,0.0,0.0,0.0,0.0,0.0,0.0,0.0,0.0,0.0,0.0,0.0,0.0,0.0,0.0,0.0,0.0,0.0,0.0,0.0,0.0,0.0,0.0,0.0,0.0,0.0,0.0,0.0,0.0,0.0,0.0,0.0,0.0,0.0,0.0,0.0,0.0,0.0,0.0,0.0,0.0,0.0,0.0,0.0,0.0,0.0,0.0,0.0,0.0,3.1175,3.2226,3.2589,3.3557,3.4079,3.4071,3.423,3.2842,2.9805,0.0,0.0,0.0,0.0,0.0,0.0,0.0,0.0,0.0,0.0,0.0,0.0,0.0,0.0,0.0,0.0,0.0,0.0,0.0,0.0,0.0,0.0,0.0,0.0,0.0,0.0,0.0,0.0,0.0,0.0,0.0,0.0,0.0,0.0,0.0,0.0,0.0,0.0,2.4769,2.5687,0.0,0.0,0.0,0.0,0.0,0.0,0.0,0.0,2.1862,0.0,0.0,0.0,0.0,0.0,0.0,0.0,0.0,0.0,0.0,0.0,0.0,0.0,0.0,0.0,0.0,0.0,0.0,0.0,0.0,0.0,0.0,0.0,0.0,0.0,0.0,0.0,0.0,0.0,0.0,0.0,0.0,0.0,0.0,0.0,0.0,0.0,0.0,0.0,0.0,0.0,0.0,0.0,0.0,0.0,0.0,0.0,0.0,0.0,0.0,0.0,0.0,0.0,0.0,0.0,0.0,3.1431,3.2783,3.3796,3.4504,3.5375,3.5668,3.5296,3.4906,3.3677,3.15,0.0,0.0,0.0,0.0,0.0,0.0,0.0,0.0,0.0,0.0,0.0,0.0,0.0,0.0,0.0,0.0,0.0,0.0,0.0,0.0,0.0,0.0,0.0,0.0,0.0,0.0,0.0,0.0,0.0,0.0,0.0,0.0,0.0,0.0,0.0,0.0,0.0,0.0,0.0,2.7521,2.7871,0.0,0.0,0.0,0.0,0.0,0.0,0.0,0.0,2.2731,0.0,0.0,0.0,0.0,0.0,0.0,0.0,0.0,0.0,0.0,0.0,0.0,0.0,0.0,0.0,0.0,0.0,0.0,0.0,0.0,0.0,0.0,0.0,0.0,0.0,0.0,0.0,0.0,0.0,0.0,0.0,0.0,0.0,0.0,0.0,0.0,0.0,0.0,0.0,0.0,0.0,0.0,0.0,0.0,0.0,0.0,0.0,0.0,0.0,0.0,0.0,0.0,0.0,0.0,0.0,3.2638,3.4412,3.5597,3.6204,3.7039,3.7036,3.6202,3.5286,3.3796,0.0,0.0,0.0,0.0,0.0,0.0,0.0,0.0,0.0,0.0,0.0,0.0,0.0,0.0,0.0,0.0,0.0,0.0,0.0,0.0,0.0,0.0,0.0,0.0,0.0,0.0,0.0,0.0,0.0,0.0,0.0,0.0,0.0,0.0,0.0,0.0,0.0,0.0,0.0,0.0,2.947,2.9829,2.8348,0.0,0.0,0.0,0.0,0.0,0.0,2.3912,2.3462,0.0,0.0,0.0,0.0,0.0,0.0,0.0,0.0,0.0,0.0,0.0,0.0,0.0,0.0,0.0,0.0,0.0,0.0,0.0,0.0,0.0,0.0,0.0,0.0,0.0,0.0,0.0,0.0,0.0,0.0,0.0,0.0,0.0,0.0,0.0,0.0,0.0,0.0,0.0,0.0,0.0,0.0,0.0,0.0,0.0,0.0,0.0,0.0,0.0,0.0,0.0,0.0,0.0,0.0,0.0,3.3398,3.5469,3.6777,3.7305,3.8125,3.7969,3.6699,3.5391,3.3691,0.0,0.0,0.0,0.0,0.0,0.0,0.0,0.0,0.0,0.0,0.0,0.0,0.0,0.0,0.0,0.0,0.0,0.0,0.0,0.0,0.0,0.0,0.0,0.0,0.0,0.0,0.0,0.0,0.0,0.0,0.0,0.0,0.0,0.0,0.0,0.0,0.0,0.0,0.0,0.0,0.0,3.1427,2.9579,2.8572,0.0,0.0,0.0,0.0,2.5476,2.5311,0.0,0.0,0.0,0.0,0.0,0.0,0.0,0.0,0.0,0.0,0.0,0.0,0.0,0.0,0.0,0.0,0.0,0.0,0.0,0.0,0.0,0.0,0.0,0.0,0.0,0.0,0.0,0.0,0.0,0.0,0.0,0.0,0.0,0.0,0.0,0.0,0.0,0.0,0.0,0.0,0.0,0.0,0.0,0.0,0.0,0.0,0.0,0.0,0.0,0.0,0.0,0.0,0.0,0.0,0.0,0.0,3.3379,3.5176,3.6484,3.7285,3.8144,3.804,3.6699,3.5391,3.3691,0.0,0.0,0.0,0.0,0.0,0.0,0.0,0.0,0.0,0.0,0.0,0.0,0.0,0.0,0.0,0.0,0.0,0.0,0.0,0.0,0.0,0.0,0.0,0.0,0.0,0.0,0.0,0.0,0.0,0.0,0.0,0.0,0.0,0.0,0.0,0.0,0.0,0.0,0.0,0.0,0.0,3.1841,3.1249,3.0118,2.9227,0.0,0.0,2.7709,2.687,2.7428,0.0,0.0,0.0,0.0,0.0,0.0,0.0,0.0,0.0,0.0,0.0,0.0,0.0,0.0,0.0,0.0,0.0,0.0,0.0,0.0,0.0,0.0,0.0,0.0,0.0,0.0,0.0,0.0,0.0,0.0,0.0,0.0,0.0,0.0,0.0,0.0,0.0,0.0,0.0,0.0,0.0,0.0,0.0,0.0,0.0,0.0,0.0,0.0,0.0,0.0,0.0,0.0,0.0,0.0,0.0,3.1363,3.3925,3.5474,3.6666,3.752,3.8175,3.7997,3.6924,3.5375,3.3766,0.0,0.0,0.0,0.0,0.0,0.0,0.0,0.0,0.0,0.0,0.0,0.0,0.0,0.0,0.0,0.0,0.0,0.0,0.0,0.0,0.0,0.0,0.0,0.0,0.0,0.0,0.0,0.0,0.0,0.0,0.0,0.0,0.0,0.0,0.0,0.0,0.0,0.0,0.0,0.0,0.0,0.0,3.186,3.132,0.0,0.0,0.0,2.9509,2.992,0.0,0.0,0.0,0.0,0.0,0.0,0.0,0.0,0.0,0.0,0.0,0.0,0.0,0.0,0.0,0.0,0.0,0.0,0.0,0.0,0.0,0.0,0.0,0.0,0.0,0.0,0.0,0.0,0.0,0.0,0.0,0.0,0.0,0.0,0.0,0.0,0.0,0.0,0.0,0.0,0.0,0.0,0.0,0.0,0.0,0.0,0.0,0.0,0.0,0.0,0.0,0.0,0.0,0.0,0.0,0.0,0.0,3.4594,3.6123,3.7243,3.7882,3.8401,3.8219,3.7206,3.5767,0.0,0.0,0.0,0.0,0.0,0.0,0.0,0.0,0.0,0.0,0.0,0.0,0.0,0.0,0.0,0.0,0.0,0.0,0.0,0.0,0.0,0.0,0.0,0.0,0.0,0.0,0.0,2.5486,0.0,0.0,0.0,0.0,0.0,0.0,0.0,0.0,0.0,0.0,0.0,0.0,0.0,0.0,3.3062,3.2753,3.2653,3.2623,0.0,0.0,3.1407,3.2361,3.1777,3.0801,0.0,0.0,0.0,0.0,0.0,0.0,0.0,0.0,0.0,0.0,0.0,0.0,0.0,0.0,0.0,0.0,0.0,0.0,0.0,0.0,0.0,0.0,0.0,0.0,0.0,0.0,0.0,0.0,0.0,0.0,0.0,0.0,0.0,0.0,0.0,0.0,0.0,0.0,0.0,0.0,0.0,0.0,0.0,0.0,0.0,0.0,0.0,0.0,0.0,0.0,0.0,0.0,0.0,0.0,3.2591,3.5098,3.7234,3.8308,3.8458,3.904,3.8739,3.7418,3.6841,3.5314,0.0,0.0,0.0,0.0,0.0,0.0,0.0,0.0,0.0,0.0,0.0,0.0,0.0,0.0,0.0,0.0,0.0,0.0,0.0,0.0,0.0,0.0,0.0,0.0,0.0,0.0,0.0,0.0,0.0,0.0,0.0,0.0,0.0,0.0,0.0,0.0,0.0,0.0,0.0,0.0,0.0,3.3914,3.4467,3.4206,3.3913,0.0,3.3753,3.3693,3.3216,3.2855,3.2118,3.0468,0.0,0.0,0.0,0.0,0.0,0.0,0.0,0.0,0.0,0.0,0.0,0.0,0.0,0.0,0.0,0.0,0.0,0.0,0.0,0.0,0.0,0.0,0.0,0.0,0.0,0.0,0.0,0.0,3.4259,0.0,0.0,0.0,0.0,0.0,0.0,0.0,0.0,0.0,0.0,0.0,0.0,0.0,0.0,0.0,0.0,0.0,0.0,0.0,0.0,0.0,0.0,0.0,0.0,3.3442,3.6151,3.8254,3.9276,3.9276,3.9045,3.8722,3.821,3.7782,3.6606,0.0,0.0,0.0,0.0,0.0,0.0,0.0,0.0,0.0,0.0,0.0,0.0,0.0,0.0,0.0,0.0,0.0,0.0,0.0,0.0,0.0,0.0,0.0,0.0,0.0,0.0,0.0,0.0,2.916,2.9581,3.0015,0.0,0.0,0.0,0.0,0.0,0.0,0.0,0.0,0.0,0.0,3.4895,3.5652,3.5252,0.0,0.0,3.5229,3.4799,3.4595,3.3777,3.2761,3.1532,3.0158,0.0,0.0,0.0,0.0,0.0,0.0,0.0,0.0,0.0,0.0,0.0,0.0,0.0,0.0,0.0,0.0,0.0,0.0,0.0,0.0,0.0,0.0,0.0,0.0,0.0,0.0,0.0,0.0,0.0,0.0,0.0,0.0,0.0,0.0,0.0,0.0,0.0,0.0,0.0,0.0,0.0,0.0,0.0,0.0,0.0,0.0,0.0,0.0,0.0,0.0,0.0,0.0,3.4598,3.7099,3.9323,4.0361,4.0037,3.9578,3.9206,3.9073,3.8781,3.785,0.0,0.0,0.0,0.0,0.0,0.0,0.0,0.0,0.0,0.0,0.0,0.0,0.0,0.0,0.0,0.0,0.0,0.0,0.0,0.0,0.0,0.0,0.0,0.0,0.0,0.0,0.0,0.0,3.0323,3.063,3.0838,0.0,0.0,0.0,0.0,0.0,0.0,0.0,0.0,0.0,0.0,3.5835,3.6486,3.6505,3.6519,3.6771,3.6457,3.5936,3.5396,3.4235,3.312,3.2297,0.0,0.0,0.0,0.0,0.0,0.0,0.0,0.0,0.0,0.0,0.0,0.0,0.0,0.0,0.0,0.0,0.0,0.0,0.0,0.0,0.0,0.0,0.0,0.0,0.0,0.0,0.0,3.7136,0.0,0.0,3.6383,0.0,0.0,0.0,0.0,0.0,0.0,0.0,0.0,0.0,0.0,0.0,0.0,0.0,0.0,0.0,0.0,0.0,0.0,0.0,0.0,0.0,0.0,3.5875,3.7864,4.0493,4.1507,4.0916,4.0745,4.0403,4.0006,3.9877,3.8997,3.7137,0.0,0.0,0.0,0.0,0.0,0.0,0.0,0.0,0.0,0.0,0.0,0.0,0.0,0.0,0.0,0.0,0.0,0.0,0.0,0.0,0.0,0.0,0.0,0.0,0.0,0.0,3.0831,3.1173,3.1165,0.0,0.0,0.0,0.0,0.0,0.0,0.0,0.0,0.0,3.4454,3.5887,3.686,3.7075,3.8011,3.8233,3.7101,3.7354,3.7148,3.5428,3.4205,3.3223,0.0,0.0,0.0,0.0,0.0,0.0,0.0,0.0,0.0,0.0,0.0,0.0,0.0,0.0,0.0,0.0,0.0,0.0,0.0,0.0,0.0,0.0,0.0,0.0,0.0,0.0,0.0,3.8994,3.8366,0.0,0.0,0.0,0.0,0.0,0.0,0.0,0.0,0.0,0.0,0.0,4.1531,4.1566,0.0,0.0,0.0,0.0,0.0,0.0,0.0,0.0,0.0,0.0,0.0,0.0,3.6408,3.9043,4.1053,4.1963,4.1677,4.1208,4.0857,4.0692,4.0726,3.9646,3.744,0.0,0.0,0.0,0.0,0.0,0.0,0.0,0.0,0.0,0.0,0.0,0.0,0.0,0.0,0.0,0.0,0.0,0.0,0.0,0.0,0.0,0.0,0.0,0.0,0.0,3.1433,0.0,0.0,0.0,0.0,0.0,0.0,0.0,0.0,0.0,0.0,3.3194,3.451,3.6106,3.6936,3.7524,3.7833,3.8516,3.8667,0.0,0.0,0.0,0.0,0.0,0.0,0.0,0.0,0.0,0.0,0.0,0.0,0.0,0.0,2.9436,2.8591,2.8212,2.7809,2.703,0.0,0.0,0.0,0.0,0.0,0.0,0.0,0.0,0.0,0.0,0.0,0.0,0.0,0.0,4.0411,3.9728,3.912,0.0,0.0,0.0,0.0,0.0,0.0,0.0,0.0,4.2616,4.3636,4.4352,4.4452,4.4282,4.3877,4.3523,4.1983,0.0,0.0,0.0,0.0,0.0,0.0,0.0,0.0,3.702,3.9247,4.1218,4.2113,4.1935,4.1598,4.1468,4.1435,4.1072,3.9971,3.8038,3.6233,3.4191,0.0,0.0,0.0,0.0,0.0,0.0,0.0,0.0,0.0,0.0,0.0,0.0,0.0,0.0,0.0,0.0,0.0,0.0,0.0,0.0,0.0,0.0,0.0,3.2518,0.0,0.0,0.0,0.0,0.0,0.0,0.0,0.0,0.0,3.4113,3.473,3.5774,3.7244,3.7816,3.8199,3.8684,0.0,0.0,0.0,0.0,0.0,0.0,0.0,3.3711,3.3302,3.223,3.1416,3.1361,3.1299,3.12,3.1067,0.0,0.0,3.1268,3.0794,3.0335,2.9469,2.8102,2.6644,2.5014,2.4338,2.3795,0.0,0.0,0.0,0.0,4.2598,0.0,0.0,0.0,4.2365,4.1594,0.0,3.9873,0.0,0.0,0.0,0.0,3.9,4.0974,0.0,0.0,4.6108,4.7114,4.6233,4.6901,4.67,4.5674,4.5514,4.4617,4.2923,4.0309,3.8041,0.0,0.0,0.0,0.0,0.0,3.7716,3.8664,4.0949,4.1998,4.1748,4.1941,4.2069,4.2012,4.1084,4.0025,3.8995,3.791,3.6308,3.4124,3.4561,0.0,0.0,0.0,0.0,0.0,0.0,0.0,0.0,0.0,0.0,0.0,0.0,0.0,0.0,0.0,0.0,0.0,0.0,0.0,0.0,3.405,0.0,0.0,0.0,0.0,0.0,0.0,0.0,0.0,0.0,3.6013,3.6445,3.6121,3.6311,3.783,0.0,0.0,0.0,0.0,4.0929,4.0354,3.9901,3.9094,3.7554,3.6617,3.5925,3.5598,0.0,0.0,3.3518,3.3427,3.3385,3.3427,3.4014,3.4341,3.3489,3.3094,3.2646,3.1821,3.0413,2.8724,2.6637,2.5566,2.4775,4.6856,0.0,0.0,0.0,0.0,4.4812,4.5591,4.6347,4.5618,4.4963,4.4377,4.3677,0.0,0.0,0.0,0.0,0.0,0.0,4.4271,4.5445,4.7022,4.7917,4.8167,4.7571,4.7042,4.6418,4.5417,4.472,4.4126,4.2611,4.0517,3.8023,0.0,0.0,0.0,0.0,3.8079,3.9855,4.0817,4.142,4.1692,4.1622,4.1534,4.1559,4.086,4.0336,4.0065,3.9016,3.7942,3.6869,3.6268,0.0,0.0,0.0,0.0,0.0,0.0,0.0,0.0,0.0,0.0,0.0,0.0,0.0,0.0,0.0,0.0,0.0,0.0,0.0,3.5091,3.5417,3.5205,0.0,0.0,0.0,0.0,0.0,0.0,0.0,0.0,0.0,3.9032,3.8799,3.8618,0.0,0.0,4.0459,4.0201,4.1183,4.1412,4.0028,3.9812,0.0,3.821,3.7637,3.7206,3.6837,3.5881,3.4923,3.418,3.4049,3.4049,3.4049,3.4524,3.4694,3.4175,3.4068,3.38,3.3,3.1476,2.9698,2.7915,2.6822,2.5823,4.9525,4.6634,4.6534,4.6296,4.6129,4.6971,4.7836,4.8687,4.827,4.7841,4.7282,4.6652,4.5481,4.3813,4.3642,0.0,0.0,0.0,4.683,4.7953,4.9117,4.9826,5.0027,4.916,4.8351,4.7655,4.6394,4.5494,4.5055,4.4152,4.2629,4.0458,0.0,3.7257,3.7441,3.7646,3.8569,4.0132,4.0618,4.1072,4.1349,4.1336,4.1275,4.1275,4.0749,4.04,4.0199,3.9772,3.9145,3.8391,3.8062,3.7149,0.0,0.0,0.0,0.0,0.0,0.0,0.0,0.0,0.0,0.0,0.0,3.2676,3.2836,0.0,0.0,0.0,3.4831,3.5872,3.6573,3.7025,0.0,0.0,0.0,0.0,0.0,0.0,0.0,3.7436,3.7794,3.8413,3.9864,4.02,4.02,3.9965,4.0723,4.1167,4.0827,0.0,4.1823,4.0667,4.0387,4.0037,3.9266,3.9164,3.8919,3.8122,3.7209,3.6297,3.554,3.529,3.5176,3.5106,3.5186,3.5157,3.4705,3.4632,3.4322,3.3623,3.2349,3.0794,2.9141,2.8052,2.6909,5.1678,5.0354,4.8919,4.8477,4.8755,4.8867,4.9698,5.1005,5.0531,5.0205,5.0043,4.9083,4.7953,4.6773,4.6301,0.0,4.7709,4.8855,4.9681,5.0279,5.1839,5.2268,5.1736,5.1088,5.0219,4.9083,4.7841,4.6743,4.5669,4.5173,4.436,4.3153,4.1102,3.9458,3.8255,3.8691,3.9205,3.977,4.0517,4.0896,4.0844,4.1087,4.1229,4.1307,4.083,4.0404,3.9976,4.0377,4.0176,3.9322,3.988,3.9448,3.7896,0.0,0.0,0.0,0.0,0.0,0.0,0.0,0.0,0.0,0.0,0.0,0.0,0.0,0.0,0.0,3.6548,0.0,3.8423,3.8742,0.0,0.0,0.0,3.5704,3.6253,3.6802,3.7377,3.7978,0.0,0.0,3.9756,4.0618,4.1063,4.054,4.1036,4.1428,4.1376,4.1821,4.2109,4.1723,4.1234,4.0741,4.0482,4.0703,4.055,3.9513,3.8665,3.7906,3.7123,3.6777,3.6554,3.6084,3.5904,3.5521,3.5159,3.4675,3.428,3.3613,3.2839,3.1844,3.0229,2.9137,2.7897,5.3493,5.2003,5.2085,5.1276,5.0074,5.0943,5.1951,5.287,5.2798,5.2449,5.1961,5.1748,5.0932,4.9733,4.956,4.9675,4.9973,5.1193,5.1857,5.2007,5.2848,5.293,5.2363,5.1369,5.0295,4.9091,4.792,4.6948,4.6249,4.6087,4.5683,4.4956,4.3993,4.2286,3.9923,3.9953,4.0083,4.0239,4.0665,4.0798,4.0594,4.0619,4.0899,4.1385,4.1258,4.1334,4.1615,4.1743,4.1843,4.1996,4.1437,4.0568,3.9509,3.8011,0.0,0.0,0.0,0.0,0.0,0.0,0.0,0.0,0.0,3.4748,3.4812,0.0,3.6214,0.0,3.8158,3.9341,3.9455,4.0186,0.0,0.0,3.8195,3.7508,3.8031,3.8214,3.8527,3.9155,3.9808,4.0409,4.0853,4.0749,4.0749,4.1063,4.1977,4.2448,4.2056,4.2056,4.2004,4.1537,4.1281,4.1154,4.1104,4.0978,4.092,4.0807,3.9779,3.8635,3.7798,3.7476,3.7068,3.636,3.5976,3.5368,3.4395,3.4032,3.3628,3.2857,3.234,3.1678,3.0473,2.9599,2.8486,5.5176,5.3867,5.4198,5.364,5.2652,5.3092,5.3658,5.441,5.4697,5.46,5.4253,5.426,5.37,5.2771,5.2712,5.2712,5.28,5.3751,5.4193,5.4223,5.4841,5.4621,5.3801,5.2865,5.1676,5.0163,4.8994,4.8121,4.7543,4.7188,4.6936,4.6657,4.6326,4.5061,4.2971,4.2021,4.144,4.1368,4.1191,4.1025,4.0901,4.0619,4.0901,4.1722,4.1517,4.1517,4.185,4.2081,4.2208,4.2259,4.1931,4.1438,4.0728,3.9323,3.7598,0.0,0.0,0.0,0.0,0.0,0.0,0.0,0.0,0.0,0.0,0.0,3.837,3.8933,4.0299,4.1132,4.1104,4.1794,4.2048,4.1338,4.0417,3.9913,4.0226,4.0252,4.0383,4.0723,4.101,4.1324,4.1638,4.1167,4.0932,4.1272,4.1847,4.216,4.1899,4.2054,4.1977,4.1428,4.1324,4.1428,4.1638,4.1253,4.1002,4.1152,4.0356,3.9389,3.8792,3.8348,3.7844,3.715,3.658,3.5836,3.4746,3.3998,3.3429,3.2884,3.2202,3.1573,3.0922,3.0266,2.946,5.6893,5.5613,5.574,5.5702,5.5558,5.5178,5.5236,5.5703,5.6251,5.6475,5.645,5.6317,5.5867,5.5329,5.5119,5.5059,5.5089,5.5619,5.5888,5.6008,5.6466,5.6236,5.5188,5.4627,5.3429,5.1642,5.0469,4.9615,4.8962,4.8427,4.8173,4.8245,4.8195,4.7603,4.6425,4.4484,4.323,4.2641,4.1928,4.1538,4.1569,4.1055,4.1235,4.2314,4.1904,4.1646,4.1724,4.2187,4.2134,4.1595,4.1982,4.2049,4.1743,4.0656,3.9419,0.0,3.7495,0.0,0.0,0.0,0.0,0.0,0.0,0.0,0.0,4.0195,4.0704,4.182,4.2499,4.2941,4.2981,4.352,4.3692,4.3302,4.2746,4.2415,4.2415,4.2468,4.2468,4.2336,4.2441,4.2443,4.2207,4.1762,4.1424,4.1374,4.1376,4.1402,4.1376,4.1742,4.1847,4.1376,4.1324,4.1507,4.1925,4.1512,4.1077,4.1261,4.0799,4.0211,3.9929,3.944,3.8896,3.8291,3.7548,3.6642,3.5617,3.4441,3.3661,3.3156,3.2437,3.1766,3.1313,3.1013,3.0526,5.8523,5.6936,5.7426,5.7365,5.6878,5.733,5.7274,5.6936,5.736,5.7456,5.7379,5.6579,5.6158,5.5897,5.488,5.4401,5.4371,5.3952,5.4042,5.4581,5.47,5.4768,5.4849,5.448,5.3495,5.1969,5.1461,5.0673,4.9548,4.9433,4.9375,4.9424,4.9395,4.8971,4.8192,0.0,0.0,0.0,4.2885,4.2622,4.2658,4.2188,4.2449,4.3491,4.2997,0.0,4.3414,4.3544,4.3283,4.2736,4.2703,0.0,0.0,0.0,0.0,0.0,0.0,0.0,0.0,0.0,0.0,0.0,4.232,4.2332,4.246,4.2909,4.3314,4.3531,4.4109,4.4493,4.467,4.4865,4.4983,4.4991,4.414,4.3467,4.3494,4.3926,4.3872,4.29,4.3552,4.3744,4.2636,4.2145,4.1895,4.1647,4.1448,4.1324,4.1324,4.1428,4.1428,4.1324,4.1324,4.1533,4.2082,4.1613,4.138,4.1773,4.1487,4.1049,4.0896,4.0694,4.0211,3.9467,3.8792,3.7753,3.5887,3.5077,3.4454,3.3297,3.2971,3.2547,3.1701,3.1322,3.0909,5.9786,5.8282,5.8694,5.8435,0.0,5.825,5.8305,5.8225,5.839,5.8253,5.7839,5.7012,5.6286,5.5628,5.4281,5.3533,5.3204,5.2845,5.3054,5.3713,5.4401,5.46,5.4529,5.4645,5.3781,5.2142,5.1965,5.1385,5.0471,5.0442,5.0442,5.0442,5.0442,5.0117,4.9469,4.8588,4.6936,4.4498,4.4261,4.4222,4.4248,4.3424,4.3531,4.4623,4.4065,0.0,0.0,0.0,0.0,0.0,0.0,0.0,0.0,0.0,0.0,4.1966,4.2252,4.2023,4.1175,4.2174,4.3309,4.4291,4.5056,4.5137,4.4275,4.4765,4.5106,4.5135,4.5695,4.6168,4.6334,4.639,4.6357,4.6187,4.5727,4.5271,4.4946,4.5167,4.5112,4.456,4.4698,4.4496,4.3557,4.2836,4.2311,4.1944,4.1547,4.1324,4.1324,4.1324,4.1324,4.1324,4.1324,4.1402,4.1638,4.1533,4.1376,4.1638,4.1507,4.135,4.1324,4.1097,4.0668,4.0109,3.9467,3.846,3.7086,3.6084,3.5192,3.4164,3.3546,3.3121,3.2446,3.2049,3.1741,6.097,5.9567,5.9855,5.9347,5.836,5.8664,5.8882,5.9099,5.9099,0.0,0.0,5.7453,5.6526,5.5418,5.3892,5.2875,5.2366,5.2127,5.2366,5.3054,5.4251,5.4551,5.4072,5.47,5.4042,5.2247,5.2187,5.1858,5.1229,5.1229,5.1229,5.1229,5.1229,5.09,5.0226,4.9304,4.7987,4.6139,4.5965,4.5984,4.6137,4.5016,4.4884,4.5898,4.5216,4.4561,4.3988,4.4425,4.4256,4.3218,4.3614,4.4106,4.462,4.4624,4.4571,4.4442,4.4514,4.4309,4.3738,4.4392,4.5122,4.5855,4.6764,4.683,4.5723,4.6172,4.6501,4.6459,4.698,4.7404,4.7628,4.76,4.7485,4.7176,4.7105,4.6869,4.6369,4.6313,4.6256,4.6115,4.5712,4.5231,4.4538,4.3691,4.2916,4.2457,4.1993,4.1574,4.1524,4.1424,4.1324,4.1324,4.1324,4.1324,4.1324,4.1324,4.1324,4.135,4.1324,4.1324,4.1274,4.1097,4.0896,4.0694,3.9955,3.926,3.84,3.735,3.6191,3.5174,3.4406,3.375,3.3265,3.2884,3.2481,6.2072,6.0823,6.088,6.016,5.8991,5.8991,5.9045,5.9099,5.9099,5.9039,5.889,5.7633,5.6974,5.6705,5.4281,5.3144,5.2965,5.1858,5.1708,5.2366,5.3114,5.3414,5.3354,5.4012,5.3593,5.2276,5.2187,5.1858,5.1289,5.1229,5.1229,5.1229,5.1229,5.0823,5.0285,5.0411,4.9994,4.8952,4.7999,4.7865,4.8486,4.7309,4.6923,4.7567,4.6482,4.5616,4.5029,4.5085,4.4805,4.4181,4.462,4.5127,4.5553,4.5974,4.6167,4.6036,4.6539,4.6569,4.5871,4.648,4.694,4.7073,4.7206,4.7219,4.704,4.71,4.716,4.716,4.7249,4.7448,4.7822,4.7686,4.7633,4.787,4.7717,4.7557,4.7413,4.7413,4.7211,4.672,4.6651,4.6149,4.5228,4.4565,4.3965,4.3444,4.2991,4.2582,4.2289,4.1696,4.1348,4.1324,4.1324,4.1324,4.1374,4.1324,4.1324,4.1324,4.1324,4.1324,4.1324,4.1274,4.1224,4.1174,4.0795,4.0262,3.9519,3.8899,3.7729,3.6395,3.5608,3.5016,3.3976,3.3299,3.2862,6.2301,6.1164,6.1104,6.0326,5.9099,5.9099,5.9099,5.9099,5.9099,5.9099,5.9009,5.8082,5.7453,5.6944,5.5119,5.4072,5.3683,5.2725,5.2456,5.2755,5.3414,5.3354,5.2755,5.3324,5.2965,5.1738,5.2037,5.1858,5.1289,5.1558,5.1558,5.1259,5.1229,5.1079,5.0764,5.0909,5.0815,5.0406,4.9541,4.9375,4.9889,4.8636,4.8264,4.8894,4.772,4.67,4.6071,4.6071,4.5785,4.5155,4.5492,4.5853,4.624,4.658,4.6812,4.6847,4.713,4.716,4.689,4.713,4.7309,4.7309,4.7309,4.7309,4.7309,4.7309,4.7309,4.7309,4.7309,4.7535,4.8074,4.8001,4.8015,4.8192,4.8086,4.7893,4.7552,4.7464,4.7346,4.7125,4.7155,4.6948,4.618,4.5627,4.5144,4.4638,4.4059,4.3539,4.3108,4.2652,4.2164,4.1845,4.1746,4.1746,4.1746,4.1623,4.1498,4.1498,4.1398,4.1298,4.1324,4.1324,4.1324,4.1274,4.1097,4.0719,4.016,3.9467,3.853,3.7554,3.641,3.5511,3.4531,3.3492,3.2621,6.2091,6.0894,6.0894,6.0206,5.9129,5.9099,5.9099,5.9099,5.9099,5.9009,5.88,5.8171,5.7603,5.6974,5.5628,5.467,5.4162,5.3503,5.3174,5.3234,5.3892,5.3503,5.2366,5.2875,5.2486,5.1409,5.1738,5.1708,5.1319,5.1738,5.1738,5.1259,5.1229,5.1229,5.1229,5.1229,5.1229,5.1182,5.0662,5.0661,5.1218,4.994,4.9589,5.0145,4.9033,4.7934,4.7219,4.7144,4.6852,4.6209,4.6329,4.6535,4.6712,4.6887,4.7062,4.7266,4.7309,4.7309,4.7309,4.7309,4.7309,4.7309,4.7309,4.7309,4.7309,4.7309,4.7309,4.7309,4.7309,4.7519,4.7938,4.8057,4.8087,4.8057,4.8057,4.7834,4.7429,4.7309,4.7309,4.7309,4.7482,4.7439,4.7019,4.6565,4.6092,4.5553,4.5052,4.4499,4.405,4.3729,4.3156,4.2604,4.2262,4.2065,4.2065,4.1944,4.1796,4.1746,4.1547,4.1398,4.1298,4.1324,4.1324,4.1274,4.1147,4.0946,4.0643,4.0134,3.9262,3.8282,3.7211,3.601,3.4577,3.3188,3.2184,6.1403,6.0266,6.0206,5.9757,5.9129,5.9099,5.9099,5.9099,5.9099,5.877,5.8261,5.7483,5.7184,5.6855,5.5179,5.4371,5.4251,5.3503,5.3234,5.3324,5.3892,5.3503,5.2366,5.2875,5.2486,5.1349,5.1319,5.1319,5.1229,5.1289,5.1289,5.1229,5.1229,5.1229,5.1229,5.1229,5.1229,5.1229,5.1135,5.1733,5.2808,5.1655,5.1297,5.1924,5.0653,4.9417,4.8239,4.8134,4.7835,4.7239,4.7179,4.7222,4.7222,4.7266,4.7266,4.7309,4.7309,4.7309,4.7309,4.7309,4.7309,4.7309,4.7309,4.7309,4.7309,4.7309,4.7309,4.7309,4.7309,4.7369,4.7399,4.7429,4.7459,4.7489,4.7459,4.7369,4.7339,4.7309,4.7309,4.7309,4.7495,4.7495,4.7279,4.7032,4.6682,4.6329,4.5987,4.5644,4.531,4.4759,4.4106,4.3444,4.2749,4.2213,4.2164,4.2092,4.1993,4.1796,4.1696,4.1597,4.1474,4.1348,4.1324,4.1448,4.1324,4.1248,4.1147,4.092,4.0184,3.8892,3.788,3.6819,3.4349,3.2708,3.1944,6.1313,6.0086,6.0086,5.9697,5.9159,5.9099,5.9099,5.9099,5.9099,5.8949,5.859,5.7573,5.7094,5.7034,5.6226,5.5897,5.5897,5.5628,5.5299,5.4999,5.5239,5.4461,5.2935,5.3054,5.2486,5.1289,5.1229,5.1229,5.1229,5.1229,5.1229,5.1229,5.1229,5.1229,5.1229,5.1229,5.1229,5.1229,5.1229,5.1858,5.2905,5.2276,5.2097,5.2576,5.1498,5.0391,4.9464,4.8716,4.8177,4.7908,4.7519,4.7309,4.7309,4.7309,4.7309,4.7309,4.7309,4.7309,4.7309,4.7309,4.7309,4.7309,4.7309,4.7309,4.7309,4.7309,4.7309,4.7309,4.7309,4.7309,4.7309,4.7309,4.7309,4.7309,4.7309,4.7309,4.7309,4.7309,4.7309,4.7352,4.7611,4.7794,4.7752,4.7752,4.7636,4.7422,4.7219,4.6915,4.6521,4.6003,4.519,4.4219,4.3539,4.3088,4.2679,4.2435,4.2289,4.219,4.2043,4.1895,4.1796,4.1746,4.1796,4.1746,4.1597,4.1547,4.1524,4.0835,4.005,3.9018,3.7468,3.5951,3.4113,3.3133,3.2617,6.1044,5.9907,5.9817,5.9548,5.9129,5.9099,5.9099,5.9099,5.9099,5.9009,5.871,5.7603,5.7004,5.6825,5.6675,5.6585,5.6585,5.6585,5.6346,5.5927,5.5897,5.494,5.3294,5.3174,5.2516,5.1409,5.1229,5.1229,5.1229,5.1229,5.1229,5.1229,5.1229,5.1229,5.1229,5.1229,5.1229,5.1229,5.1229,5.1858,5.2935,5.2725,5.2695,5.3025,5.2097,5.1109,5.0226,4.9314,4.8745,4.8536,4.7938,4.7578,4.7578,4.7399,4.7399,4.7578,4.7802,4.7935,4.7905,4.7755,4.7665,4.7635,4.7472,4.7309,4.7309,4.7309,4.7309,4.7309,4.7352,4.7396,4.7309,4.7309,4.7309,4.7309,4.7309,4.7309,4.7309,4.7309,4.7309,4.7352,4.7739,4.8007,4.8091,4.8187,4.8271,4.8187,4.8133,4.7964,4.7435,4.6915,4.6092,4.4915,4.4434,4.3804,4.3067,4.2728,4.2609,4.2462,4.2289,4.219,4.2141,4.2065,4.2065,4.1944,4.1845,4.1614,4.1331,4.0569,3.9858,3.9007,3.7491,3.5697,3.4846,3.4089,3.3645,6.0386,5.9249,5.9159,5.9159,5.9099,5.9099,5.9099,5.9099,5.9099,5.877,5.8201,5.7423,5.6765,5.6278,5.5688,5.5299,5.5329,5.5359,5.5359,5.5299,5.5269,5.4521,5.3234,5.3144,5.2516,5.1379,5.1319,5.1259,5.1229,5.1229,5.1229,5.1229,5.1229,5.1229,5.1229,5.1229,5.1229,5.1229,5.1229,5.1858,5.2995,5.3144,5.3114,5.3174,5.2546,5.1648,5.0465,5.0166,4.9853,4.9299,4.8596,4.8237,4.8177,4.7638,4.7608,4.8251,4.8998,4.9418,4.9327,4.8815,4.8484,4.8424,4.7739,4.7309,4.7309,4.7309,4.7309,4.7309,4.7452,4.7525,4.7352,4.7352,4.7309,4.7309,4.7309,4.7309,4.7309,4.7352,4.7309,4.7396,4.7709,4.8049,4.826,4.8469,4.8469,4.8355,4.8271,4.8218,4.7964,4.7336,4.6638,4.5853,4.5127,4.4275,4.3211,4.29,4.2776,4.2658,4.256,4.2462,4.2239,4.2065,4.2115,4.2115,4.2092,4.1781,4.1112,4.0469,3.983,3.8877,3.7562,3.6196,3.5619,3.5187,3.4678,6.0326,5.9129,5.9099,5.9099,5.9099,5.9099,5.9099,5.9099,5.9099,5.8979,5.859,5.7573,5.6974,5.6705,5.5658,5.5209,5.5209,5.5209,5.5209,5.5209,5.5209,5.47,5.3922,5.3832,5.3144,5.2007,5.1858,5.1618,5.1259,5.1229,5.1229,5.1229,5.1229,5.1229,5.1229,5.1229,5.1229,5.1229,5.1229,5.1858,5.3025,5.3174,5.3384,5.3803,5.3623,5.3054,5.2157,5.1319,5.075,5.0511,4.9494,4.876,4.8327,4.8057,4.8207,4.888,4.9359,4.9613,4.9523,4.901,4.8575,4.8514,4.7799,4.7339,4.7309,4.7309,4.7309,4.7352,4.7495,4.7538,4.7495,4.7495,4.7525,4.7525,4.7525,4.7495,4.7525,4.7624,4.7752,4.7782,4.7922,4.8091,4.826,4.8385,4.8396,4.851,4.851,4.8469,4.8385,4.8019,4.7508,4.6828,4.6211,4.5372,4.4012,4.3403,4.3094,4.29,4.2755,4.2755,4.2582,4.2533,4.2582,4.2484,4.2435,4.2181,4.1586,4.0622,3.9928,3.8684,3.7351,3.6947,3.6474,3.6096,3.5667,5.9937,5.9189,5.9099,5.9099,5.9099,5.9099,5.9099,5.9069,5.886,5.877,5.853,5.7393,5.6795,5.6615,5.5688,5.5209,5.5209,5.5209,5.5209,5.5209,5.5209,5.485,5.4281,5.4221,5.3503,5.2336,5.1977,5.1738,5.1528,5.1319,5.1229,5.1229,5.1229,5.1229,5.1229,5.1229,5.1229,5.1229,5.1229,5.1768,5.2725,5.2845,5.3174,5.3773,5.3862,5.3683,5.3174,5.2306,5.1738,5.1439,5.0481,4.9494,4.8716,4.8805,4.9105,4.9569,5.011,5.0411,5.026,4.9609,4.923,4.9411,4.8511,4.7826,4.7826,4.7826,4.7735,4.7628,4.7624,4.7709,4.7709,4.7752,4.7752,4.7709,4.7666,4.7624,4.7709,4.788,4.7964,4.7964,4.8007,4.8091,4.826,4.8301,4.8396,4.8563,4.8604,4.8604,4.8563,4.8396,4.8145,4.7521,4.6915,4.6121,4.5081,4.4415,4.3499,4.3163,4.2867,4.2867,4.2786,4.284,4.2819,4.2798,4.2749,4.255,4.1898,4.0903,3.9841,3.8642,3.7998,3.7572,3.7294,3.7062,3.6687,5.9159,5.9099,5.9099,5.9099,5.9099,5.9099,5.9099,5.9009,5.8441,5.8231,5.8082,5.6795,5.6338,5.6128,5.5508,5.5209,5.5209,5.5209,5.5209,5.5209,5.5209,5.488,5.4311,5.4311,5.3683,5.2396,5.1618,5.1618,5.2067,5.1528,5.1229,5.1229,5.1229,5.1229,5.1229,5.1229,5.1229,5.1229,5.1276,5.1558,5.2127,5.2324,5.2654,5.3223,5.3313,5.3313,5.3223,5.3054,5.2665,5.2127,5.1468,5.0571,4.9613,4.9793,5.0136,5.0393,5.1302,5.1865,5.1805,5.0784,5.0354,5.0567,4.9735,4.868,4.865,4.868,4.8498,4.8043,4.7922,4.7964,4.7964,4.7964,4.7964,4.7964,4.7794,4.7794,4.7922,4.8007,4.8007,4.8007,4.8007,4.8091,4.8218,4.826,4.8343,4.848,4.8563,4.8563,4.8563,4.8438,4.826,4.7964,4.7508,4.6784,4.6106,4.5338,4.4294,4.3444,4.3122,4.2924,4.2631,4.2576,4.2562,4.2596,4.2846,4.262,4.2037,4.1066,4.0308,3.9329,3.8754,3.8247,3.7939,3.771,3.7598,5.9099,5.9099,5.9099,5.9099,5.9099,5.9099,5.9099,5.9039,5.8411,5.8141,5.7902,5.6765,5.6218,5.6068,5.5478,5.5209,5.5209,5.5209,5.5209,5.5209,5.5209,5.5089,5.491,5.488,5.4431,5.3503,5.2426,5.2007,5.2067,5.1558,5.1229,5.1229,5.1229,5.1229,5.1229,5.1229,5.1246,5.1463,5.1479,5.1857,5.2678,5.2739,5.2976,5.3405,5.3495,5.3495,5.3495,5.2852,5.2426,5.2187,5.1588,5.102,5.0661,5.0345,5.0497,5.1148,5.1666,5.2063,5.2017,5.107,5.0411,5.0306,4.923,4.8402,4.8311,4.8402,4.8311,4.8067,4.8007,4.8049,4.8133,4.8091,4.8067,4.8007,4.8049,4.8122,4.8236,4.8248,4.8133,4.8049,4.8007,4.8049,4.8091,4.8091,4.8218,4.8385,4.8427,4.8438,4.8521,4.8521,4.848,4.8355,4.7934,4.7508,4.6901,4.6241,4.5483,4.4355,4.3687,4.2912,4.2551,4.2301,4.2269,4.2378,4.2704,4.2656,4.1998,4.1389,4.0683,4.0026,3.9413,3.9002,3.8591,3.833,3.8103,5.9261,5.9261,5.9153,5.9099,5.9099,5.9099,5.9099,5.8979,5.8112,5.7752,5.7483,5.6376,5.5807,5.5718,5.5359,5.5209,5.5209,5.5209,5.5209,5.5209,5.5209,5.5209,5.5149,5.491,5.482,5.4371,5.3204,5.2576,5.2516,5.1917,5.1468,5.1259,5.1229,5.1229,5.1229,5.1293,5.1433,5.1572,5.1695,5.2045,5.2472,5.2609,5.2728,5.2855,5.2963,5.2963,5.2838,5.2352,5.2262,5.2322,5.187,5.1539,5.1479,5.1118,5.1134,5.162,5.1972,5.22,5.2184,5.1417,5.094,5.0866,5.0044,4.942,4.939,4.939,4.9329,4.9054,4.8968,4.8907,4.9023,4.895,4.8865,4.8865,4.8736,4.8699,4.8668,4.8753,4.8515,4.8255,4.8049,4.8091,4.8007,4.8007,4.8091,4.826,4.8301,4.8385,4.8521,4.8563,4.8604,4.8521,4.8271,4.7934,4.7563,4.71,4.6618,4.5493,4.4432,4.3353,4.2572,4.2196,4.2067,4.2276,4.2493,4.2792,4.2391,4.2039,4.143,4.0769,4.0083,3.939,3.8879,3.8629,3.8376,5.9476,5.9476,5.9207,5.9099,5.9099,5.9099,5.9099,5.889,5.7723,5.7154,5.6885,5.5837,5.5269,5.5239,5.5209,5.5209,5.5209,5.5209,5.5209,5.5209,5.5209,5.5239,5.5299,5.479,5.473,5.485,5.3832,5.3264,5.3204,5.2576,5.1947,5.1605,5.1516,5.1366,5.149,5.1539,5.1618,5.1711,5.1926,5.2048,5.2154,5.2124,5.1986,5.1862,5.2031,5.2108,5.1969,5.2077,5.2336,5.2761,5.2229,5.188,5.2002,5.2002,5.1895,5.1972,5.217,5.2261,5.2229,5.1857,5.1761,5.213,5.1607,5.1652,5.1208,5.098,5.0826,5.0426,5.0192,5.0166,5.021,5.0136,5.0166,5.0271,4.9751,4.9445,4.9341,4.9542,4.9273,4.8572,4.8328,4.8351,4.8231,4.8201,4.8225,4.8218,4.826,4.8343,4.8438,4.8521,4.8563,4.8521,4.8438,4.8313,4.7946,4.7861,4.7395,4.6586,4.5446,4.4341,4.2992,4.2485,4.2067,4.2254,4.2439,4.2711,4.2765,4.2412,4.1978,4.1314,4.0572,3.976,3.9266,3.9015,3.8737,5.9529,5.9476,5.9207,5.9099,5.9099,5.9099,5.9099,5.8919,5.7663,5.7094,5.6825,5.5748,5.5209,5.5209,5.5209,5.5209,5.5209,5.5209,5.5209,5.5209,5.5209,5.5478,5.5718,5.5239,5.4999,5.5029,5.4371,5.3922,5.3892,5.3234,5.2912,5.2936,5.2395,5.2326,5.2483,5.2076,5.1972,5.2079,5.217,5.2337,5.2503,5.2503,5.2382,5.217,5.217,5.217,5.2124,5.2352,5.2352,5.226,5.2123,5.2002,5.2048,5.2048,5.2063,5.2246,5.2261,5.2397,5.244,5.2069,5.1867,5.1867,5.1528,5.0974,5.0974,5.0974,5.0882,5.0654,5.045,5.0437,5.0524,5.0468,5.0651,5.112,5.0764,5.0279,5.0087,5.0087,4.9996,4.9756,4.9665,4.942,4.9115,4.8919,4.8755,4.8335,4.8225,4.8236,4.8466,4.8438,4.851,4.8563,4.8521,4.848,4.8438,4.8396,4.8099,4.7507,4.6634,4.5739,4.4254,4.3043,4.2629,4.241,4.2617,4.2846,4.2873,4.2711,4.2249,4.1761,4.1144,4.0356,3.9888,3.9519,3.9087,5.972,5.969,5.9369,5.9261,5.9261,5.9261,5.9261,5.8991,5.7745,5.7094,5.6795,5.5748,5.5209,5.5209,5.5209,5.5209,5.5209,5.5209,5.5209,5.5209,5.5209,5.5388,5.5568,5.5299,5.5209,5.5149,5.482,5.4491,5.4192,5.3773,5.365,5.3513,5.323,5.3041,5.2913,5.2779,5.2444,5.2367,5.2397,5.2563,5.2729,5.2729,5.2563,5.2397,5.2397,5.2442,5.2518,5.2608,5.2594,5.2367,5.2322,5.2322,5.2291,5.2322,5.2337,5.2473,5.2473,5.2563,5.2592,5.2329,5.2144,5.2082,5.1713,5.159,5.159,5.1528,5.1559,5.1546,5.1396,5.1396,5.1484,5.1396,5.1581,5.1946,5.1775,5.1318,5.0822,5.0804,5.0651,5.0498,5.0376,5.0327,4.9781,4.9738,4.9469,4.9035,4.8773,4.8755,4.876,4.8558,4.8469,4.8521,4.8604,4.8563,4.8521,4.8521,4.848,4.7958,4.7537,4.6713,4.5355,4.3853,4.3192,4.2896,4.2938,4.2949,4.2997,4.2916,4.2493,4.2005,4.1517,4.0974,4.0404,3.997,3.9555,6.0016,6.0016,5.9636,5.9529,5.9529,5.9529,5.9386,5.9115,5.7738,5.7034,5.6705,5.5718,5.5209,5.5209,5.5209,5.5209,5.5209,5.5209,5.5209,5.5209,5.5209,5.5269,5.5269,5.5239,5.5209,5.5179,5.5179,5.485,5.4521,5.4341,5.419,5.4074,5.3881,5.365,5.354,5.3391,5.2994,5.2642,5.2594,5.2653,5.2729,5.2729,5.2608,5.2442,5.2563,5.2653,5.2653,5.2729,5.2684,5.2729,5.2729,5.2653,5.2653,5.2653,5.2653,5.2653,5.2653,5.2653,5.2729,5.2667,5.2667,5.2606,5.2637,5.2729,5.2544,5.2483,5.2483,5.2452,5.2698,5.2499,5.2469,5.2561,5.253,5.2575,5.2606,5.227,5.1737,5.1673,5.1471,5.0713,5.0782,5.0752,5.0572,5.0411,5.0306,4.9626,4.9334,4.9042,4.8913,4.8649,4.8561,4.8563,4.8604,4.8604,4.8563,4.8563,4.8563,4.8409,4.814,4.7437,4.6207,4.4924,4.4044,4.3594,4.3637,4.3451,4.3211,4.3026,4.2767,4.2378,4.1964,4.1265,4.0594,4.0323,3.9979,6.0092,6.0272,5.9743,5.9636,5.9827,5.9583,5.9258,5.8746,5.7611,5.6847,5.6286,5.5538,5.5209,5.5209,5.5209,5.5209,5.5209,5.5209,5.5209,5.5209,5.5209,5.5209,5.5209,5.5209,5.5209,5.5209,5.5209,5.5089,5.497,5.493,5.516,5.5315,5.4868,5.4787,5.4894,5.4052,5.3591,5.3315,5.2961,5.276,5.2729,5.2729,5.2653,5.2608,5.2653,5.2729,5.2729,5.2729,5.2729,5.2729,5.2729,5.2729,5.2729,5.2729,5.2729,5.2698,5.2698,5.2698,5.2729,5.2729,5.2729,5.276,5.2852,5.2729,5.2729,5.2821,5.276,5.2729,5.2729,5.2852,5.279,5.2729,5.2729,5.276,5.2698,5.2622,5.2424,5.2438,5.2284,5.2192,5.21,5.2038,5.1471,5.1379,5.1032,5.038,4.9878,4.9433,4.9108,4.8875,4.8725,4.8696,4.8604,4.8604,4.8604,4.8604,4.8604,4.8604,4.8438,4.8229,4.6966,4.6132,4.5314,4.4721,4.4331,4.4134,4.3899,4.3519,4.3333,4.2869,4.2385,4.1754,4.1218,4.0838,4.0485,6.0302,6.0377,6.0031,6.0008,6.0084,5.9674,5.9235,5.8728,5.7428,5.6672,5.6281,5.5529,5.5209,5.5209,5.5209,5.5209,5.5209,5.5209,5.5209,5.5209,5.5209,5.5209,5.5209,5.5209,5.5209,5.5179,5.5209,5.5209,5.5229,5.533,5.5551,5.5979,5.5731,5.5577,5.5667,5.4945,5.4283,5.3699,5.3406,5.3067,5.279,5.2729,5.2729,5.2729,5.2729,5.2729,5.2729,5.2729,5.2729,5.2729,5.2729,5.2729,5.2729,5.2729,5.2729,5.2698,5.2359,5.2452,5.2575,5.2729,5.2852,5.316,5.3437,5.3622,5.3652,5.3652,5.3652,5.3652,5.3652,5.3545,5.3252,5.3191,5.3098,5.276,5.2729,5.2729,5.2729,5.2729,5.2729,5.2729,5.2637,5.2513,5.2298,5.2113,5.1918,5.1372,5.0971,5.0493,4.9794,4.9469,4.894,4.882,4.8666,4.8604,4.8604,4.8604,4.8604,4.8604,4.8563,4.8396,4.7836,4.7199,4.6637,4.6032,4.5401,4.4989,4.473,4.434,4.3871,4.344,4.2909,4.2331,4.1815,4.13,4.1001,6.0429,6.0429,6.0429,6.0429,6.0337,5.9674,5.9307,5.898,5.7374,5.6545,5.6284,5.552,5.5209,5.5209,5.5209,5.5209,5.5209,5.5209,5.5209,5.5209,5.5209,5.5209,5.5179,5.5229,5.528,5.5229,5.528,5.528,5.5431,5.5531,5.583,5.6077,5.6244,5.6181,5.5944,5.5653,5.513,5.4299,5.3976,5.3683,5.3283,5.3191,5.3191,5.3191,5.3221,5.3221,5.3221,5.3191,5.3053,5.2961,5.3006,5.3006,5.2975,5.276,5.2729,5.2698,5.2267,5.2298,5.2667,5.2852,5.316,5.3745,5.4252,5.4591,5.456,5.4498,5.4468,5.4498,5.4468,5.4314,5.3914,5.3683,5.3406,5.3037,5.2821,5.2729,5.2729,5.2729,5.2729,5.2729,5.2729,5.2637,5.2637,5.2544,5.2502,5.235,5.1963,5.1454,5.0721,4.9972,4.9455,4.8974,4.882,4.8635,4.8604,4.8604,4.8604,4.8604,4.8604,4.848,4.8385,4.8019,4.7465,4.6959,4.6432,4.6003,4.5553,4.5081,4.4638,4.4069,4.344,4.2841,4.2276,4.1754,4.1598,6.0534,6.069,6.0481,6.0534,6.0567,5.9747,5.9052,5.8431,5.7183,5.6295,5.5792,5.539,5.5229,5.5229,5.5209,5.5179,5.5229,5.5229,5.5259,5.5229,5.5229,5.5229,5.528,5.5431,5.5481,5.5531,5.5581,5.5681,5.578,5.5929,5.6077,5.6274,5.6372,5.6414,5.6344,5.6053,5.5653,5.513,5.476,5.4422,5.4191,5.4176,5.4176,5.4176,5.4099,5.416,5.4222,5.4283,5.4345,5.4345,5.4345,5.4314,5.4083,5.3345,5.2914,5.2852,5.2698,5.2667,5.2944,5.3314,5.3529,5.3791,5.4437,5.4745,5.4775,5.4775,5.4976,5.4914,5.4884,5.4683,5.4529,5.4099,5.3745,5.3437,5.3098,5.279,5.279,5.2852,5.2914,5.3006,5.2914,5.2729,5.2729,5.2729,5.2608,5.2471,5.2192,5.1836,5.1331,5.0519,4.9835,4.9374,4.9004,4.8789,4.8604,4.8604,4.8604,4.8604,4.8604,4.8604,4.8521,4.8521,4.8187,4.7679,4.7292,4.6945,4.6462,4.5943,4.5372,4.4886,4.4135,4.3278,4.2896,4.2535,4.246,6.0167,6.024,5.9748,5.9645,5.9573,5.8908,5.8427,5.7959,5.6987,5.6332,5.602,5.5731,5.5631,5.5581,5.5431,5.5381,5.5381,5.5381,5.5381,5.5381,5.5381,5.5381,5.5381,5.5581,5.578,5.5929,5.6028,5.5979,5.6028,5.6127,5.6274,5.6372,5.6519,5.6664,5.67,5.6471,5.6023,5.5745,5.5376,5.5068,5.4745,5.4714,5.4714,5.4683,5.4714,5.4683,5.4683,5.4683,5.4652,5.4652,5.4652,5.4683,5.4498,5.4191,5.3745,5.3714,5.3437,5.3406,5.3637,5.4114,5.4314,5.4791,5.5345,5.5745,5.5776,5.5838,5.5715,5.5745,5.5745,5.5622,5.5284,5.4607,5.4099,5.3745,5.3406,5.3252,5.3314,5.3484,5.3591,5.3529,5.316,5.2914,5.2729,5.2729,5.2729,5.2575,5.239,5.2113,5.1805,5.1159,5.0359,4.9682,4.9251,4.8943,4.8727,4.8635,4.8604,4.8604,4.8604,4.8604,4.8604,4.8563,4.8521,4.8229,4.7964,4.7787,4.7422,4.6959,4.6314,4.5598,4.4748,4.3975,4.3634,4.3375,4.3163,5.9716,5.9532,5.9008,5.8793,5.872,5.8104,5.7808,5.7623,5.6825,5.6403,5.6372,5.6127,5.5979,5.5929,5.578,5.5681,5.5631,5.5631,5.5631,5.5581,5.5631,5.5681,5.5631,5.578,5.5979,5.6274,5.6421,5.6372,5.6323,5.6421,5.647,5.6567,5.6713,5.681,5.6779,5.6717,5.633,5.6115,5.5899,5.5592,5.5284,5.513,5.513,5.513,5.513,5.5191,5.5284,5.5315,5.5284,5.5284,5.5253,5.5144,5.5161,5.513,5.513,5.5007,5.4391,5.4283,5.4468,5.4884,5.5099,5.5438,5.6269,5.6686,5.6748,5.6594,5.6686,5.681,5.6748,5.6502,5.5899,5.5161,5.4498,5.4068,5.3837,5.3745,5.3791,5.3976,5.4345,5.4068,5.3529,5.3406,5.3437,5.3067,5.316,5.2975,5.279,5.2452,5.2144,5.1775,5.1036,5.0112,4.9528,4.9127,4.8881,4.8727,4.8666,4.8604,4.8604,4.8604,4.8604,4.8604,4.8583,4.8695,4.8848,4.8687,4.8316,4.7849,4.7089,4.6255,4.5326,4.4712,4.4369,4.3926,4.3642,5.9439,5.8885,5.8793,5.8793,5.8639,5.8042,5.7795,5.7654,5.6794,5.6421,5.6421,5.6176,5.6028,5.6028,5.5979,5.583,5.578,5.583,5.588,5.578,5.588,5.583,5.5731,5.6127,5.6274,5.647,5.6664,5.6713,5.6664,5.6664,5.6713,5.6761,5.6761,5.681,5.681,5.681,5.6779,5.6686,5.6656,5.6594,5.6471,5.644,5.6392,5.644,5.644,5.6378,5.6269,5.6269,5.63,5.6361,5.6423,5.6484,5.6563,5.6594,5.6594,5.6176,5.5468,5.4591,5.4898,5.5315,5.5592,5.5899,5.644,5.6748,5.681,5.681,5.681,5.681,5.681,5.6779,5.633,5.5468,5.4806,5.4468,5.4268,5.4022,5.3945,5.4853,5.5161,5.5099,5.4668,5.4576,5.4576,5.4052,5.3591,5.3375,5.316,5.279,5.2421,5.199,5.1652,5.0759,5.002,4.9589,4.922,4.9004,4.8789,4.8666,4.8604,4.8666,4.882,4.8943,4.9066,4.9178,4.9374,4.927,4.8741,4.8219,4.7641,4.7138,4.6562,4.5813,4.5092,4.463,4.4256,5.8485,5.8227,5.7857,5.7703,5.7641,5.7364,5.7241,5.7131,5.6787,5.6616,5.6616,5.6519,5.6372,5.6274,5.6225,5.6176,5.6077,5.6176,5.6176,5.6077,5.6127,5.6176,5.6127,5.6274,5.647,5.6616,5.6713,5.6761,5.681,5.681,5.681,5.681,5.681,5.681,5.681,5.681,5.681,5.681,5.681,5.681,5.681,5.681,5.681,5.681,5.681,5.681,5.681,5.681,5.681,5.681,5.681,5.681,5.681,5.681,5.681,5.6748,5.6269,5.593,5.5961,5.6146,5.6207,5.63,5.6625,5.6779,5.681,5.681,5.681,5.681,5.681,5.681,5.6686,5.5869,5.5468,5.513,5.4853,5.4822,5.4822,5.5499,5.6023,5.593,5.5807,5.5653,5.5345,5.4545,5.3991,5.3652,5.3314,5.2852,5.2483,5.2052,5.1744,5.1405,5.0728,5.0143,4.9712,4.9404,4.9004,4.885,4.8666,4.8789,4.9189,4.9374,4.9558,4.9743,4.9959,4.9731,4.9205,4.9169,4.9096,4.8571,4.7969,4.7155,4.6337,4.5566,4.5247,5.7549,5.7518,5.7025,5.681,5.681,5.681,5.684,5.681,5.6761,5.681,5.681,5.6761,5.6616,5.647,5.647,5.647,5.6372,5.647,5.647,5.6421,5.647,5.6421,5.6421,5.647,5.6616,5.681,5.6761,5.681,5.681,5.681,5.681,5.681,5.681,5.681,5.681,5.681,5.681,5.681,5.681,5.681,5.681,5.681,5.681,5.681,5.681,5.681,5.681,5.681,5.681,5.681,5.681,5.681,5.681,5.681,5.681,5.681,5.6625,5.6625,5.6625,5.6686,5.681,5.681,5.681,5.681,5.681,5.681,5.681,5.681,5.681,5.681,5.6656,5.6084,5.5715,5.5592,5.5561,5.5653,5.5776,5.6146,5.6471,5.6392,5.633,5.6484,5.5992,5.5007,5.4391,5.3991,5.3498,5.2944,5.2606,5.2236,5.2175,5.1959,5.1374,5.0759,5.0236,4.9805,4.9404,4.9097,4.8912,4.9158,4.9712,4.9989,5.0143,5.0359,5.0605,5.0808,5.0734,5.0716,5.0549,4.9674,4.8799,4.8369,4.7703,4.6845,4.624,5.6871,5.6871,5.684,5.681,5.681,5.681,5.681,5.681,5.681,5.681,5.681,5.6761,5.6664,5.6519,5.6616,5.6616,5.6421,5.6664,5.6616,5.6567,5.6616,5.6616,5.6598,5.6677,5.6854,5.6902,5.7087,5.7056,5.6902,5.7179,5.6994,5.681,5.6902,5.684,5.681,5.681,5.681,5.681,5.681,5.681,5.681,5.681,5.681,5.681,5.681,5.681,5.681,5.681,5.681,5.681,5.681,5.6858,5.6858,5.6906,5.6906,5.6906,5.6906,5.6906,5.6858,5.681,5.681,5.681,5.681,5.681,5.681,5.681,5.681,5.681,5.681,5.681,5.6625,5.6207,5.593,5.5899,5.5961,5.5961,5.6115,5.644,5.6686,5.6779,5.681,5.681,5.6748,5.5745,5.4884,5.4453,5.3529,5.2975,5.2914,5.2667,5.276,5.2575,5.2021,5.1405,5.0728,5.0297,4.9866,4.962,4.9466,4.9897,5.0482,5.0667,5.0759,5.1097,5.1374,5.1836,5.2113,5.1652,5.1072,5.0332,4.9674,4.9122,4.8507,4.7649,4.7266,5.681,5.681,5.681,5.681,5.681,5.681,5.681,5.681,5.681,5.681,5.681,5.681,5.6761,5.6713,5.6713,5.6761,5.6664,5.6713,5.6713,5.6713,5.6713,5.6713,5.6805,5.7051,5.7457,5.7487,5.7734,5.8042,5.8054,5.7919,5.8042,5.7888,5.7303,5.6902,5.681,5.6933,5.6902,5.684,5.684,5.681,5.681,5.681,5.681,5.681,5.681,5.681,5.681,5.681,5.681,5.681,5.681,5.6858,5.705,5.7146,5.7273,5.7304,5.7335,5.7287,5.7033,5.6937,5.681,5.681,5.681,5.681,5.681,5.681,5.681,5.681,5.681,5.681,5.6717,5.6563,5.644,5.6361,5.63,5.6347,5.644,5.6686,5.6779,5.681,5.681,5.681,5.6717,5.6532,5.5653,5.4806,5.3868,5.3067,5.3006,5.3067,5.3098,5.3037,5.2483,5.1959,5.1282,5.079,5.0328,5.0174,5.0051,5.0574,5.1097,5.1282,5.1436,5.1775,5.199,5.2175,5.2206,5.2082,5.1717,5.1308,5.0603,4.9763,4.9115,4.8304,4.8098,5.6664,5.6713,5.6761,5.681,5.681,5.681,5.681,5.681,5.681,5.681,5.681,5.681,5.681,5.681,5.681,5.681,5.6761,5.681,5.681,5.6761,5.6761,5.681,5.6964,5.721,5.7457,5.7808,5.8177,5.8393,5.8639,5.8762,5.867,5.8362,5.7931,5.7562,5.7487,5.7395,5.7333,5.7179,5.7118,5.6964,5.6902,5.681,5.681,5.681,5.681,5.681,5.681,5.681,5.681,5.681,5.681,5.6923,5.7273,5.7699,5.7981,5.8075,5.8201,5.8152,5.7834,5.7157,5.6871,5.681,5.681,5.681,5.681,5.684,5.681,5.681,5.681,5.684,5.6871,5.6717,5.6686,5.6625,5.6625,5.6625,5.6656,5.681,5.681,5.681,5.681,5.681,5.6625,5.6471,5.5715,5.4991,5.4406,5.356,5.2944,5.3067,5.3345,5.3191,5.2914,5.2359,5.1836,5.1344,5.0944,5.0944,5.0913,5.119,5.1621,5.1805,5.199,5.2206,5.2329,5.239,5.239,5.2359,5.2483,5.253,5.1484,5.0211,4.9124,4.8446,4.8458,5.6421,5.647,5.6713,5.681,5.681,5.681,5.681,5.681,5.681,5.681,5.681,5.681,5.681,5.681,5.681,5.681,5.681,5.681,5.6761,5.6761,5.6713,5.6761,5.6823,5.7008,5.7451,5.7765,5.8258,5.8639,5.8978,5.9131,5.9039,5.8854,5.8608,5.8454,5.867,5.8701,5.8442,5.7888,5.7734,5.7364,5.6933,5.681,5.681,5.681,5.681,5.681,5.681,5.681,5.681,5.681,5.681,5.6971,5.7401,5.8452,5.8939,5.9128,5.9728,5.9805,5.9385,5.781,5.7197,5.7118,5.7272,5.7179,5.6994,5.6933,5.7087,5.7333,5.7148,5.7056,5.6933,5.6933,5.7056,5.7118,5.7179,5.721,5.7272,5.7056,5.7087,5.7056,5.6902,5.6779,5.6515,5.6207,5.5592,5.5099,5.4775,5.4129,5.3283,5.3191,5.3529,5.3622,5.3406,5.2975,5.2452,5.1898,5.159,5.1621,5.1652,5.1775,5.2052,5.2329,5.2483,5.2606,5.2606,5.2544,5.2606,5.2667,5.2606,5.2421,5.1621,5.047,4.9374,4.8696,4.882,5.6421,5.6421,5.6713,5.681,5.681,5.681,5.681,5.681,5.681,5.681,5.681,5.681,5.681,5.681,5.681,5.681,5.681,5.681,5.6761,5.6567,5.6519,5.6519,5.658,5.6966,5.7537,5.8393,5.8824,5.9316,6.0178,5.9901,5.9716,5.9532,5.8947,5.8793,5.8762,5.8731,5.8454,5.7949,5.7765,5.7518,5.6902,5.681,5.684,5.684,5.6871,5.6871,5.6902,5.6902,5.6871,5.684,5.684,5.7112,5.7683,5.8735,5.9458,5.9757,6.0295,6.0408,5.9736,5.8732,5.8344,5.8215,5.8042,5.7962,5.8134,5.8134,5.8134,5.8073,5.7931,5.8011,5.8146,5.8116,5.8177,5.8208,5.8239,5.8239,5.8177,5.7715,5.7549,5.7395,5.7241,5.6933,5.6686,5.6453,5.593,5.5253,5.4914,5.4422,5.3622,5.3545,5.376,5.3976,5.3883,5.356,5.3098,5.2513,5.2175,5.2175,5.2052,5.1929,5.2267,5.2667,5.2698,5.2667,5.2698,5.2729,5.2729,5.2667,5.239,5.199,5.1559,5.1036,5.0143,4.9558,4.9374,5.6274,5.6323,5.6664,5.681,5.681,5.681,5.681,5.681,5.681,5.681,5.681,5.681,5.681,5.681,5.681,5.681,5.6761,5.6664,5.6616,5.6372,5.6274,5.6323,5.6525,5.688,5.7426,5.8404,5.9131,5.9716,6.0209,6.0393,5.9963,5.9347,5.9008,5.8824,5.8793,5.8701,5.8454,5.7962,5.7765,5.7487,5.7025,5.684,5.6964,5.7118,5.7179,5.7179,5.7179,5.7118,5.7025,5.6933,5.7043,5.736,5.8057,5.9065,6.0044,6.0644,6.1231,6.1329,6.0795,6.0253,5.9923,5.9521,5.9182,5.8793,5.8793,5.8639,5.867,5.8701,5.8854,5.8824,5.8824,5.8854,5.8885,5.8885,5.8854,5.8824,5.867,5.8208,5.7826,5.7672,5.7272,5.6994,5.684,5.6686,5.6409,5.5653,5.5007,5.4545,5.4176,5.4237,5.4299,5.4483,5.4545,5.4206,5.3714,5.3098,5.2852,5.2729,5.2483,5.2206,5.2359,5.2729,5.2729,5.2729,5.2729,5.2729,5.2729,5.2606,5.2452,5.2359,5.2175,5.1559,5.0851,5.0359,4.9928,5.6028,5.6077,5.6567,5.681,5.681,5.681,5.681,5.681,5.681,5.6761,5.6761,5.6761,5.6713,5.6713,5.6713,5.6713,5.6664,5.647,5.6372,5.6274,5.6077,5.6176,5.6225,5.6396,5.7033,5.7721,5.8454,5.905,5.9686,5.9562,5.9224,5.8854,5.8535,5.8442,5.8442,5.8381,5.8116,5.7839,5.7795,5.7426,5.7012,5.6906,5.7311,5.759,5.7903,5.7855,5.7886,5.7788,5.74,5.729,5.7364,5.7903,5.8851,6.0261,6.1248,6.2125,6.2748,6.2458,6.2017,6.149,6.0998,6.0373,5.9593,5.9101,5.9039,5.9224,5.9285,5.9255,5.9285,5.9131,5.9039,5.907,5.9131,5.9131,5.9131,5.907,5.8947,5.8608,5.8196,5.7765,5.721,5.6964,5.7056,5.6933,5.6964,5.6515,5.5992,5.5622,5.5284,5.513,5.5161,5.513,5.5099,5.4884,5.436,5.3652,5.3067,5.2821,5.2729,5.2544,5.2698,5.2729,5.2729,5.2729,5.2729,5.2729,5.2729,5.2729,5.2698,5.2575,5.2452,5.2206,5.1498,5.0728,5.0205,5.6028,5.6077,5.6567,5.681,5.681,5.681,5.681,5.681,5.681,5.6713,5.6519,5.6519,5.6421,5.6225,5.6225,5.6274,5.6225,5.6127,5.5979,5.588,5.578,5.578,5.583,5.599,5.6553,5.7198,5.7806,5.8304,5.8824,5.8731,5.8423,5.8104,5.7765,5.758,5.7518,5.7426,5.758,5.7654,5.7734,5.7462,5.7253,5.7211,5.782,5.8417,5.8875,5.8859,5.8777,5.8584,5.8114,5.7408,5.7567,5.7991,5.8328,5.9871,6.119,6.2668,6.2923,6.2695,6.2351,6.1853,6.1379,6.0949,6.0301,6.0332,6.0209,6.0086,6.0055,5.9963,5.9901,5.9839,5.9839,5.987,5.987,5.9839,5.9839,5.9809,5.9686,5.9316,5.8824,5.8146,5.7611,5.7303,5.7395,5.7549,5.7549,5.7285,5.6977,5.6607,5.6269,5.6023,5.5899,5.5838,5.5653,5.5438,5.4791,5.4037,5.3406,5.2914,5.2883,5.2821,5.2729,5.2729,5.2729,5.2729,5.2729,5.2729,5.2729,5.2729,5.2729,5.2729,5.2606,5.2452,5.2144,5.1344,5.0728,5.583,5.5929,5.6421,5.6713,5.681,5.681,5.6761,5.6664,5.6664,5.6519,5.6421,5.6274,5.6176,5.6077,5.6028,5.6028,5.6028,5.588,5.578,5.5681,5.5481,5.5531,5.5581,5.5661,5.6191,5.6774,5.7308,5.7825,5.8158,5.8054,5.7795,5.7395,5.6933,5.6871,5.6871,5.6994,5.7087,5.7272,5.7382,5.7342,5.7445,5.7699,5.8499,5.9538,6.0056,6.0151,6.0091,5.9838,5.9092,5.8208,5.8301,5.843,5.8876,6.0279,6.132,6.2614,6.2695,6.258,6.2302,6.1885,6.1328,6.0949,6.0794,6.0732,6.0701,6.0578,6.0609,6.0609,6.0671,6.0732,6.0763,6.0763,6.0763,6.0732,6.0732,6.0732,6.0424,6.0086,5.947,5.8762,5.827,5.7869,5.7839,5.8023,5.8116,5.8042,5.7715,5.7346,5.6946,5.6625,5.6502,5.644,5.6207,5.5961,5.5253,5.4576,5.4022,5.3529,5.3283,5.316,5.2883,5.2729,5.2729,5.2729,5.2729,5.2729,5.2729,5.2729,5.2729,5.2729,5.2729,5.2606,5.2359,5.1867,5.1374,5.5581,5.5631,5.6176,5.6567,5.6761,5.681,5.6664,5.6421,5.6372,5.6323,5.6274,5.6077,5.5929,5.583,5.583,5.583,5.578,5.5631,5.5581,5.5581,5.533,5.533,5.5481,5.5611,5.5871,5.637,5.6861,5.7167,5.7525,5.7531,5.7303,5.684,5.684,5.681,5.681,5.681,5.6964,5.7241,5.729,5.736,5.7824,5.8326,5.9295,6.0921,6.1612,6.1924,6.1944,6.1552,6.0895,5.9969,5.934,5.9309,5.9947,6.08,6.1728,6.2022,6.2284,6.2202,6.2053,6.1734,6.1359,6.1,6.0794,6.0794,6.0794,6.0794,6.0794,6.0794,6.0794,6.0794,6.0794,6.0794,6.0794,6.0794,6.0794,6.0794,6.064,6.0147,5.9408,5.8762,5.83,5.8104,5.8639,5.8854,5.8854,5.8731,5.8577,5.8208,5.7746,5.7364,5.7056,5.6964,5.6625,5.6269,5.5715,5.513,5.4699,5.4268,5.3837,5.3283,5.2852,5.2729,5.2729,5.2729,5.2729,5.2729,5.2729,5.2729,5.2729,5.2729,5.2729,5.2729,5.2483,5.2175,5.1836,5.5581,5.5631,5.6176,5.6567,5.681,5.681,5.6664,5.6372,5.6176,5.5979,5.583,5.5731,5.5581,5.5481,5.5481,5.5481,5.5461,5.5461,5.533,5.533,5.5229,5.5229,5.528,5.5381,5.5531,5.5711,5.6031,5.6431,5.6807,5.6941,5.7056,5.684,5.681,5.681,5.681,5.681,5.6994,5.7395,5.7598,5.8,5.8734,5.9916,6.1128,6.2399,6.3203,6.3383,6.3316,6.2811,6.188,6.0899,6.0281,6.0143,6.0372,6.1157,6.157,6.1734,6.1784,6.1784,6.1683,6.1481,6.1155,6.0949,6.0794,6.0794,6.0794,6.0794,6.0794,6.0794,6.0794,6.0794,6.0794,6.0794,6.0794,6.0794,6.0794,6.0794,6.0763,6.0086,5.9347,5.8916,5.8393,5.8751,5.9316,5.9532,5.9532,5.9532,5.9501,5.9224,5.8701,5.8258,5.7611,5.7395,5.6933,5.6532,5.6023,5.5684,5.5253,5.4637,5.4114,5.3498,5.2914,5.3037,5.316,5.2852,5.2729,5.2852,5.2883,5.2729,5.2729,5.2729,5.2729,5.2729,5.2729,5.2483,5.2144,5.5431,5.5481,5.588,5.6274,5.6567,5.6616,5.647,5.6225,5.6077,5.578,5.5481,5.5431,5.533,5.5209,5.5209,5.5209,5.5209,5.5179,5.5229,5.5229,5.5209,5.5209,5.5209,5.5179,5.5431,5.5581,5.588,5.6206,5.6421,5.6664,5.684,5.681,5.681,5.681,5.681,5.6871,5.7179,5.7795,5.8073,5.8874,5.979,6.0976,6.2191,6.3416,6.4343,6.4617,6.4653,6.424,6.3545,6.2686,6.2044,6.0899,6.0854,6.1121,6.1387,6.1277,6.1257,6.1257,6.1206,6.1103,6.0949,6.0845,6.0794,6.0794,6.0794,6.0794,6.0794,6.0794,6.0794,6.0794,6.0794,6.0794,6.0794,6.0794,6.0794,6.0794,6.0578,6.0116,5.9932,5.9993,5.9593,5.9439,5.9963,6.024,6.0209,6.0116,6.0116,5.9839,5.9378,5.9101,5.8504,5.7949,5.7611,5.7025,5.6502,5.6146,5.5869,5.5191,5.4453,5.4237,5.3929,5.3775,5.3622,5.3468,5.3314,5.3221,5.3191,5.2914,5.2729,5.2729,5.2729,5.2729,5.2729,5.2729,5.2452,5.5229,5.528,5.5531,5.5929,5.6372,5.6421,5.6274,5.6028,5.5979,5.5681,5.5229,5.5229,5.5209,5.5209,5.5209,5.5209,5.5209,5.5209,5.5209,5.5209,5.5209,5.5209,5.5209,5.5229,5.533,5.5631,5.5979,5.6127,5.6323,5.6616,5.681,5.681,5.681,5.681,5.684,5.6994,5.7364,5.8073,5.8777,5.9874,6.0897,6.1863,6.301,6.4222,6.5319,6.5876,6.5938,6.5636,6.5114,6.4505,6.3617,6.225,6.1392,6.1397,6.1313,6.1308,6.1052,6.1,6.0897,6.0897,6.0845,6.0794,6.0794,6.0845,6.0897,6.0949,6.0949,6.0897,6.0897,6.0794,6.0794,6.0794,6.0794,6.0794,6.0794,6.0794,6.0486,6.0209,6.0393,6.064,6.0455,6.0178,6.0393,6.0701,6.0701,6.064,6.0455,6.0147,5.987,5.9686,5.9316,5.8854,5.8566,5.7919,5.7118,5.6625,5.63,5.5715,5.5099,5.5037,5.4884,5.4453,5.4191,5.4314,5.416,5.3699,5.333,5.3067,5.2914,5.279,5.2729,5.2729,5.2729,5.2729,5.2729,5.533,5.5531,5.5581,5.5929,5.6372,5.6372,5.6274,5.6028,5.6028,5.5681,5.533,5.5209,5.5209,5.5209,5.5209,5.5209,5.5209,5.5209,5.5209,5.5209,5.5209,5.5209,5.5209,5.5179,5.5259,5.5481,5.583,5.6028,5.6274,5.6616,5.681,5.681,5.6858,5.6889,5.695,5.7228,5.7881,5.8529,5.9359,6.036,6.1863,6.2938,6.4047,6.5127,6.6067,6.6339,6.6354,6.6095,6.5834,6.5437,6.4753,6.3329,6.2453,6.2093,6.2045,6.1531,6.1308,6.1,6.0897,6.0794,6.0794,6.0845,6.0949,6.1257,6.1308,6.143,6.143,6.1328,6.1226,6.0897,6.0845,6.0794,6.0794,6.0794,6.0794,6.0794,6.064,6.0363,6.024,6.0363,6.0363,6.0363,6.0609,6.0763,6.0763,6.0732,6.0701,6.0455,6.0424,6.027,6.0086,5.9747,5.9378,5.8639,5.7857,5.7087,5.6656,5.6084,5.5715,5.5592,5.5315,5.4775,5.4683,5.5037,5.4545,5.3929,5.3591,5.3591,5.3098,5.2944,5.279,5.2729,5.2729,5.276,5.279]}]]